Wetterdaten: Mittwoch, 22.02.2017
Datum Zeit Temp. A. Feuchte A. Luftdruck Regen Wind Richtung Richtung Sonnenschein ET UV Solar Taupunkt Windchill Windben Empfang
22.02.2017 00:00 7,8 C 97 % 1015,3 hPa 0,0 l/m 7,7 km/h (2 Bft) SW 228 0 min 0,000 mm 0,0 UV-I 0 W/m 7,4 C 6,8 C 11,3 km/h (2 Bft) 97,87 %
22.02.2017 00:02 7,8 C 97 % 1015,3 hPa 0,0 l/m 7,5 km/h (2 Bft) SW 234 0 min 0,000 mm 0,0 UV-I 0 W/m 7,4 C 6,9 C 12,9 km/h (3 Bft) 100,00 %
22.02.2017 00:04 7,8 C 97 % 1015,3 hPa 0,0 l/m 7,9 km/h (2 Bft) W-SW 239 0 min 0,000 mm 0,0 UV-I 0 W/m 7,4 C 6,6 C 12,9 km/h (3 Bft) 100,00 %
22.02.2017 00:06 7,8 C 97 % 1015,3 hPa 0,0 l/m 8,4 km/h (2 Bft) SW 230 0 min 0,000 mm 0,0 UV-I 0 W/m 7,4 C 6,2 C 12,9 km/h (3 Bft) 98,18 %
22.02.2017 00:08 7,8 C 97 % 1015,3 hPa 0,0 l/m 6,8 km/h (2 Bft) SW 225 0 min 0,000 mm 0,0 UV-I 0 W/m 7,4 C 7,5 C 9,7 km/h (2 Bft) 97,62 %
22.02.2017 00:10 7,8 C 97 % 1015,4 hPa 0,0 l/m 6,6 km/h (2 Bft) S-SW 209 0 min 0,000 mm 0,0 UV-I 0 W/m 7,4 C 7,7 C 9,7 km/h (2 Bft) 100,00 %
22.02.2017 00:12 7,8 C 97 % 1015,3 hPa 0,0 l/m 8,4 km/h (2 Bft) SW 233 0 min 0,000 mm 0,0 UV-I 0 W/m 7,4 C 6,2 C 11,3 km/h (2 Bft) 100,00 %
22.02.2017 00:14 7,8 C 97 % 1015,3 hPa 0,0 l/m 7,8 km/h (2 Bft) W-SW 238 0 min 0,000 mm 0,0 UV-I 0 W/m 7,4 C 6,7 C 12,9 km/h (3 Bft) 100,00 %
22.02.2017 00:16 7,9 C 97 % 1015,3 hPa 0,0 l/m 7,9 km/h (2 Bft) W-SW 250 0 min 0,000 mm 0,0 UV-I 0 W/m 7,5 C 6,7 C 11,3 km/h (2 Bft) 98,00 %
22.02.2017 00:18 7,9 C 97 % 1015,3 hPa 0,0 l/m 6,1 km/h (2 Bft) W-SW 250 0 min 0,000 mm 0,0 UV-I 0 W/m 7,5 C 7,9 C 8,0 km/h (2 Bft) 100,00 %
22.02.2017 00:20 7,9 C 97 % 1015,3 hPa 0,0 l/m 7,8 km/h (2 Bft) S-SW 203 0 min 0,000 mm 0,0 UV-I 0 W/m 7,5 C 6,8 C 11,3 km/h (2 Bft) 97,73 %
22.02.2017 00:22 7,9 C 97 % 1015,3 hPa 0,0 l/m 8,0 km/h (2 Bft) SW 223 0 min 0,000 mm 0,0 UV-I 0 W/m 7,5 C 6,6 C 12,9 km/h (3 Bft) 100,00 %
22.02.2017 00:24 7,9 C 97 % 1015,3 hPa 0,0 l/m 8,1 km/h (2 Bft) W-SW 255 0 min 0,000 mm 0,0 UV-I 0 W/m 7,5 C 6,6 C 12,9 km/h (3 Bft) 97,37 %
22.02.2017 00:26 7,9 C 97 % 1015,3 hPa 0,2 l/m 9,2 km/h (2 Bft) W-SW 242 0 min 0,000 mm 0,0 UV-I 0 W/m 7,5 C 5,8 C 14,5 km/h (3 Bft) 100,00 %
22.02.2017 00:28 7,9 C 97 % 1015,3 hPa 0,0 l/m 9,8 km/h (2 Bft) W-SW 244 0 min 0,000 mm 0,0 UV-I 0 W/m 7,5 C 5,4 C 16,1 km/h (3 Bft) 100,00 %
22.02.2017 00:30 8,0 C 97 % 1015,3 hPa 0,0 l/m 8,1 km/h (2 Bft) W-SW 254 0 min 0,000 mm 0,0 UV-I 0 W/m 7,6 C 6,7 C 12,9 km/h (3 Bft) 97,87 %
22.02.2017 00:32 7,9 C 97 % 1015,3 hPa 0,0 l/m 9,0 km/h (2 Bft) W 277 0 min 0,000 mm 0,0 UV-I 0 W/m 7,5 C 5,9 C 14,5 km/h (3 Bft) 100,00 %
22.02.2017 00:34 8,0 C 97 % 1015,3 hPa 0,0 l/m 7,5 km/h (2 Bft) W 276 0 min 0,000 mm 0,0 UV-I 0 W/m 7,6 C 7,1 C 12,9 km/h (3 Bft) 98,00 %
22.02.2017 00:36 8,0 C 97 % 1015,3 hPa 0,0 l/m 7,1 km/h (2 Bft) W-SW 244 0 min 0,000 mm 0,0 UV-I 0 W/m 7,6 C 7,4 C 12,9 km/h (3 Bft) 98,00 %
22.02.2017 00:38 8,0 C 97 % 1015,3 hPa 0,0 l/m 8,6 km/h (2 Bft) W-SW 253 0 min 0,000 mm 0,0 UV-I 0 W/m 7,6 C 6,3 C 12,9 km/h (3 Bft) 100,00 %
22.02.2017 00:40 8,1 C 97 % 1015,3 hPa 0,0 l/m 6,6 km/h (2 Bft) W-SW 256 0 min 0,000 mm 0,0 UV-I 0 W/m 7,7 C 8,0 C 11,3 km/h (2 Bft) 100,00 %
22.02.2017 00:42 8,1 C 97 % 1015,3 hPa 0,2 l/m 5,0 km/h (1 Bft) SW 228 0 min 0,000 mm 0,0 UV-I 0 W/m 7,7 C 8,1 C 9,7 km/h (2 Bft) 100,00 %
22.02.2017 00:44 8,0 C 97 % 1015,3 hPa 0,0 l/m 4,6 km/h (1 Bft) W-NW 286 0 min 0,000 mm 0,0 UV-I 0 W/m 7,6 C 8,0 C 9,7 km/h (2 Bft) 100,00 %
22.02.2017 00:46 8,0 C 97 % 1015,3 hPa 0,0 l/m 2,7 km/h (1 Bft) W-NW 290 0 min 0,000 mm 0,0 UV-I 0 W/m 7,6 C 8,0 C 4,8 km/h (1 Bft) 100,00 %
22.02.2017 00:48 8,0 C 97 % 1015,2 hPa 0,0 l/m 1,2 km/h (1 Bft) NW 312 0 min 0,000 mm 0,0 UV-I 0 W/m 7,6 C 8,0 C 4,8 km/h (1 Bft) 100,00 %
22.02.2017 00:50 8,0 C 97 % 1015,2 hPa 0,0 l/m 0,9 km/h (0 Bft) NW 312 0 min 0,000 mm 0,0 UV-I 0 W/m 7,6 C 8,0 C 3,2 km/h (1 Bft) 100,00 %
22.02.2017 00:52 7,9 C 97 % 1015,2 hPa 0,0 l/m 3,1 km/h (1 Bft) W-NW 282 0 min 0,000 mm 0,0 UV-I 0 W/m 7,5 C 7,9 C 4,8 km/h (1 Bft) 100,00 %
22.02.2017 00:54 7,9 C 97 % 1015,2 hPa 0,0 l/m 1,8 km/h (1 Bft) W-NW 282 0 min 0,000 mm 0,0 UV-I 0 W/m 7,5 C 7,9 C 3,2 km/h (1 Bft) 100,00 %
22.02.2017 00:56 7,9 C 97 % 1015,3 hPa 0,0 l/m 2,8 km/h (1 Bft) W-NW 284 0 min 0,000 mm 0,0 UV-I 0 W/m 7,5 C 7,9 C 4,8 km/h (1 Bft) 100,00 %
22.02.2017 00:58 7,9 C 97 % 1015,4 hPa 0,0 l/m 1,5 km/h (1 Bft) N-NW 327 0 min 0,000 mm 0,0 UV-I 0 W/m 7,5 C 7,9 C 4,8 km/h (1 Bft) 100,00 %
22.02.2017 01:00 7,8 C 97 % 1015,4 hPa 0,2 l/m 4,2 km/h (1 Bft) NW 317 0 min 0,000 mm 0,0 UV-I 0 W/m 7,4 C 7,8 C 8,0 km/h (2 Bft) 100,00 %
22.02.2017 01:02 7,8 C 97 % 1015,4 hPa 0,0 l/m 3,1 km/h (1 Bft) NW 326 0 min 0,000 mm 0,0 UV-I 0 W/m 7,4 C 7,8 C 6,4 km/h (2 Bft) 100,00 %
22.02.2017 01:04 7,8 C 97 % 1015,4 hPa 0,0 l/m 3,9 km/h (1 Bft) W-SW 252 0 min 0,000 mm 0,0 UV-I 0 W/m 7,4 C 7,8 C 8,0 km/h (2 Bft) 100,00 %
22.02.2017 01:06 7,8 C 97 % 1015,3 hPa 0,0 l/m 8,4 km/h (2 Bft) W-NW 291 0 min 0,000 mm 0,0 UV-I 0 W/m 7,4 C 6,2 C 17,7 km/h (3 Bft) 100,00 %
22.02.2017 01:08 7,8 C 97 % 1015,3 hPa 0,0 l/m 8,1 km/h (2 Bft) W 267 0 min 0,000 mm 0,0 UV-I 0 W/m 7,4 C 6,5 C 17,7 km/h (3 Bft) 100,00 %
22.02.2017 01:10 7,8 C 97 % 1015,3 hPa 0,0 l/m 6,4 km/h (2 Bft) W 271 0 min 0,000 mm 0,0 UV-I 0 W/m 7,4 C 7,8 C 9,7 km/h (2 Bft) 100,00 %
22.02.2017 01:12 7,8 C 98 % 1015,3 hPa 0,0 l/m 5,7 km/h (1 Bft) W 267 0 min 0,000 mm 0,0 UV-I 0 W/m 7,5 C 7,8 C 12,9 km/h (3 Bft) 100,00 %
22.02.2017 01:14 7,8 C 97 % 1015,3 hPa 0,0 l/m 9,1 km/h (2 Bft) W 276 0 min 0,000 mm 0,0 UV-I 0 W/m 7,4 C 5,8 C 12,9 km/h (3 Bft) 100,00 %
22.02.2017 01:16 7,8 C 97 % 1015,3 hPa 0,0 l/m 9,0 km/h (2 Bft) W 259 0 min 0,000 mm 0,0 UV-I 0 W/m 7,4 C 5,8 C 14,5 km/h (3 Bft) 100,00 %
22.02.2017 01:18 7,8 C 97 % 1015,3 hPa 0,0 l/m 12,4 km/h (3 Bft) W 273 0 min 0,000 mm 0,0 UV-I 0 W/m 7,4 C 3,8 C 17,7 km/h (3 Bft) 100,00 %
22.02.2017 01:20 7,8 C 97 % 1015,3 hPa 0,0 l/m 8,7 km/h (2 Bft) W 263 0 min 0,000 mm 0,0 UV-I 0 W/m 7,4 C 6,0 C 16,1 km/h (3 Bft) 97,87 %
22.02.2017 01:22 7,8 C 97 % 1015,3 hPa 0,0 l/m 10,3 km/h (2 Bft) W-SW 254 0 min 0,000 mm 0,0 UV-I 0 W/m 7,4 C 5,0 C 17,7 km/h (3 Bft) 100,00 %
22.02.2017 01:24 7,8 C 97 % 1015,2 hPa 0,0 l/m 9,1 km/h (2 Bft) W-SW 254 0 min 0,000 mm 0,0 UV-I 0 W/m 7,4 C 5,8 C 12,9 km/h (3 Bft) 97,87 %
22.02.2017 01:26 7,8 C 97 % 1015,2 hPa 0,0 l/m 5,5 km/h (1 Bft) W 265 0 min 0,000 mm 0,0 UV-I 0 W/m 7,4 C 7,8 C 9,7 km/h (2 Bft) 100,00 %
22.02.2017 01:28 7,7 C 97 % 1015,2 hPa 0,0 l/m 5,6 km/h (1 Bft) W-SW 253 0 min 0,000 mm 0,0 UV-I 0 W/m 7,3 C 7,7 C 9,7 km/h (2 Bft) 100,00 %
22.02.2017 01:30 7,7 C 97 % 1015,2 hPa 0,0 l/m 5,9 km/h (2 Bft) SW 219 0 min 0,000 mm 0,0 UV-I 0 W/m 7,3 C 7,7 C 9,7 km/h (2 Bft) 97,87 %
22.02.2017 01:32 7,7 C 97 % 1015,2 hPa 0,0 l/m 13,6 km/h (3 Bft) W-SW 254 0 min 0,000 mm 0,0 UV-I 0 W/m 7,3 C 3,0 C 19,3 km/h (3 Bft) 95,83 %
22.02.2017 01:34 7,7 C 97 % 1015,2 hPa 0,0 l/m 9,0 km/h (2 Bft) W-SW 250 0 min 0,000 mm 0,0 UV-I 0 W/m 7,3 C 5,7 C 16,1 km/h (3 Bft) 94,74 %
22.02.2017 01:36 7,7 C 97 % 1015,2 hPa 0,0 l/m 13,7 km/h (3 Bft) W-SW 255 0 min 0,000 mm 0,0 UV-I 0 W/m 7,3 C 3,0 C 17,7 km/h (3 Bft) 98,11 %
22.02.2017 01:38 7,7 C 97 % 1015,2 hPa 0,0 l/m 6,7 km/h (2 Bft) W 263 0 min 0,000 mm 0,0 UV-I 0 W/m 7,3 C 7,5 C 12,9 km/h (3 Bft) 97,56 %
22.02.2017 01:40 7,7 C 97 % 1015,2 hPa 0,0 l/m 7,4 km/h (2 Bft) W 264 0 min 0,000 mm 0,0 UV-I 0 W/m 7,3 C 6,9 C 11,3 km/h (2 Bft) 98,00 %
22.02.2017 01:42 7,6 C 97 % 1015,2 hPa 0,0 l/m 8,4 km/h (2 Bft) W-SW 255 0 min 0,000 mm 0,0 UV-I 0 W/m 7,2 C 6,0 C 14,5 km/h (3 Bft) 93,62 %
22.02.2017 01:44 7,6 C 97 % 1015,1 hPa 0,0 l/m 8,3 km/h (2 Bft) W 266 0 min 0,000 mm 0,0 UV-I 0 W/m 7,2 C 6,1 C 14,5 km/h (3 Bft) 98,00 %
22.02.2017 01:46 7,6 C 97 % 1015,1 hPa 0,0 l/m 5,6 km/h (1 Bft) W 261 0 min 0,000 mm 0,0 UV-I 0 W/m 7,2 C 7,6 C 11,3 km/h (2 Bft) 97,87 %
22.02.2017 01:48 7,5 C 97 % 1015,1 hPa 0,2 l/m 6,9 km/h (2 Bft) W-NW 286 0 min 0,000 mm 0,0 UV-I 0 W/m 7,1 C 7,1 C 11,3 km/h (2 Bft) 96,23 %
22.02.2017 01:50 7,5 C 97 % 1015,1 hPa 0,0 l/m 7,6 km/h (2 Bft) W-NW 298 0 min 0,000 mm 0,0 UV-I 0 W/m 7,1 C 6,5 C 11,3 km/h (2 Bft) 97,37 %
22.02.2017 01:52 7,5 C 97 % 1015,1 hPa 0,0 l/m 5,9 km/h (2 Bft) W-SW 243 0 min 0,000 mm 0,0 UV-I 0 W/m 7,1 C 7,5 C 11,3 km/h (2 Bft) 98,00 %
22.02.2017 01:54 7,5 C 97 % 1015,0 hPa 0,0 l/m 7,3 km/h (2 Bft) W 268 0 min 0,000 mm 0,0 UV-I 0 W/m 7,1 C 6,8 C 12,9 km/h (3 Bft) 98,11 %
22.02.2017 01:56 7,5 C 97 % 1015,0 hPa 0,0 l/m 8,9 km/h (2 Bft) W-SW 258 0 min 0,000 mm 0,0 UV-I 0 W/m 7,1 C 5,6 C 12,9 km/h (3 Bft) 97,56 %
22.02.2017 01:58 7,4 C 97 % 1015,0 hPa 0,0 l/m 6,5 km/h (2 Bft) W-SW 245 0 min 0,000 mm 0,0 UV-I 0 W/m 7,0 C 7,3 C 11,3 km/h (2 Bft) 93,62 %
22.02.2017 02:00 7,4 C 97 % 1015,0 hPa 0,0 l/m 7,4 km/h (2 Bft) W 273 0 min 0,000 mm 0,0 UV-I 0 W/m 7,0 C 6,6 C 11,3 km/h (2 Bft) 94,00 %
22.02.2017 02:02 7,4 C 97 % 1015,0 hPa 0,0 l/m 8,8 km/h (2 Bft) W-SW 252 0 min 0,000 mm 0,0 UV-I 0 W/m 7,0 C 5,5 C 14,5 km/h (3 Bft) 97,44 %
22.02.2017 02:04 7,4 C 97 % 1015,0 hPa 0,0 l/m 8,4 km/h (2 Bft) W 275 0 min 0,000 mm 0,0 UV-I 0 W/m 7,0 C 5,8 C 12,9 km/h (3 Bft) 96,36 %
22.02.2017 02:06 7,4 C 97 % 1015,0 hPa 0,0 l/m 9,9 km/h (2 Bft) W-SW 250 0 min 0,000 mm 0,0 UV-I 0 W/m 7,0 C 4,8 C 14,5 km/h (3 Bft) 100,00 %
22.02.2017 02:08 7,4 C 97 % 1015,0 hPa 0,0 l/m 8,5 km/h (2 Bft) W-SW 249 0 min 0,000 mm 0,0 UV-I 0 W/m 7,0 C 5,8 C 12,9 km/h (3 Bft) 97,87 %
22.02.2017 02:10 7,4 C 97 % 1014,9 hPa 0,0 l/m 7,5 km/h (2 Bft) W-NW 290 0 min 0,000 mm 0,0 UV-I 0 W/m 7,0 C 6,5 C 12,9 km/h (3 Bft) 100,00 %
22.02.2017 02:12 7,4 C 97 % 1014,9 hPa 0,0 l/m 5,5 km/h (1 Bft) W-SW 247 0 min 0,000 mm 0,0 UV-I 0 W/m 7,0 C 7,4 C 11,3 km/h (2 Bft) 97,87 %
22.02.2017 02:14 7,4 C 97 % 1014,9 hPa 0,0 l/m 8,5 km/h (2 Bft) W-SW 257 0 min 0,000 mm 0,0 UV-I 0 W/m 7,0 C 5,8 C 12,9 km/h (3 Bft) 100,00 %
22.02.2017 02:16 7,4 C 97 % 1015,0 hPa 0,0 l/m 6,9 km/h (2 Bft) W-SW 248 0 min 0,000 mm 0,0 UV-I 0 W/m 7,0 C 7,0 C 11,3 km/h (2 Bft) 95,74 %
22.02.2017 02:18 7,4 C 97 % 1015,0 hPa 0,0 l/m 7,2 km/h (2 Bft) W-SW 252 0 min 0,000 mm 0,0 UV-I 0 W/m 7,0 C 6,8 C 11,3 km/h (2 Bft) 94,74 %
22.02.2017 02:20 7,4 C 97 % 1015,0 hPa 0,0 l/m 7,9 km/h (2 Bft) SW 232 0 min 0,000 mm 0,0 UV-I 0 W/m 7,0 C 6,2 C 14,5 km/h (3 Bft) 100,00 %
22.02.2017 02:22 7,4 C 97 % 1014,9 hPa 0,0 l/m 6,1 km/h (2 Bft) W-SW 239 0 min 0,000 mm 0,0 UV-I 0 W/m 7,0 C 7,4 C 8,0 km/h (2 Bft) 100,00 %
22.02.2017 02:24 7,4 C 97 % 1015,0 hPa 0,0 l/m 6,0 km/h (2 Bft) SW 223 0 min 0,000 mm 0,0 UV-I 0 W/m 7,0 C 7,4 C 9,7 km/h (2 Bft) 98,00 %
22.02.2017 02:26 7,4 C 97 % 1014,9 hPa 0,2 l/m 5,0 km/h (1 Bft) SW 219 0 min 0,000 mm 0,0 UV-I 0 W/m 7,0 C 7,4 C 8,0 km/h (2 Bft) 97,37 %
22.02.2017 02:28 7,3 C 97 % 1014,9 hPa 0,0 l/m 6,3 km/h (2 Bft) W 263 0 min 0,000 mm 0,0 UV-I 0 W/m 6,9 C 7,3 C 11,3 km/h (2 Bft) 98,21 %
22.02.2017 02:30 7,3 C 97 % 1014,8 hPa 0,0 l/m 5,2 km/h (1 Bft) W-NW 284 0 min 0,000 mm 0,0 UV-I 0 W/m 6,9 C 7,3 C 9,7 km/h (2 Bft) 100,00 %
22.02.2017 02:32 7,3 C 97 % 1014,8 hPa 0,0 l/m 5,6 km/h (1 Bft) W 263 0 min 0,000 mm 0,0 UV-I 0 W/m 6,9 C 7,3 C 9,7 km/h (2 Bft) 98,11 %
22.02.2017 02:34 7,3 C 97 % 1014,8 hPa 0,0 l/m 4,4 km/h (1 Bft) W 267 0 min 0,000 mm 0,0 UV-I 0 W/m 6,9 C 7,3 C 6,4 km/h (2 Bft) 100,00 %
22.02.2017 02:36 7,3 C 97 % 1014,8 hPa 0,0 l/m 6,8 km/h (2 Bft) W-NW 282 0 min 0,000 mm 0,0 UV-I 0 W/m 6,9 C 7,0 C 11,3 km/h (2 Bft) 98,08 %
22.02.2017 02:38 7,3 C 97 % 1014,7 hPa 0,0 l/m 6,1 km/h (2 Bft) W 265 0 min 0,000 mm 0,0 UV-I 0 W/m 6,9 C 7,3 C 9,7 km/h (2 Bft) 100,00 %
22.02.2017 02:40 7,3 C 97 % 1014,7 hPa 0,2 l/m 5,3 km/h (1 Bft) W 265 0 min 0,000 mm 0,0 UV-I 0 W/m 6,9 C 7,3 C 9,7 km/h (2 Bft) 100,00 %
22.02.2017 02:42 7,3 C 97 % 1014,7 hPa 0,0 l/m 5,6 km/h (1 Bft) W-SW 253 0 min 0,000 mm 0,0 UV-I 0 W/m 6,9 C 7,3 C 8,0 km/h (2 Bft) 100,00 %
22.02.2017 02:44 7,3 C 97 % 1014,7 hPa 0,0 l/m 4,7 km/h (1 Bft) W 274 0 min 0,000 mm 0,0 UV-I 0 W/m 6,9 C 7,3 C 9,7 km/h (2 Bft) 100,00 %
22.02.2017 02:46 7,3 C 97 % 1014,7 hPa 0,0 l/m 3,6 km/h (1 Bft) W 274 0 min 0,000 mm 0,0 UV-I 0 W/m 6,9 C 7,3 C 6,4 km/h (2 Bft) 98,28 %
22.02.2017 02:48 7,3 C 97 % 1014,7 hPa 0,2 l/m 3,9 km/h (1 Bft) W 267 0 min 0,000 mm 0,0 UV-I 0 W/m 6,9 C 7,3 C 4,8 km/h (1 Bft) 100,00 %
22.02.2017 02:50 7,3 C 97 % 1014,6 hPa 0,0 l/m 7,6 km/h (2 Bft) SW 232 0 min 0,000 mm 0,0 UV-I 0 W/m 6,9 C 6,3 C 12,9 km/h (3 Bft) 97,87 %
22.02.2017 02:52 7,3 C 97 % 1014,6 hPa 0,0 l/m 7,9 km/h (2 Bft) W 266 0 min 0,000 mm 0,0 UV-I 0 W/m 6,9 C 6,1 C 12,9 km/h (3 Bft) 100,00 %
22.02.2017 02:54 7,3 C 97 % 1014,6 hPa 0,0 l/m 6,4 km/h (2 Bft) W-SW 242 0 min 0,000 mm 0,0 UV-I 0 W/m 6,9 C 7,3 C 9,7 km/h (2 Bft) 100,00 %
22.02.2017 02:56 7,3 C 97 % 1014,6 hPa 0,2 l/m 6,7 km/h (2 Bft) W-SW 250 0 min 0,000 mm 0,0 UV-I 0 W/m 6,9 C 7,1 C 12,9 km/h (3 Bft) 98,00 %
22.02.2017 02:58 7,3 C 97 % 1014,6 hPa 0,0 l/m 6,5 km/h (2 Bft) W-SW 258 0 min 0,000 mm 0,0 UV-I 0 W/m 6,9 C 7,2 C 11,3 km/h (2 Bft) 100,00 %
22.02.2017 03:00 7,3 C 97 % 1014,5 hPa 0,2 l/m 5,8 km/h (2 Bft) W-SW 242 0 min 0,000 mm 0,0 UV-I 0 W/m 6,9 C 7,3 C 9,7 km/h (2 Bft) 100,00 %
22.02.2017 03:02 7,3 C 97 % 1014,6 hPa 0,0 l/m 6,1 km/h (2 Bft) SW 226 0 min 0,000 mm 0,0 UV-I 0 W/m 6,9 C 7,3 C 8,0 km/h (2 Bft) 100,00 %
22.02.2017 03:04 7,3 C 97 % 1014,6 hPa 0,0 l/m 4,5 km/h (1 Bft) SW 226 0 min 0,000 mm 0,0 UV-I 0 W/m 6,9 C 7,3 C 8,0 km/h (2 Bft) 95,74 %
22.02.2017 03:06 7,3 C 98 % 1014,5 hPa 0,2 l/m 5,4 km/h (1 Bft) SW 230 0 min 0,000 mm 0,0 UV-I 0 W/m 7,0 C 7,3 C 8,0 km/h (2 Bft) 98,00 %
22.02.2017 03:08 7,3 C 98 % 1014,4 hPa 0,0 l/m 4,1 km/h (1 Bft) SW 223 0 min 0,000 mm 0,0 UV-I 0 W/m 7,0 C 7,3 C 8,0 km/h (2 Bft) 100,00 %
22.02.2017 03:10 7,3 C 97 % 1014,5 hPa 0,0 l/m 4,3 km/h (1 Bft) SW 221 0 min 0,000 mm 0,0 UV-I 0 W/m 6,9 C 7,3 C 6,4 km/h (2 Bft) 100,00 %
22.02.2017 03:12 7,3 C 97 % 1014,5 hPa 0,2 l/m 5,7 km/h (1 Bft) SW 219 0 min 0,000 mm 0,0 UV-I 0 W/m 6,9 C 7,3 C 9,7 km/h (2 Bft) 100,00 %
22.02.2017 03:14 7,4 C 98 % 1014,5 hPa 0,0 l/m 6,4 km/h (2 Bft) W-SW 239 0 min 0,000 mm 0,0 UV-I 0 W/m 7,1 C 7,4 C 11,3 km/h (2 Bft) 100,00 %
22.02.2017 03:16 7,4 C 98 % 1014,5 hPa 0,0 l/m 6,0 km/h (2 Bft) W-SW 248 0 min 0,000 mm 0,0 UV-I 0 W/m 7,1 C 7,4 C 8,0 km/h (2 Bft) 100,00 %
22.02.2017 03:18 7,4 C 98 % 1014,4 hPa 0,2 l/m 6,8 km/h (2 Bft) W-SW 238 0 min 0,000 mm 0,0 UV-I 0 W/m 7,1 C 7,1 C 9,7 km/h (2 Bft) 100,00 %
22.02.2017 03:20 7,4 C 98 % 1014,4 hPa 0,0 l/m 6,8 km/h (2 Bft) W-SW 248 0 min 0,000 mm 0,0 UV-I 0 W/m 7,1 C 7,1 C 9,7 km/h (2 Bft) 97,92 %
22.02.2017 03:22 7,5 C 98 % 1014,4 hPa 0,0 l/m 7,1 km/h (2 Bft) W-SW 249 0 min 0,000 mm 0,0 UV-I 0 W/m 7,2 C 6,9 C 12,9 km/h (3 Bft) 100,00 %
22.02.2017 03:24 7,6 C 98 % 1014,4 hPa 0,0 l/m 6,5 km/h (2 Bft) W-SW 254 0 min 0,000 mm 0,0 UV-I 0 W/m 7,3 C 7,5 C 9,7 km/h (2 Bft) 97,92 %
22.02.2017 03:26 7,6 C 98 % 1014,3 hPa 0,0 l/m 5,8 km/h (2 Bft) W-SW 252 0 min 0,000 mm 0,0 UV-I 0 W/m 7,3 C 7,6 C 9,7 km/h (2 Bft) 100,00 %
22.02.2017 03:28 7,6 C 98 % 1014,3 hPa 0,0 l/m 7,1 km/h (2 Bft) W-SW 242 0 min 0,000 mm 0,0 UV-I 0 W/m 7,3 C 7,0 C 11,3 km/h (2 Bft) 100,00 %
22.02.2017 03:30 7,7 C 98 % 1014,3 hPa 0,0 l/m 7,4 km/h (2 Bft) SW 222 0 min 0,000 mm 0,0 UV-I 0 W/m 7,4 C 6,9 C 12,9 km/h (3 Bft) 100,00 %
22.02.2017 03:32 7,7 C 98 % 1014,3 hPa 0,0 l/m 5,9 km/h (2 Bft) W 276 0 min 0,000 mm 0,0 UV-I 0 W/m 7,4 C 7,7 C 11,3 km/h (2 Bft) 100,00 %
22.02.2017 03:34 7,7 C 98 % 1014,3 hPa 0,2 l/m 7,2 km/h (2 Bft) SW 234 0 min 0,000 mm 0,0 UV-I 0 W/m 7,4 C 7,1 C 12,9 km/h (3 Bft) 98,04 %
22.02.2017 03:36 7,8 C 98 % 1014,3 hPa 0,0 l/m 6,4 km/h (2 Bft) W-SW 242 0 min 0,000 mm 0,0 UV-I 0 W/m 7,5 C 7,8 C 9,7 km/h (2 Bft) 97,37 %
22.02.2017 03:38 7,8 C 98 % 1014,3 hPa 0,0 l/m 6,5 km/h (2 Bft) W 262 0 min 0,000 mm 0,0 UV-I 0 W/m 7,5 C 7,7 C 9,7 km/h (2 Bft) 98,21 %
22.02.2017 03:40 7,8 C 98 % 1014,3 hPa 0,0 l/m 6,7 km/h (2 Bft) W 263 0 min 0,000 mm 0,0 UV-I 0 W/m 7,5 C 7,6 C 11,3 km/h (2 Bft) 97,87 %
22.02.2017 03:42 7,8 C 98 % 1014,3 hPa 0,0 l/m 5,4 km/h (1 Bft) W-SW 248 0 min 0,000 mm 0,0 UV-I 0 W/m 7,5 C 7,8 C 11,3 km/h (2 Bft) 95,74 %
22.02.2017 03:44 7,8 C 98 % 1014,2 hPa 0,0 l/m 4,9 km/h (1 Bft) W-SW 248 0 min 0,000 mm 0,0 UV-I 0 W/m 7,5 C 7,8 C 8,0 km/h (2 Bft) 97,37 %
22.02.2017 03:46 7,8 C 98 % 1014,2 hPa 0,0 l/m 5,5 km/h (1 Bft) W-SW 257 0 min 0,000 mm 0,0 UV-I 0 W/m 7,5 C 7,8 C 11,3 km/h (2 Bft) 98,25 %
22.02.2017 03:48 7,8 C 98 % 1014,2 hPa 0,0 l/m 5,3 km/h (1 Bft) W-SW 254 0 min 0,000 mm 0,0 UV-I 0 W/m 7,5 C 7,8 C 9,7 km/h (2 Bft) 96,30 %
22.02.2017 03:50 7,8 C 98 % 1014,1 hPa 0,0 l/m 5,4 km/h (1 Bft) SW 225 0 min 0,000 mm 0,0 UV-I 0 W/m 7,5 C 7,8 C 9,7 km/h (2 Bft) 95,31 %
22.02.2017 03:52 7,8 C 98 % 1014,1 hPa 0,0 l/m 5,3 km/h (1 Bft) SW 236 0 min 0,000 mm 0,0 UV-I 0 W/m 7,5 C 7,8 C 6,4 km/h (2 Bft) 98,11 %
22.02.2017 03:54 7,8 C 98 % 1014,0 hPa 0,0 l/m 6,3 km/h (2 Bft) SW 225 0 min 0,000 mm 0,0 UV-I 0 W/m 7,5 C 7,8 C 9,7 km/h (2 Bft) 95,74 %
22.02.2017 03:56 7,8 C 98 % 1014,0 hPa 0,0 l/m 8,3 km/h (2 Bft) SW 228 0 min 0,000 mm 0,0 UV-I 0 W/m 7,5 C 6,3 C 14,5 km/h (3 Bft) 97,87 %
22.02.2017 03:58 7,9 C 98 % 1014,0 hPa 0,0 l/m 9,0 km/h (2 Bft) SW 236 0 min 0,000 mm 0,0 UV-I 0 W/m 7,6 C 5,9 C 12,9 km/h (3 Bft) 93,62 %
22.02.2017 04:00 7,9 C 98 % 1014,0 hPa 0,0 l/m 9,5 km/h (2 Bft) W-SW 250 0 min 0,000 mm 0,0 UV-I 0 W/m 7,6 C 5,6 C 16,1 km/h (3 Bft) 97,44 %
22.02.2017 04:02 7,9 C 98 % 1014,0 hPa 0,0 l/m 8,9 km/h (2 Bft) SW 229 0 min 0,000 mm 0,0 UV-I 0 W/m 7,6 C 6,0 C 12,9 km/h (3 Bft) 100,00 %
22.02.2017 04:04 7,9 C 98 % 1014,0 hPa 0,0 l/m 9,7 km/h (2 Bft) SW 236 0 min 0,000 mm 0,0 UV-I 0 W/m 7,6 C 5,5 C 16,1 km/h (3 Bft) 97,87 %
22.02.2017 04:06 7,9 C 98 % 1014,0 hPa 0,0 l/m 10,5 km/h (2 Bft) W-SW 243 0 min 0,000 mm 0,0 UV-I 0 W/m 7,6 C 5,0 C 14,5 km/h (3 Bft) 95,74 %
22.02.2017 04:08 8,0 C 98 % 1014,0 hPa 0,0 l/m 12,1 km/h (2 Bft) W-SW 258 0 min 0,000 mm 0,0 UV-I 0 W/m 7,7 C 4,2 C 16,1 km/h (3 Bft) 100,00 %
22.02.2017 04:10 8,1 C 98 % 1013,9 hPa 0,0 l/m 10,2 km/h (2 Bft) SW 227 0 min 0,000 mm 0,0 UV-I 0 W/m 7,8 C 5,4 C 16,1 km/h (3 Bft) 100,00 %
22.02.2017 04:12 8,1 C 98 % 1013,9 hPa 0,0 l/m 12,3 km/h (3 Bft) W-SW 252 0 min 0,000 mm 0,0 UV-I 0 W/m 7,8 C 4,2 C 20,9 km/h (4 Bft) 100,00 %
22.02.2017 04:14 8,1 C 98 % 1014,0 hPa 0,0 l/m 15,9 km/h (3 Bft) SW 223 0 min 0,000 mm 0,0 UV-I 0 W/m 7,8 C 2,4 C 20,9 km/h (4 Bft) 98,21 %
22.02.2017 04:16 8,2 C 98 % 1013,9 hPa 0,0 l/m 15,9 km/h (3 Bft) W-SW 240 0 min 0,000 mm 0,0 UV-I 0 W/m 7,9 C 2,6 C 20,9 km/h (4 Bft) 94,29 %
22.02.2017 04:18 8,2 C 98 % 1014,0 hPa 0,0 l/m 13,7 km/h (3 Bft) SW 229 0 min 0,000 mm 0,0 UV-I 0 W/m 7,9 C 3,6 C 19,3 km/h (3 Bft) 100,00 %
22.02.2017 04:20 8,2 C 98 % 1013,9 hPa 0,0 l/m 16,5 km/h (3 Bft) SW 233 0 min 0,000 mm 0,0 UV-I 0 W/m 7,9 C 2,3 C 22,5 km/h (4 Bft) 100,00 %
22.02.2017 04:22 8,2 C 98 % 1013,9 hPa 0,0 l/m 12,1 km/h (2 Bft) W-SW 242 0 min 0,000 mm 0,0 UV-I 0 W/m 7,9 C 4,4 C 16,1 km/h (3 Bft) 98,00 %
22.02.2017 04:24 8,3 C 98 % 1013,9 hPa 0,0 l/m 11,0 km/h (2 Bft) W-SW 253 0 min 0,000 mm 0,0 UV-I 0 W/m 8,0 C 5,1 C 17,7 km/h (3 Bft) 100,00 %
22.02.2017 04:26 8,3 C 98 % 1013,8 hPa 0,0 l/m 16,9 km/h (3 Bft) SW 229 0 min 0,000 mm 0,0 UV-I 0 W/m 8,0 C 2,3 C 24,1 km/h (4 Bft) 98,11 %
22.02.2017 04:28 8,3 C 97 % 1013,8 hPa 0,0 l/m 14,4 km/h (3 Bft) W-SW 257 0 min 0,000 mm 0,0 UV-I 0 W/m 7,9 C 3,4 C 22,5 km/h (4 Bft) 95,74 %
22.02.2017 04:30 8,3 C 97 % 1013,8 hPa 0,0 l/m 15,6 km/h (3 Bft) W-SW 244 0 min 0,000 mm 0,0 UV-I 0 W/m 7,9 C 2,8 C 22,5 km/h (4 Bft) 100,00 %
22.02.2017 04:32 8,3 C 97 % 1013,8 hPa 0,0 l/m 14,7 km/h (3 Bft) S-SW 209 0 min 0,000 mm 0,0 UV-I 0 W/m 7,9 C 3,2 C 24,1 km/h (4 Bft) 100,00 %
22.02.2017 04:34 8,4 C 97 % 1013,7 hPa 0,0 l/m 15,6 km/h (3 Bft) W 261 0 min 0,000 mm 0,0 UV-I 0 W/m 8,0 C 2,9 C 24,1 km/h (4 Bft) 100,00 %
22.02.2017 04:36 8,4 C 97 % 1013,7 hPa 0,0 l/m 13,3 km/h (3 Bft) W-SW 249 0 min 0,000 mm 0,0 UV-I 0 W/m 8,0 C 4,0 C 24,1 km/h (4 Bft) 100,00 %
22.02.2017 04:38 8,4 C 97 % 1013,7 hPa 0,0 l/m 16,9 km/h (3 Bft) W-SW 238 0 min 0,000 mm 0,0 UV-I 0 W/m 8,0 C 2,4 C 25,7 km/h (4 Bft) 100,00 %
22.02.2017 04:40 8,4 C 97 % 1013,7 hPa 0,0 l/m 14,8 km/h (3 Bft) SW 230 0 min 0,000 mm 0,0 UV-I 0 W/m 8,0 C 3,3 C 22,5 km/h (4 Bft) 100,00 %
22.02.2017 04:42 8,4 C 97 % 1013,6 hPa 0,0 l/m 14,3 km/h (3 Bft) W-SW 244 0 min 0,000 mm 0,0 UV-I 0 W/m 8,0 C 3,5 C 20,9 km/h (4 Bft) 100,00 %
22.02.2017 04:44 8,4 C 97 % 1013,7 hPa 0,0 l/m 15,7 km/h (3 Bft) W-SW 243 0 min 0,000 mm 0,0 UV-I 0 W/m 8,0 C 2,9 C 22,5 km/h (4 Bft) 97,87 %
22.02.2017 04:46 8,5 C 96 % 1013,7 hPa 0,0 l/m 15,1 km/h (3 Bft) SW 214 0 min 0,000 mm 0,0 UV-I 0 W/m 7,9 C 3,3 C 24,1 km/h (4 Bft) 100,00 %
22.02.2017 04:48 8,5 C 96 % 1013,7 hPa 0,0 l/m 16,6 km/h (3 Bft) W-SW 244 0 min 0,000 mm 0,0 UV-I 0 W/m 7,9 C 2,6 C 25,7 km/h (4 Bft) 98,53 %
22.02.2017 04:50 8,5 C 96 % 1013,7 hPa 0,0 l/m 15,3 km/h (3 Bft) SW 235 0 min 0,000 mm 0,0 UV-I 0 W/m 7,9 C 3,2 C 20,9 km/h (4 Bft) 100,00 %
22.02.2017 04:52 8,6 C 96 % 1013,6 hPa 0,0 l/m 14,6 km/h (3 Bft) SW 216 0 min 0,000 mm 0,0 UV-I 0 W/m 8,0 C 3,6 C 20,9 km/h (4 Bft) 100,00 %
22.02.2017 04:54 8,6 C 96 % 1013,6 hPa 0,0 l/m 12,6 km/h (3 Bft) W-SW 240 0 min 0,000 mm 0,0 UV-I 0 W/m 8,0 C 4,6 C 20,9 km/h (4 Bft) 100,00 %
22.02.2017 04:56 8,5 C 96 % 1013,6 hPa 0,0 l/m 12,9 km/h (3 Bft) S-SW 212 0 min 0,000 mm 0,0 UV-I 0 W/m 7,9 C 4,3 C 20,9 km/h (4 Bft) 100,00 %
22.02.2017 04:58 8,6 C 96 % 1013,6 hPa 0,0 l/m 10,6 km/h (2 Bft) W-SW 247 0 min 0,000 mm 0,0 UV-I 0 W/m 8,0 C 5,7 C 16,1 km/h (3 Bft) 100,00 %
22.02.2017 05:00 8,6 C 96 % 1013,5 hPa 0,0 l/m 14,1 km/h (3 Bft) SW 227 0 min 0,000 mm 0,0 UV-I 0 W/m 8,0 C 3,8 C 20,9 km/h (4 Bft) 98,00 %
22.02.2017 05:02 8,6 C 96 % 1013,5 hPa 0,0 l/m 12,4 km/h (3 Bft) SW 227 0 min 0,000 mm 0,0 UV-I 0 W/m 8,0 C 4,7 C 20,9 km/h (4 Bft) 95,74 %
22.02.2017 05:04 8,6 C 95 % 1013,5 hPa 0,0 l/m 17,0 km/h (3 Bft) W-SW 242 0 min 0,000 mm 0,0 UV-I 0 W/m 7,8 C 2,6 C 24,1 km/h (4 Bft) 100,00 %
22.02.2017 05:06 8,6 C 95 % 1013,4 hPa 0,0 l/m 12,8 km/h (3 Bft) W-SW 241 0 min 0,000 mm 0,0 UV-I 0 W/m 7,8 C 4,5 C 20,9 km/h (4 Bft) 100,00 %
22.02.2017 05:08 8,6 C 95 % 1013,5 hPa 0,0 l/m 16,3 km/h (3 Bft) W-SW 238 0 min 0,000 mm 0,0 UV-I 0 W/m 7,8 C 2,9 C 25,7 km/h (4 Bft) 100,00 %
22.02.2017 05:10 8,6 C 95 % 1013,4 hPa 0,0 l/m 15,1 km/h (3 Bft) S-SW 212 0 min 0,000 mm 0,0 UV-I 0 W/m 7,8 C 3,4 C 22,5 km/h (4 Bft) 100,00 %
22.02.2017 05:12 8,6 C 95 % 1013,4 hPa 0,0 l/m 17,6 km/h (3 Bft) SW 225 0 min 0,000 mm 0,0 UV-I 0 W/m 7,8 C 2,4 C 22,5 km/h (4 Bft) 100,00 %
22.02.2017 05:14 8,6 C 95 % 1013,4 hPa 0,0 l/m 15,5 km/h (3 Bft) SW 229 0 min 0,000 mm 0,0 UV-I 0 W/m 7,8 C 3,2 C 24,1 km/h (4 Bft) 100,00 %
22.02.2017 05:16 8,5 C 95 % 1013,4 hPa 0,0 l/m 15,5 km/h (3 Bft) W-SW 245 0 min 0,000 mm 0,0 UV-I 0 W/m 7,7 C 3,1 C 27,4 km/h (4 Bft) 100,00 %
22.02.2017 05:18 8,6 C 95 % 1013,4 hPa 0,0 l/m 18,1 km/h (3 Bft) SW 221 0 min 0,000 mm 0,0 UV-I 0 W/m 7,8 C 2,2 C 27,4 km/h (4 Bft) 97,87 %
22.02.2017 05:20 8,5 C 95 % 1013,4 hPa 0,0 l/m 14,8 km/h (3 Bft) SW 236 0 min 0,000 mm 0,0 UV-I 0 W/m 7,7 C 3,4 C 19,3 km/h (3 Bft) 100,00 %
22.02.2017 05:22 8,5 C 95 % 1013,4 hPa 0,0 l/m 12,9 km/h (3 Bft) W-SW 256 0 min 0,000 mm 0,0 UV-I 0 W/m 7,7 C 4,3 C 19,3 km/h (3 Bft) 97,87 %
22.02.2017 05:24 8,5 C 95 % 1013,3 hPa 0,0 l/m 12,9 km/h (3 Bft) SW 232 0 min 0,000 mm 0,0 UV-I 0 W/m 7,7 C 4,3 C 22,5 km/h (4 Bft) 100,00 %
22.02.2017 05:26 8,5 C 95 % 1013,3 hPa 0,0 l/m 16,2 km/h (3 Bft) W-SW 238 0 min 0,000 mm 0,0 UV-I 0 W/m 7,7 C 2,8 C 22,5 km/h (4 Bft) 100,00 %
22.02.2017 05:28 8,5 C 95 % 1013,3 hPa 0,0 l/m 16,5 km/h (3 Bft) W-SW 240 0 min 0,000 mm 0,0 UV-I 0 W/m 7,7 C 2,7 C 22,5 km/h (4 Bft) 100,00 %
22.02.2017 05:30 8,5 C 95 % 1013,2 hPa 0,0 l/m 14,2 km/h (3 Bft) W-SW 245 0 min 0,000 mm 0,0 UV-I 0 W/m 7,7 C 3,7 C 24,1 km/h (4 Bft) 100,00 %
22.02.2017 05:32 8,6 C 95 % 1013,2 hPa 0,0 l/m 16,1 km/h (3 Bft) SW 228 0 min 0,000 mm 0,0 UV-I 0 W/m 7,8 C 3,0 C 25,7 km/h (4 Bft) 100,00 %
22.02.2017 05:34 8,6 C 94 % 1013,2 hPa 0,0 l/m 14,6 km/h (3 Bft) SW 214 0 min 0,000 mm 0,0 UV-I 0 W/m 7,7 C 3,6 C 22,5 km/h (4 Bft) 100,00 %
22.02.2017 05:36 8,6 C 95 % 1013,2 hPa 0,0 l/m 14,5 km/h (3 Bft) SW 229 0 min 0,000 mm 0,0 UV-I 0 W/m 7,8 C 3,7 C 22,5 km/h (4 Bft) 93,62 %
22.02.2017 05:38 8,6 C 94 % 1013,1 hPa 0,0 l/m 16,4 km/h (3 Bft) SW 226 0 min 0,000 mm 0,0 UV-I 0 W/m 7,7 C 2,8 C 24,1 km/h (4 Bft) 97,87 %
22.02.2017 05:40 8,6 C 94 % 1013,1 hPa 0,0 l/m 16,4 km/h (3 Bft) W-SW 237 0 min 0,000 mm 0,0 UV-I 0 W/m 7,7 C 2,8 C 24,1 km/h (4 Bft) 100,00 %
22.02.2017 05:42 8,6 C 94 % 1013,1 hPa 0,0 l/m 16,4 km/h (3 Bft) SW 232 0 min 0,000 mm 0,0 UV-I 0 W/m 7,7 C 2,8 C 22,5 km/h (4 Bft) 97,87 %
22.02.2017 05:44 8,6 C 94 % 1013,0 hPa 0,0 l/m 13,5 km/h (3 Bft) W-SW 248 0 min 0,000 mm 0,0 UV-I 0 W/m 7,7 C 4,1 C 27,4 km/h (4 Bft) 95,74 %
22.02.2017 05:46 8,5 C 94 % 1013,0 hPa 0,0 l/m 15,7 km/h (3 Bft) S 187 0 min 0,000 mm 0,0 UV-I 0 W/m 7,6 C 3,0 C 24,1 km/h (4 Bft) 95,74 %
22.02.2017 05:48 8,5 C 94 % 1013,0 hPa 0,0 l/m 14,7 km/h (3 Bft) SW 218 0 min 0,000 mm 0,0 UV-I 0 W/m 7,6 C 3,5 C 19,3 km/h (3 Bft) 93,62 %
22.02.2017 05:50 8,6 C 94 % 1013,0 hPa 0,0 l/m 16,0 km/h (3 Bft) S-SW 194 0 min 0,000 mm 0,0 UV-I 0 W/m 7,7 C 3,0 C 27,4 km/h (4 Bft) 93,62 %
22.02.2017 05:52 8,6 C 94 % 1013,0 hPa 0,0 l/m 16,0 km/h (3 Bft) W-SW 242 0 min 0,000 mm 0,0 UV-I 0 W/m 7,7 C 3,0 C 22,5 km/h (4 Bft) 93,62 %
22.02.2017 05:54 8,6 C 94 % 1012,9 hPa 0,0 l/m 16,6 km/h (3 Bft) SW 236 0 min 0,000 mm 0,0 UV-I 0 W/m 7,7 C 2,8 C 22,5 km/h (4 Bft) 97,56 %
22.02.2017 05:56 8,6 C 94 % 1012,8 hPa 0,0 l/m 15,9 km/h (3 Bft) SW 232 0 min 0,000 mm 0,0 UV-I 0 W/m 7,7 C 3,0 C 27,4 km/h (4 Bft) 95,56 %
22.02.2017 05:58 8,7 C 94 % 1012,8 hPa 0,0 l/m 19,6 km/h (3 Bft) W-SW 248 0 min 0,000 mm 0,0 UV-I 0 W/m 7,8 C 1,7 C 27,4 km/h (4 Bft) 96,15 %
22.02.2017 06:00 8,7 C 93 % 1012,8 hPa 0,0 l/m 19,4 km/h (3 Bft) W-SW 240 0 min 0,000 mm 0,0 UV-I 0 W/m 7,6 C 1,8 C 27,4 km/h (4 Bft) 97,62 %
22.02.2017 06:02 8,7 C 93 % 1012,8 hPa 0,0 l/m 18,4 km/h (3 Bft) S-SW 205 0 min 0,000 mm 0,0 UV-I 0 W/m 7,6 C 2,2 C 27,4 km/h (4 Bft) 97,56 %
22.02.2017 06:04 8,7 C 93 % 1012,7 hPa 0,0 l/m 18,8 km/h (3 Bft) W-SW 244 0 min 0,000 mm 0,0 UV-I 0 W/m 7,6 C 2,0 C 30,6 km/h (5 Bft) 98,21 %
22.02.2017 06:06 8,8 C 93 % 1012,7 hPa 0,0 l/m 19,2 km/h (3 Bft) SW 232 0 min 0,000 mm 0,0 UV-I 0 W/m 7,7 C 2,0 C 25,7 km/h (4 Bft) 96,00 %
22.02.2017 06:08 8,8 C 93 % 1012,8 hPa 0,0 l/m 17,9 km/h (3 Bft) SW 233 0 min 0,000 mm 0,0 UV-I 0 W/m 7,7 C 2,5 C 27,4 km/h (4 Bft) 93,62 %
22.02.2017 06:10 8,8 C 93 % 1012,8 hPa 0,0 l/m 18,3 km/h (3 Bft) SW 223 0 min 0,000 mm 0,0 UV-I 0 W/m 7,7 C 2,3 C 25,7 km/h (4 Bft) 97,14 %
22.02.2017 06:12 8,8 C 93 % 1012,8 hPa 0,0 l/m 17,7 km/h (3 Bft) SW 228 0 min 0,000 mm 0,0 UV-I 0 W/m 7,7 C 2,6 C 29,0 km/h (5 Bft) 96,43 %
22.02.2017 06:14 8,8 C 92 % 1012,7 hPa 0,0 l/m 17,1 km/h (3 Bft) SW 223 0 min 0,000 mm 0,0 UV-I 0 W/m 7,6 C 2,8 C 24,1 km/h (4 Bft) 92,68 %
22.02.2017 06:16 8,8 C 92 % 1012,7 hPa 0,0 l/m 18,1 km/h (3 Bft) S-SW 205 0 min 0,000 mm 0,0 UV-I 0 W/m 7,6 C 2,4 C 27,4 km/h (4 Bft) 98,21 %
22.02.2017 06:18 8,8 C 93 % 1012,7 hPa 0,0 l/m 18,4 km/h (3 Bft) SW 227 0 min 0,000 mm 0,0 UV-I 0 W/m 7,7 C 2,3 C 30,6 km/h (5 Bft) 98,00 %
22.02.2017 06:20 8,8 C 93 % 1012,7 hPa 0,0 l/m 15,1 km/h (3 Bft) W-SW 240 0 min 0,000 mm 0,0 UV-I 0 W/m 7,7 C 3,6 C 22,5 km/h (4 Bft) 100,00 %
22.02.2017 06:22 8,8 C 92 % 1012,7 hPa 0,0 l/m 15,2 km/h (3 Bft) SW 222 0 min 0,000 mm 0,0 UV-I 0 W/m 7,6 C 3,6 C 22,5 km/h (4 Bft) 100,00 %
22.02.2017 06:24 8,8 C 92 % 1012,7 hPa 0,0 l/m 14,4 km/h (3 Bft) W-SW 242 0 min 0,000 mm 0,0 UV-I 0 W/m 7,6 C 4,0 C 22,5 km/h (4 Bft) 100,00 %
22.02.2017 06:26 8,8 C 92 % 1012,6 hPa 0,0 l/m 15,5 km/h (3 Bft) W-SW 252 0 min 0,000 mm 0,0 UV-I 0 W/m 7,6 C 3,5 C 22,5 km/h (4 Bft) 100,00 %
22.02.2017 06:28 8,7 C 92 % 1012,7 hPa 0,0 l/m 15,1 km/h (3 Bft) W-SW 240 0 min 0,000 mm 0,0 UV-I 0 W/m 7,5 C 3,5 C 24,1 km/h (4 Bft) 100,00 %
22.02.2017 06:30 8,7 C 92 % 1012,7 hPa 0,0 l/m 15,1 km/h (3 Bft) SW 220 0 min 0,000 mm 0,0 UV-I 0 W/m 7,5 C 3,5 C 22,5 km/h (4 Bft) 97,56 %
22.02.2017 06:32 8,7 C 92 % 1012,6 hPa 0,0 l/m 14,6 km/h (3 Bft) S 182 0 min 0,000 mm 0,0 UV-I 0 W/m 7,5 C 3,7 C 20,9 km/h (4 Bft) 97,56 %
22.02.2017 06:34 8,7 C 92 % 1012,5 hPa 0,0 l/m 13,8 km/h (3 Bft) SW 230 0 min 0,000 mm 0,0 UV-I 0 W/m 7,5 C 4,1 C 19,3 km/h (3 Bft) 100,00 %
22.02.2017 06:36 8,7 C 92 % 1012,5 hPa 0,0 l/m 15,1 km/h (3 Bft) W-SW 246 0 min 0,000 mm 0,0 UV-I 0 W/m 7,5 C 3,5 C 27,4 km/h (4 Bft) 100,00 %
22.02.2017 06:38 8,7 C 92 % 1012,6 hPa 0,0 l/m 14,9 km/h (3 Bft) SW 227 0 min 0,000 mm 0,0 UV-I 0 W/m 7,5 C 3,6 C 19,3 km/h (3 Bft) 100,00 %
22.02.2017 06:40 8,7 C 92 % 1012,5 hPa 0,0 l/m 15,7 km/h (3 Bft) W-SW 239 0 min 0,000 mm 0,0 UV-I 0 W/m 7,5 C 3,3 C 24,1 km/h (4 Bft) 98,00 %
22.02.2017 06:42 8,7 C 92 % 1012,5 hPa 0,0 l/m 13,2 km/h (3 Bft) SW 232 0 min 0,000 mm 0,0 UV-I 0 W/m 7,5 C 4,4 C 20,9 km/h (4 Bft) 97,44 %
22.02.2017 06:44 8,7 C 92 % 1012,5 hPa 0,0 l/m 14,7 km/h (3 Bft) W-SW 255 0 min 0,000 mm 0,0 UV-I 0 W/m 7,5 C 3,7 C 22,5 km/h (4 Bft) 100,00 %
22.02.2017 06:46 8,7 C 92 % 1012,5 hPa 0,0 l/m 16,3 km/h (3 Bft) SW 224 0 min 0,000 mm 0,0 UV-I 0 W/m 7,5 C 3,0 C 24,1 km/h (4 Bft) 100,00 %
22.02.2017 06:48 8,7 C 92 % 1012,5 hPa 0,0 l/m 15,6 km/h (3 Bft) W-SW 240 0 min 0,000 mm 0,0 UV-I 0 W/m 7,5 C 3,3 C 22,5 km/h (4 Bft) 100,00 %
22.02.2017 06:50 8,7 C 92 % 1012,6 hPa 0,0 l/m 16,0 km/h (3 Bft) S-SW 205 0 min 0,000 mm 0,0 UV-I 2 W/m 7,5 C 3,1 C 25,7 km/h (4 Bft) 98,46 %
22.02.2017 06:52 8,7 C 92 % 1012,5 hPa 0,0 l/m 16,9 km/h (3 Bft) SW 230 0 min 0,000 mm 0,0 UV-I 5 W/m 7,5 C 2,8 C 24,1 km/h (4 Bft) 100,00 %
22.02.2017 06:54 8,7 C 92 % 1012,5 hPa 0,0 l/m 14,7 km/h (3 Bft) W-SW 250 0 min 0,000 mm 0,0 UV-I 5 W/m 7,5 C 3,7 C 22,5 km/h (4 Bft) 98,00 %
22.02.2017 06:56 8,7 C 92 % 1012,5 hPa 0,0 l/m 17,1 km/h (3 Bft) W-SW 240 0 min 0,000 mm 0,0 UV-I 5 W/m 7,5 C 2,7 C 25,7 km/h (4 Bft) 98,11 %
22.02.2017 06:58 8,7 C 92 % 1012,5 hPa 0,0 l/m 18,3 km/h (3 Bft) W-SW 241 0 min 0,000 mm 0,0 UV-I 5 W/m 7,5 C 2,2 C 25,7 km/h (4 Bft) 100,00 %
22.02.2017 07:00 8,7 C 92 % 1012,5 hPa 0,0 l/m 15,3 km/h (3 Bft) W-SW 254 0 min 0,000 mm 0,0 UV-I 5 W/m 7,5 C 3,4 C 22,5 km/h (4 Bft) 97,87 %
22.02.2017 07:02 8,7 C 92 % 1012,5 hPa 0,0 l/m 15,6 km/h (3 Bft) SW 223 0 min 0,025 mm 0,0 UV-I 5 W/m 7,5 C 3,3 C 25,7 km/h (4 Bft) 97,87 %
22.02.2017 07:04 8,7 C 92 % 1012,5 hPa 0,0 l/m 17,2 km/h (3 Bft) W-SW 258 0 min 0,000 mm 0,0 UV-I 5 W/m 7,5 C 2,6 C 24,1 km/h (4 Bft) 100,00 %
22.02.2017 07:06 8,7 C 92 % 1012,5 hPa 0,0 l/m 14,6 km/h (3 Bft) SW 225 0 min 0,000 mm 0,0 UV-I 5 W/m 7,5 C 3,7 C 22,5 km/h (4 Bft) 93,62 %
22.02.2017 07:08 8,7 C 92 % 1012,5 hPa 0,0 l/m 17,1 km/h (3 Bft) SW 236 0 min 0,000 mm 0,0 UV-I 6 W/m 7,5 C 2,7 C 25,7 km/h (4 Bft) 97,87 %
22.02.2017 07:10 8,8 C 92 % 1012,5 hPa 0,0 l/m 16,3 km/h (3 Bft) SW 228 0 min 0,000 mm 0,0 UV-I 7 W/m 7,6 C 3,1 C 30,6 km/h (5 Bft) 93,62 %
22.02.2017 07:12 8,8 C 91 % 1012,5 hPa 0,0 l/m 19,7 km/h (3 Bft) SW 234 0 min 0,000 mm 0,0 UV-I 8 W/m 7,4 C 1,8 C 27,4 km/h (4 Bft) 97,87 %
22.02.2017 07:14 8,8 C 91 % 1012,5 hPa 0,0 l/m 19,3 km/h (3 Bft) W-SW 242 0 min 0,000 mm 0,0 UV-I 9 W/m 7,4 C 2,0 C 25,7 km/h (4 Bft) 100,00 %
22.02.2017 07:16 8,8 C 91 % 1012,5 hPa 0,0 l/m 18,9 km/h (3 Bft) SW 229 0 min 0,000 mm 0,0 UV-I 11 W/m 7,4 C 2,1 C 25,7 km/h (4 Bft) 97,87 %
22.02.2017 07:18 8,9 C 91 % 1012,6 hPa 0,0 l/m 17,3 km/h (3 Bft) W-SW 244 0 min 0,000 mm 0,0 UV-I 11 W/m 7,5 C 2,8 C 25,7 km/h (4 Bft) 95,74 %
22.02.2017 07:20 8,9 C 91 % 1012,7 hPa 0,0 l/m 21,4 km/h (4 Bft) SW 225 0 min 0,000 mm 0,0 UV-I 11 W/m 7,5 C 1,4 C 27,4 km/h (4 Bft) 97,87 %
22.02.2017 07:22 8,9 C 91 % 1012,6 hPa 0,0 l/m 18,4 km/h (3 Bft) W-SW 252 0 min 0,000 mm 0,0 UV-I 10 W/m 7,5 C 2,4 C 27,4 km/h (4 Bft) 94,87 %
22.02.2017 07:24 8,9 C 91 % 1012,6 hPa 0,0 l/m 19,7 km/h (3 Bft) SW 226 0 min 0,000 mm 0,0 UV-I 10 W/m 7,5 C 2,0 C 30,6 km/h (5 Bft) 94,34 %
22.02.2017 07:26 8,9 C 90 % 1012,6 hPa 0,0 l/m 20,1 km/h (4 Bft) SW 225 0 min 0,000 mm 0,0 UV-I 11 W/m 7,4 C 1,8 C 27,4 km/h (4 Bft) 100,00 %
22.02.2017 07:28 8,9 C 90 % 1012,6 hPa 0,0 l/m 17,1 km/h (3 Bft) W 265 0 min 0,000 mm 0,0 UV-I 11 W/m 7,4 C 2,9 C 27,4 km/h (4 Bft) 97,56 %
22.02.2017 07:30 9,0 C 90 % 1012,7 hPa 0,0 l/m 17,8 km/h (3 Bft) W-SW 244 0 min 0,000 mm 0,0 UV-I 12 W/m 7,4 C 2,8 C 24,1 km/h (4 Bft) 100,00 %
22.02.2017 07:32 9,0 C 90 % 1012,7 hPa 0,0 l/m 16,6 km/h (3 Bft) W-SW 252 0 min 0,000 mm 0,0 UV-I 12 W/m 7,4 C 3,3 C 25,7 km/h (4 Bft) 94,34 %
22.02.2017 07:34 9,0 C 90 % 1012,7 hPa 0,0 l/m 18,7 km/h (3 Bft) W-SW 254 0 min 0,000 mm 0,0 UV-I 11 W/m 7,4 C 2,5 C 29,0 km/h (5 Bft) 100,00 %
22.02.2017 07:36 9,0 C 90 % 1012,8 hPa 0,0 l/m 16,5 km/h (3 Bft) SW 225 0 min 0,000 mm 0,0 UV-I 11 W/m 7,4 C 3,3 C 20,9 km/h (4 Bft) 97,56 %
22.02.2017 07:38 9,0 C 90 % 1012,8 hPa 0,0 l/m 14,3 km/h (3 Bft) SW 225 0 min 0,000 mm 0,0 UV-I 12 W/m 7,4 C 4,2 C 22,5 km/h (4 Bft) 98,11 %
22.02.2017 07:40 8,9 C 90 % 1012,9 hPa 0,0 l/m 15,0 km/h (3 Bft) SW 225 0 min 0,000 mm 0,0 UV-I 14 W/m 7,4 C 3,8 C 20,9 km/h (4 Bft) 97,22 %
22.02.2017 07:42 8,9 C 91 % 1012,8 hPa 0,0 l/m 14,7 km/h (3 Bft) SW 226 0 min 0,000 mm 0,0 UV-I 16 W/m 7,5 C 3,9 C 22,5 km/h (4 Bft) 96,08 %
22.02.2017 07:44 8,9 C 91 % 1012,8 hPa 0,0 l/m 14,6 km/h (3 Bft) SW 227 0 min 0,000 mm 0,0 UV-I 18 W/m 7,5 C 4,0 C 20,9 km/h (4 Bft) 100,00 %
22.02.2017 07:46 8,9 C 91 % 1012,8 hPa 0,0 l/m 12,2 km/h (2 Bft) W-SW 250 0 min 0,000 mm 0,0 UV-I 20 W/m 7,5 C 5,1 C 19,3 km/h (3 Bft) 97,37 %
22.02.2017 07:48 8,8 C 91 % 1012,8 hPa 0,0 l/m 11,5 km/h (2 Bft) S 190 0 min 0,000 mm 0,0 UV-I 24 W/m 7,4 C 5,4 C 19,3 km/h (3 Bft) 98,21 %
22.02.2017 07:50 8,8 C 91 % 1012,7 hPa 0,0 l/m 12,3 km/h (3 Bft) W-SW 238 0 min 0,000 mm 0,0 UV-I 27 W/m 7,4 C 5,0 C 16,1 km/h (3 Bft) 100,00 %
22.02.2017 07:52 8,7 C 92 % 1012,7 hPa 0,0 l/m 9,2 km/h (2 Bft) SW 228 0 min 0,000 mm 0,0 UV-I 29 W/m 7,5 C 6,7 C 17,7 km/h (3 Bft) 95,74 %
22.02.2017 07:54 8,7 C 92 % 1012,7 hPa 0,0 l/m 11,0 km/h (2 Bft) W-SW 250 0 min 0,000 mm 0,0 UV-I 32 W/m 7,5 C 5,6 C 17,7 km/h (3 Bft) 95,74 %
22.02.2017 07:56 8,7 C 92 % 1012,6 hPa 0,0 l/m 12,4 km/h (3 Bft) S-SW 207 0 min 0,000 mm 0,0 UV-I 32 W/m 7,5 C 4,8 C 17,7 km/h (3 Bft) 97,22 %
22.02.2017 07:58 8,7 C 92 % 1012,6 hPa 0,0 l/m 10,1 km/h (2 Bft) W-SW 239 0 min 0,000 mm 0,0 UV-I 33 W/m 7,5 C 6,1 C 16,1 km/h (3 Bft) 98,18 %
22.02.2017 08:00 8,7 C 92 % 1012,6 hPa 0,2 l/m 13,2 km/h (3 Bft) SW 225 0 min 0,026 mm 0,0 UV-I 36 W/m 7,5 C 4,4 C 20,9 km/h (4 Bft) 92,86 %
22.02.2017 08:02 8,7 C 92 % 1012,6 hPa 0,0 l/m 14,2 km/h (3 Bft) S-SW 207 0 min 0,000 mm 0,0 UV-I 37 W/m 7,5 C 3,9 C 19,3 km/h (3 Bft) 96,43 %
22.02.2017 08:04 8,7 C 92 % 1012,6 hPa 0,0 l/m 12,6 km/h (3 Bft) S-SW 198 0 min 0,000 mm 0,0 UV-I 39 W/m 7,5 C 4,7 C 16,1 km/h (3 Bft) 91,49 %
22.02.2017 08:06 8,7 C 92 % 1012,6 hPa 0,0 l/m 11,2 km/h (2 Bft) W-SW 254 0 min 0,000 mm 0,0 UV-I 40 W/m 7,5 C 5,5 C 16,1 km/h (3 Bft) 94,29 %
22.02.2017 08:08 8,8 C 92 % 1012,6 hPa 0,0 l/m 12,4 km/h (3 Bft) SW 229 0 min 0,000 mm 0,0 UV-I 40 W/m 7,6 C 4,9 C 17,7 km/h (3 Bft) 93,62 %
22.02.2017 08:10 8,8 C 92 % 1012,7 hPa 0,0 l/m 12,9 km/h (3 Bft) SW 235 0 min 0,000 mm 0,0 UV-I 43 W/m 7,6 C 4,7 C 25,7 km/h (4 Bft) 90,00 %
22.02.2017 08:12 8,8 C 92 % 1012,6 hPa 0,0 l/m 13,2 km/h (3 Bft) SW 222 0 min 0,000 mm 0,0 UV-I 46 W/m 7,6 C 4,5 C 19,3 km/h (3 Bft) 95,74 %
22.02.2017 08:14 8,8 C 92 % 1012,6 hPa 0,0 l/m 16,1 km/h (3 Bft) S 186 0 min 0,000 mm 0,0 UV-I 43 W/m 7,6 C 3,2 C 22,5 km/h (4 Bft) 93,62 %
22.02.2017 08:16 8,8 C 91 % 1012,7 hPa 0,0 l/m 13,3 km/h (3 Bft) SW 221 0 min 0,000 mm 0,0 UV-I 39 W/m 7,4 C 4,5 C 22,5 km/h (4 Bft) 98,00 %
22.02.2017 08:18 8,9 C 91 % 1012,7 hPa 0,0 l/m 16,7 km/h (3 Bft) SW 225 0 min 0,000 mm 0,0 UV-I 35 W/m 7,5 C 3,1 C 25,7 km/h (4 Bft) 95,12 %
22.02.2017 08:20 8,9 C 91 % 1012,7 hPa 0,0 l/m 14,3 km/h (3 Bft) W-SW 242 0 min 0,000 mm 0,0 UV-I 38 W/m 7,5 C 4,1 C 22,5 km/h (4 Bft) 93,62 %
22.02.2017 08:22 8,9 C 91 % 1012,7 hPa 0,0 l/m 15,7 km/h (3 Bft) W-SW 243 0 min 0,000 mm 0,0 UV-I 44 W/m 7,5 C 3,5 C 24,1 km/h (4 Bft) 96,23 %
22.02.2017 08:24 8,9 C 91 % 1012,7 hPa 0,0 l/m 17,1 km/h (3 Bft) S-SW 213 0 min 0,000 mm 0,0 UV-I 53 W/m 7,5 C 2,9 C 29,0 km/h (5 Bft) 97,37 %
22.02.2017 08:26 9,0 C 91 % 1012,8 hPa 0,0 l/m 16,5 km/h (3 Bft) SW 223 0 min 0,000 mm 0,0 UV-I 61 W/m 7,6 C 3,3 C 24,1 km/h (4 Bft) 92,86 %
22.02.2017 08:28 9,1 C 91 % 1012,7 hPa 0,0 l/m 14,3 km/h (3 Bft) S-SW 206 0 min 0,000 mm 0,0 UV-I 68 W/m 7,7 C 4,4 C 24,1 km/h (4 Bft) 90,00 %
22.02.2017 08:30 9,1 C 90 % 1012,7 hPa 0,0 l/m 17,0 km/h (3 Bft) SW 229 0 min 0,000 mm 0,0 UV-I 75 W/m 7,5 C 3,2 C 25,7 km/h (4 Bft) 98,00 %
22.02.2017 08:32 9,1 C 90 % 1012,7 hPa 0,0 l/m 16,9 km/h (3 Bft) SW 227 0 min 0,000 mm 0,0 UV-I 80 W/m 7,5 C 3,3 C 24,1 km/h (4 Bft) 100,00 %
22.02.2017 08:34 9,2 C 90 % 1012,7 hPa 0,0 l/m 17,3 km/h (3 Bft) SW 227 0 min 0,000 mm 0,0 UV-I 86 W/m 7,6 C 3,2 C 27,4 km/h (4 Bft) 93,62 %
22.02.2017 08:36 9,2 C 90 % 1012,7 hPa 0,0 l/m 19,8 km/h (3 Bft) W-SW 248 0 min 0,000 mm 0,0 UV-I 94 W/m 7,6 C 2,3 C 29,0 km/h (5 Bft) 97,87 %
22.02.2017 08:38 9,3 C 90 % 1012,7 hPa 0,0 l/m 19,8 km/h (3 Bft) SW 231 0 min 0,000 mm 0,0 UV-I 97 W/m 7,7 C 2,5 C 29,0 km/h (5 Bft) 97,62 %
22.02.2017 08:40 9,3 C 89 % 1012,8 hPa 0,0 l/m 18,2 km/h (3 Bft) SW 232 0 min 0,000 mm 0,0 UV-I 92 W/m 7,6 C 3,0 C 24,1 km/h (4 Bft) 98,11 %
22.02.2017 08:42 9,4 C 89 % 1012,7 hPa 0,0 l/m 19,7 km/h (3 Bft) SW 231 0 min 0,000 mm 0,0 UV-I 85 W/m 7,7 C 2,6 C 27,4 km/h (4 Bft) 97,87 %
22.02.2017 08:44 9,4 C 89 % 1012,7 hPa 0,0 l/m 17,7 km/h (3 Bft) SW 217 0 min 0,000 mm 0,0 UV-I 73 W/m 7,7 C 3,3 C 27,4 km/h (4 Bft) 100,00 %
22.02.2017 08:46 9,5 C 88 % 1012,7 hPa 0,0 l/m 21,5 km/h (4 Bft) SW 231 0 min 0,000 mm 0,0 UV-I 65 W/m 7,6 C 2,2 C 33,8 km/h (5 Bft) 98,11 %
22.02.2017 08:48 9,6 C 88 % 1012,8 hPa 0,0 l/m 21,8 km/h (4 Bft) W-SW 242 0 min 0,000 mm 0,0 UV-I 61 W/m 7,7 C 2,2 C 29,0 km/h (5 Bft) 100,00 %
22.02.2017 08:50 9,6 C 88 % 1012,7 hPa 0,0 l/m 18,6 km/h (3 Bft) W 259 0 min 0,000 mm 0,0 UV-I 55 W/m 7,7 C 3,2 C 25,7 km/h (4 Bft) 98,21 %
22.02.2017 08:52 9,6 C 88 % 1012,7 hPa 0,0 l/m 17,5 km/h (3 Bft) S-SW 205 0 min 0,000 mm 0,0 UV-I 56 W/m 7,7 C 3,6 C 27,4 km/h (4 Bft) 86,84 %
22.02.2017 08:54 9,6 C 88 % 1012,7 hPa 0,0 l/m 21,7 km/h (4 Bft) SW 229 0 min 0,000 mm 0,0 UV-I 62 W/m 7,7 C 2,2 C 32,2 km/h (5 Bft) 100,00 %
22.02.2017 08:56 9,6 C 87 % 1012,6 hPa 0,0 l/m 18,3 km/h (3 Bft) SW 225 0 min 0,000 mm 0,0 UV-I 62 W/m 7,5 C 3,4 C 29,0 km/h (5 Bft) 100,00 %
22.02.2017 08:58 9,6 C 87 % 1012,7 hPa 0,0 l/m 20,6 km/h (4 Bft) SW 225 0 min 0,000 mm 0,0 UV-I 63 W/m 7,5 C 2,6 C 29,0 km/h (5 Bft) 100,00 %
22.02.2017 09:00 9,7 C 87 % 1012,7 hPa 0,0 l/m 18,9 km/h (3 Bft) SW 231 0 min 0,051 mm 0,0 UV-I 66 W/m 7,6 C 3,3 C 29,0 km/h (5 Bft) 95,74 %
22.02.2017 09:02 9,7 C 87 % 1012,7 hPa 0,0 l/m 14,3 km/h (3 Bft) W-SW 247 0 min 0,000 mm 0,0 UV-I 62 W/m 7,6 C 5,1 C 20,9 km/h (4 Bft) 100,00 %
22.02.2017 09:04 9,7 C 87 % 1012,7 hPa 0,0 l/m 15,8 km/h (3 Bft) W 264 0 min 0,000 mm 0,0 UV-I 58 W/m 7,6 C 4,4 C 29,0 km/h (5 Bft) 97,87 %
22.02.2017 09:06 9,7 C 87 % 1012,7 hPa 0,0 l/m 19,5 km/h (3 Bft) W 260 0 min 0,000 mm 0,0 UV-I 55 W/m 7,6 C 3,1 C 29,0 km/h (5 Bft) 93,62 %
22.02.2017 09:08 9,7 C 87 % 1012,7 hPa 0,0 l/m 17,4 km/h (3 Bft) W-SW 242 0 min 0,000 mm 0,0 UV-I 53 W/m 7,6 C 3,8 C 25,7 km/h (4 Bft) 97,87 %
22.02.2017 09:10 9,7 C 86 % 1012,7 hPa 0,0 l/m 15,5 km/h (3 Bft) SW 218 0 min 0,000 mm 0,0 UV-I 53 W/m 7,5 C 4,6 C 22,5 km/h (4 Bft) 100,00 %
22.02.2017 09:12 9,7 C 86 % 1012,7 hPa 0,0 l/m 16,5 km/h (3 Bft) W 260 0 min 0,000 mm 0,0 UV-I 54 W/m 7,5 C 4,2 C 24,1 km/h (4 Bft) 95,74 %
22.02.2017 09:14 9,7 C 86 % 1012,8 hPa 0,0 l/m 17,1 km/h (3 Bft) SW 231 0 min 0,000 mm 0,0 UV-I 54 W/m 7,5 C 3,9 C 25,7 km/h (4 Bft) 97,87 %
22.02.2017 09:16 9,8 C 86 % 1012,7 hPa 0,0 l/m 16,4 km/h (3 Bft) SW 232 0 min 0,000 mm 0,0 UV-I 57 W/m 7,6 C 4,3 C 25,7 km/h (4 Bft) 93,75 %
22.02.2017 09:18 9,8 C 86 % 1012,7 hPa 0,0 l/m 16,2 km/h (3 Bft) W 271 0 min 0,000 mm 0,0 UV-I 58 W/m 7,6 C 4,4 C 22,5 km/h (4 Bft) 93,62 %
22.02.2017 09:20 9,8 C 86 % 1012,7 hPa 0,0 l/m 16,8 km/h (3 Bft) W-SW 248 0 min 0,000 mm 0,0 UV-I 56 W/m 7,6 C 4,2 C 27,4 km/h (4 Bft) 97,87 %
22.02.2017 09:22 9,8 C 86 % 1012,8 hPa 0,0 l/m 19,0 km/h (3 Bft) W-SW 243 0 min 0,000 mm 0,0 UV-I 58 W/m 7,6 C 3,4 C 27,4 km/h (4 Bft) 93,62 %
22.02.2017 09:24 9,9 C 86 % 1012,7 hPa 0,0 l/m 18,9 km/h (3 Bft) W-SW 254 0 min 0,000 mm 0,0 UV-I 60 W/m 7,7 C 3,5 C 32,2 km/h (5 Bft) 95,74 %
22.02.2017 09:26 9,9 C 85 % 1012,8 hPa 0,0 l/m 18,6 km/h (3 Bft) W-SW 238 0 min 0,000 mm 0,0 UV-I 62 W/m 7,5 C 3,6 C 25,7 km/h (4 Bft) 100,00 %
22.02.2017 09:28 9,9 C 85 % 1012,8 hPa 0,0 l/m 18,5 km/h (3 Bft) SW 226 0 min 0,000 mm 0,0 UV-I 67 W/m 7,5 C 3,7 C 30,6 km/h (5 Bft) 94,00 %
22.02.2017 09:30 10,0 C 85 % 1012,8 hPa 0,0 l/m 21,5 km/h (4 Bft) SW 231 0 min 0,000 mm 0,0 UV-I 80 W/m 7,6 C 2,8 C 35,4 km/h (5 Bft) 100,00 %
22.02.2017 09:32 10,1 C 85 % 1012,7 hPa 0,0 l/m 19,3 km/h (3 Bft) SW 222 0 min 0,000 mm 0,0 UV-I 90 W/m 7,7 C 3,6 C 27,4 km/h (4 Bft) 100,00 %
22.02.2017 09:34 10,1 C 85 % 1012,7 hPa 0,0 l/m 22,2 km/h (4 Bft) SW 229 0 min 0,000 mm 0,0 UV-I 100 W/m 7,7 C 2,7 C 32,2 km/h (5 Bft) 96,23 %
22.02.2017 09:36 10,1 C 85 % 1012,6 hPa 0,0 l/m 17,3 km/h (3 Bft) SW 232 0 min 0,000 mm 0,0 UV-I 91 W/m 7,7 C 4,4 C 25,7 km/h (4 Bft) 98,00 %
22.02.2017 09:38 10,1 C 85 % 1012,6 hPa 0,0 l/m 19,2 km/h (3 Bft) SW 229 0 min 0,000 mm 0,0 UV-I 77 W/m 7,7 C 3,7 C 32,2 km/h (5 Bft) 100,00 %
22.02.2017 09:40 10,1 C 85 % 1012,7 hPa 0,0 l/m 20,9 km/h (4 Bft) SW 236 0 min 0,000 mm 0,0 UV-I 74 W/m 7,7 C 3,1 C 32,2 km/h (5 Bft) 94,34 %
22.02.2017 09:42 10,1 C 85 % 1012,7 hPa 0,0 l/m 25,2 km/h (4 Bft) W 263 0 min 0,000 mm 0,0 UV-I 74 W/m 7,7 C 1,9 C 35,4 km/h (5 Bft) 94,74 %
22.02.2017 09:44 10,1 C 85 % 1012,7 hPa 0,0 l/m 17,5 km/h (3 Bft) W-SW 242 0 min 0,000 mm 0,0 UV-I 86 W/m 7,7 C 4,3 C 25,7 km/h (4 Bft) 96,00 %
22.02.2017 09:46 10,1 C 85 % 1012,7 hPa 0,0 l/m 18,7 km/h (3 Bft) W-SW 252 0 min 0,000 mm 0,0 UV-I 105 W/m 7,7 C 3,9 C 32,2 km/h (5 Bft) 100,00 %
22.02.2017 09:48 10,1 C 85 % 1012,7 hPa 0,0 l/m 19,1 km/h (3 Bft) W-SW 242 0 min 0,000 mm 0,0 UV-I 116 W/m 7,7 C 3,7 C 27,4 km/h (4 Bft) 97,87 %
22.02.2017 09:50 10,2 C 85 % 1012,7 hPa 0,0 l/m 22,4 km/h (4 Bft) SW 225 0 min 0,000 mm 0,0 UV-I 119 W/m 7,8 C 2,8 C 29,0 km/h (5 Bft) 94,44 %
22.02.2017 09:52 10,2 C 85 % 1012,6 hPa 0,0 l/m 22,8 km/h (4 Bft) W-SW 238 0 min 0,000 mm 0,0 UV-I 126 W/m 7,8 C 2,7 C 33,8 km/h (5 Bft) 100,00 %
22.02.2017 09:54 10,2 C 85 % 1012,6 hPa 0,0 l/m 22,7 km/h (4 Bft) SW 223 0 min 0,000 mm 0,0 UV-I 140 W/m 7,8 C 2,7 C 30,6 km/h (5 Bft) 92,45 %
22.02.2017 09:56 10,3 C 84 % 1012,6 hPa 0,0 l/m 19,9 km/h (4 Bft) SW 234 0 min 0,000 mm 0,3 UV-I 148 W/m 7,7 C 3,7 C 30,6 km/h (5 Bft) 96,00 %
22.02.2017 09:58 10,3 C 84 % 1012,6 hPa 0,0 l/m 19,7 km/h (3 Bft) SW 236 0 min 0,000 mm 0,5 UV-I 155 W/m 7,7 C 3,8 C 29,0 km/h (5 Bft) 100,00 %
22.02.2017 10:00 10,4 C 84 % 1012,5 hPa 0,0 l/m 19,8 km/h (3 Bft) SW 236 0 min 0,000 mm 0,5 UV-I 165 W/m 7,8 C 3,9 C 33,8 km/h (5 Bft) 97,87 %
22.02.2017 10:02 10,4 C 84 % 1012,6 hPa 0,0 l/m 18,4 km/h (3 Bft) W-SW 242 0 min 0,076 mm 0,5 UV-I 166 W/m 7,8 C 4,3 C 29,0 km/h (5 Bft) 93,75 %
22.02.2017 10:04 10,4 C 84 % 1012,6 hPa 0,0 l/m 19,0 km/h (3 Bft) W 280 0 min 0,000 mm 0,5 UV-I 158 W/m 7,8 C 4,1 C 29,0 km/h (5 Bft) 95,74 %
22.02.2017 10:06 10,5 C 84 % 1012,5 hPa 0,0 l/m 14,7 km/h (3 Bft) W 260 0 min 0,000 mm 0,5 UV-I 144 W/m 7,9 C 5,9 C 29,0 km/h (5 Bft) 98,00 %
22.02.2017 10:08 10,5 C 84 % 1012,5 hPa 0,0 l/m 17,0 km/h (3 Bft) S-SW 213 0 min 0,000 mm 0,5 UV-I 153 W/m 7,9 C 5,0 C 30,6 km/h (5 Bft) 95,12 %
22.02.2017 10:10 10,6 C 84 % 1012,5 hPa 0,0 l/m 13,7 km/h (3 Bft) W-SW 253 0 min 0,000 mm 0,5 UV-I 170 W/m 8,0 C 6,4 C 24,1 km/h (4 Bft) 89,36 %
22.02.2017 10:12 10,6 C 84 % 1012,5 hPa 0,0 l/m 14,5 km/h (3 Bft) W 264 0 min 0,000 mm 0,5 UV-I 166 W/m 8,0 C 6,1 C 19,3 km/h (3 Bft) 96,23 %
22.02.2017 10:14 10,6 C 83 % 1012,4 hPa 0,0 l/m 13,7 km/h (3 Bft) W-SW 238 0 min 0,000 mm 0,5 UV-I 151 W/m 7,8 C 6,4 C 20,9 km/h (4 Bft) 96,00 %
22.02.2017 10:16 10,7 C 83 % 1012,5 hPa 0,0 l/m 15,9 km/h (3 Bft) W-SW 248 0 min 0,000 mm 0,5 UV-I 148 W/m 7,9 C 5,6 C 30,6 km/h (5 Bft) 92,68 %
22.02.2017 10:18 10,7 C 83 % 1012,5 hPa 0,0 l/m 17,2 km/h (3 Bft) SW 225 0 min 0,000 mm 0,5 UV-I 167 W/m 7,9 C 5,1 C 25,7 km/h (4 Bft) 96,00 %
22.02.2017 10:20 10,8 C 83 % 1012,5 hPa 0,0 l/m 16,3 km/h (3 Bft) W-SW 242 0 min 0,000 mm 0,5 UV-I 174 W/m 8,0 C 5,6 C 24,1 km/h (4 Bft) 87,80 %
22.02.2017 10:22 10,8 C 82 % 1012,4 hPa 0,0 l/m 15,1 km/h (3 Bft) SW 223 0 min 0,000 mm 0,5 UV-I 171 W/m 7,9 C 6,1 C 24,1 km/h (4 Bft) 89,36 %
22.02.2017 10:24 10,8 C 82 % 1012,4 hPa 0,0 l/m 17,6 km/h (3 Bft) SW 219 0 min 0,000 mm 0,6 UV-I 165 W/m 7,9 C 5,1 C 27,4 km/h (4 Bft) 95,74 %
22.02.2017 10:26 10,8 C 82 % 1012,4 hPa 0,0 l/m 13,4 km/h (3 Bft) SW 230 0 min 0,000 mm 0,6 UV-I 170 W/m 7,9 C 6,8 C 22,5 km/h (4 Bft) 95,74 %
22.02.2017 10:28 10,8 C 82 % 1012,4 hPa 0,0 l/m 14,1 km/h (3 Bft) W-SW 257 0 min 0,000 mm 0,6 UV-I 171 W/m 7,9 C 6,5 C 19,3 km/h (3 Bft) 95,74 %
22.02.2017 10:30 10,9 C 82 % 1012,4 hPa 0,0 l/m 15,2 km/h (3 Bft) W-SW 238 0 min 0,000 mm 0,5 UV-I 179 W/m 7,9 C 6,1 C 24,1 km/h (4 Bft) 89,36 %
22.02.2017 10:32 10,9 C 82 % 1012,3 hPa 0,0 l/m 17,4 km/h (3 Bft) SW 224 0 min 0,000 mm 0,6 UV-I 189 W/m 7,9 C 5,3 C 24,1 km/h (4 Bft) 93,62 %
22.02.2017 10:34 10,9 C 82 % 1012,3 hPa 0,0 l/m 14,6 km/h (3 Bft) W-SW 247 0 min 0,000 mm 0,6 UV-I 167 W/m 7,9 C 6,4 C 22,5 km/h (4 Bft) 98,00 %
22.02.2017 10:36 11,0 C 82 % 1012,3 hPa 0,0 l/m 14,9 km/h (3 Bft) W-SW 250 0 min 0,000 mm 0,6 UV-I 152 W/m 8,0 C 6,4 C 22,5 km/h (4 Bft) 95,83 %
22.02.2017 10:38 11,0 C 82 % 1012,3 hPa 0,0 l/m 15,0 km/h (3 Bft) W-SW 257 0 min 0,000 mm 0,6 UV-I 144 W/m 8,0 C 6,3 C 22,5 km/h (4 Bft) 89,36 %
22.02.2017 10:40 11,0 C 82 % 1012,3 hPa 0,0 l/m 14,9 km/h (3 Bft) SW 227 0 min 0,000 mm 0,6 UV-I 161 W/m 8,0 C 6,4 C 20,9 km/h (4 Bft) 97,56 %
22.02.2017 10:42 11,0 C 82 % 1012,3 hPa 0,0 l/m 19,1 km/h (3 Bft) W-SW 251 0 min 0,000 mm 0,6 UV-I 174 W/m 8,0 C 4,9 C 25,7 km/h (4 Bft) 96,23 %
22.02.2017 10:44 11,1 C 82 % 1012,2 hPa 0,0 l/m 18,0 km/h (3 Bft) SW 223 0 min 0,000 mm 0,5 UV-I 147 W/m 8,1 C 5,4 C 25,7 km/h (4 Bft) 97,87 %
22.02.2017 10:46 11,1 C 82 % 1012,2 hPa 0,0 l/m 16,9 km/h (3 Bft) SW 236 0 min 0,000 mm 0,5 UV-I 148 W/m 8,1 C 5,7 C 24,1 km/h (4 Bft) 97,37 %
22.02.2017 10:48 11,1 C 82 % 1012,1 hPa 0,0 l/m 15,0 km/h (3 Bft) SW 228 0 min 0,000 mm 0,6 UV-I 177 W/m 8,1 C 6,5 C 22,5 km/h (4 Bft) 100,00 %
22.02.2017 10:50 11,1 C 82 % 1012,1 hPa 0,0 l/m 18,0 km/h (3 Bft) W-SW 240 0 min 0,000 mm 0,7 UV-I 202 W/m 8,1 C 5,4 C 30,6 km/h (5 Bft) 93,33 %
22.02.2017 10:52 11,2 C 82 % 1012,1 hPa 0,0 l/m 16,9 km/h (3 Bft) W 259 0 min 0,000 mm 0,7 UV-I 223 W/m 8,2 C 5,9 C 24,1 km/h (4 Bft) 94,34 %
22.02.2017 10:54 11,2 C 82 % 1012,1 hPa 0,0 l/m 20,0 km/h (4 Bft) W-SW 238 0 min 0,000 mm 0,8 UV-I 229 W/m 8,2 C 4,8 C 27,4 km/h (4 Bft) 96,23 %
22.02.2017 10:56 11,3 C 82 % 1012,1 hPa 0,0 l/m 17,6 km/h (3 Bft) SW 226 0 min 0,000 mm 0,7 UV-I 219 W/m 8,3 C 5,7 C 27,4 km/h (4 Bft) 98,00 %
22.02.2017 10:58 11,3 C 82 % 1012,0 hPa 0,0 l/m 16,8 km/h (3 Bft) W-SW 257 0 min 0,000 mm 0,8 UV-I 227 W/m 8,3 C 6,0 C 25,7 km/h (4 Bft) 100,00 %
22.02.2017 11:00 11,4 C 82 % 1012,0 hPa 0,0 l/m 14,6 km/h (3 Bft) W-SW 258 0 min 0,101 mm 0,8 UV-I 238 W/m 8,4 C 7,0 C 22,5 km/h (4 Bft) 97,87 %
22.02.2017 11:02 11,5 C 81 % 1012,0 hPa 0,0 l/m 21,2 km/h (4 Bft) SW 225 2 min 0,000 mm 0,9 UV-I 286 W/m 8,4 C 4,9 C 35,4 km/h (5 Bft) 91,49 %
22.02.2017 11:04 11,6 C 81 % 1012,0 hPa 0,0 l/m 17,4 km/h (3 Bft) W-SW 256 2 min 0,000 mm 1,0 UV-I 323 W/m 8,5 C 6,2 C 24,1 km/h (4 Bft) 97,87 %
22.02.2017 11:06 11,7 C 80 % 1012,0 hPa 0,0 l/m 13,6 km/h (3 Bft) SW 234 2 min 0,000 mm 0,9 UV-I 300 W/m 8,4 C 7,8 C 20,9 km/h (4 Bft) 100,00 %
22.02.2017 11:08 11,8 C 80 % 1012,0 hPa 0,0 l/m 13,8 km/h (3 Bft) SW 231 2 min 0,000 mm 0,9 UV-I 288 W/m 8,5 C 7,8 C 22,5 km/h (4 Bft) 100,00 %
22.02.2017 11:10 11,8 C 79 % 1012,0 hPa 0,0 l/m 18,9 km/h (3 Bft) W-SW 250 2 min 0,000 mm 1,0 UV-I 371 W/m 8,3 C 6,0 C 30,6 km/h (5 Bft) 100,00 %
22.02.2017 11:12 11,8 C 80 % 1012,0 hPa 0,0 l/m 16,7 km/h (3 Bft) W-SW 248 0 min 0,000 mm 0,8 UV-I 230 W/m 8,5 C 6,7 C 24,1 km/h (4 Bft) 100,00 %
22.02.2017 11:14 11,8 C 79 % 1011,9 hPa 0,0 l/m 15,9 km/h (3 Bft) S-SW 204 0 min 0,000 mm 0,8 UV-I 218 W/m 8,3 C 7,0 C 22,5 km/h (4 Bft) 97,62 %
22.02.2017 11:16 11,8 C 80 % 1011,9 hPa 0,0 l/m 15,6 km/h (3 Bft) SW 221 0 min 0,000 mm 0,8 UV-I 222 W/m 8,5 C 7,1 C 33,8 km/h (5 Bft) 100,00 %
22.02.2017 11:18 11,8 C 79 % 1011,9 hPa 0,0 l/m 15,8 km/h (3 Bft) W-SW 250 0 min 0,000 mm 0,8 UV-I 216 W/m 8,3 C 7,0 C 25,7 km/h (4 Bft) 97,44 %
22.02.2017 11:20 11,8 C 79 % 1011,8 hPa 0,0 l/m 20,4 km/h (4 Bft) SW 217 0 min 0,000 mm 0,9 UV-I 248 W/m 8,3 C 5,5 C 32,2 km/h (5 Bft) 98,11 %
22.02.2017 11:22 11,8 C 79 % 1011,7 hPa 0,0 l/m 21,1 km/h (4 Bft) W 262 2 min 0,000 mm 1,0 UV-I 310 W/m 8,3 C 5,3 C 29,0 km/h (5 Bft) 100,00 %
22.02.2017 11:24 11,9 C 78 % 1011,7 hPa 0,0 l/m 21,9 km/h (4 Bft) W-SW 244 2 min 0,000 mm 1,1 UV-I 297 W/m 8,2 C 5,2 C 30,6 km/h (5 Bft) 97,78 %
22.02.2017 11:26 11,9 C 78 % 1011,7 hPa 0,0 l/m 18,9 km/h (3 Bft) SW 234 2 min 0,000 mm 1,1 UV-I 334 W/m 8,2 C 6,1 C 32,2 km/h (5 Bft) 100,00 %
22.02.2017 11:28 12,1 C 79 % 1011,8 hPa 0,0 l/m 14,9 km/h (3 Bft) W-SW 237 2 min 0,000 mm 1,1 UV-I 302 W/m 8,6 C 7,7 C 29,0 km/h (5 Bft) 97,87 %
22.02.2017 11:30 12,1 C 78 % 1011,7 hPa 0,0 l/m 16,7 km/h (3 Bft) W 261 2 min 0,000 mm 1,0 UV-I 298 W/m 8,4 C 7,1 C 25,7 km/h (4 Bft) 100,00 %
22.02.2017 11:32 12,2 C 78 % 1011,6 hPa 0,0 l/m 16,4 km/h (3 Bft) W-SW 251 2 min 0,000 mm 1,0 UV-I 291 W/m 8,5 C 7,3 C 22,5 km/h (4 Bft) 95,74 %
22.02.2017 11:34 12,2 C 78 % 1011,6 hPa 0,0 l/m 19,0 km/h (3 Bft) W-SW 246 0 min 0,000 mm 0,9 UV-I 265 W/m 8,5 C 6,4 C 30,6 km/h (5 Bft) 97,96 %
22.02.2017 11:36 12,2 C 77 % 1011,6 hPa 0,0 l/m 18,7 km/h (3 Bft) SW 225 0 min 0,000 mm 1,0 UV-I 255 W/m 8,3 C 6,5 C 27,4 km/h (4 Bft) 95,74 %
22.02.2017 11:38 12,2 C 77 % 1011,6 hPa 0,0 l/m 15,7 km/h (3 Bft) SW 236 0 min 0,000 mm 0,9 UV-I 237 W/m 8,3 C 7,5 C 24,1 km/h (4 Bft) 98,11 %
22.02.2017 11:40 12,2 C 78 % 1011,6 hPa 0,0 l/m 17,6 km/h (3 Bft) W 275 0 min 0,000 mm 0,9 UV-I 242 W/m 8,5 C 6,9 C 27,4 km/h (4 Bft) 100,00 %
22.02.2017 11:42 12,2 C 78 % 1011,6 hPa 0,0 l/m 16,0 km/h (3 Bft) W-SW 244 0 min 0,000 mm 1,1 UV-I 278 W/m 8,5 C 7,4 C 25,7 km/h (4 Bft) 100,00 %
22.02.2017 11:44 12,2 C 77 % 1011,5 hPa 0,0 l/m 21,7 km/h (4 Bft) W-SW 256 0 min 0,000 mm 1,1 UV-I 273 W/m 8,3 C 5,6 C 30,6 km/h (5 Bft) 100,00 %
22.02.2017 11:46 12,3 C 76 % 1011,4 hPa 0,0 l/m 19,3 km/h (3 Bft) SW 217 0 min 0,000 mm 1,1 UV-I 262 W/m 8,2 C 6,5 C 32,2 km/h (5 Bft) 100,00 %
22.02.2017 11:48 12,3 C 76 % 1011,3 hPa 0,0 l/m 24,5 km/h (4 Bft) W-SW 253 2 min 0,000 mm 1,3 UV-I 319 W/m 8,2 C 5,1 C 35,4 km/h (5 Bft) 100,00 %
22.02.2017 11:50 12,4 C 76 % 1011,4 hPa 0,0 l/m 19,5 km/h (3 Bft) W 261 2 min 0,000 mm 1,2 UV-I 437 W/m 8,3 C 6,5 C 32,2 km/h (5 Bft) 95,24 %
22.02.2017 11:52 12,4 C 76 % 1011,4 hPa 0,0 l/m 23,5 km/h (4 Bft) W 263 2 min 0,000 mm 1,1 UV-I 318 W/m 8,3 C 5,4 C 30,6 km/h (5 Bft) 100,00 %
22.02.2017 11:54 12,5 C 75 % 1011,3 hPa 0,0 l/m 21,9 km/h (4 Bft) S-SW 212 2 min 0,000 mm 1,2 UV-I 326 W/m 8,2 C 6,0 C 35,4 km/h (5 Bft) 98,21 %
22.02.2017 11:56 12,6 C 74 % 1011,2 hPa 0,0 l/m 27,0 km/h (4 Bft) W 269 2 min 0,000 mm 1,1 UV-I 302 W/m 8,1 C 4,9 C 40,2 km/h (6 Bft) 97,87 %
22.02.2017 11:58 12,6 C 75 % 1011,3 hPa 0,0 l/m 21,9 km/h (4 Bft) W 263 0 min 0,000 mm 1,2 UV-I 276 W/m 8,3 C 6,1 C 35,4 km/h (5 Bft) 100,00 %
22.02.2017 12:00 12,7 C 74 % 1011,3 hPa 0,0 l/m 19,0 km/h (3 Bft) W-SW 253 0 min 0,000 mm 1,1 UV-I 273 W/m 8,2 C 7,1 C 27,4 km/h (4 Bft) 100,00 %
22.02.2017 12:02 12,7 C 74 % 1011,4 hPa 0,0 l/m 21,9 km/h (4 Bft) W-NW 282 0 min 0,178 mm 0,9 UV-I 238 W/m 8,2 C 6,3 C 40,2 km/h (6 Bft) 96,55 %
22.02.2017 12:04 12,7 C 73 % 1011,3 hPa 0,0 l/m 20,8 km/h (4 Bft) W-NW 290 0 min 0,000 mm 0,9 UV-I 247 W/m 8,0 C 6,5 C 29,0 km/h (5 Bft) 97,06 %
22.02.2017 12:06 12,7 C 74 % 1011,4 hPa 0,0 l/m 15,8 km/h (3 Bft) W-SW 240 0 min 0,000 mm 0,7 UV-I 210 W/m 8,2 C 8,1 C 24,1 km/h (4 Bft) 97,56 %
22.02.2017 12:08 12,7 C 74 % 1011,4 hPa 0,0 l/m 20,9 km/h (4 Bft) W-SW 255 0 min 0,000 mm 0,7 UV-I 201 W/m 8,2 C 6,5 C 25,7 km/h (4 Bft) 95,45 %
22.02.2017 12:10 12,6 C 74 % 1011,3 hPa 0,0 l/m 21,4 km/h (4 Bft) W-SW 257 0 min 0,000 mm 0,7 UV-I 196 W/m 8,1 C 6,3 C 27,4 km/h (4 Bft) 96,23 %
22.02.2017 12:12 12,6 C 74 % 1011,4 hPa 0,0 l/m 17,3 km/h (3 Bft) SW 234 0 min 0,000 mm 0,6 UV-I 168 W/m 8,1 C 7,5 C 24,1 km/h (4 Bft) 96,00 %
22.02.2017 12:14 12,5 C 74 % 1011,3 hPa 0,0 l/m 20,1 km/h (4 Bft) W-SW 244 0 min 0,000 mm 0,6 UV-I 153 W/m 8,0 C 6,5 C 33,8 km/h (5 Bft) 95,45 %
22.02.2017 12:16 12,5 C 74 % 1011,4 hPa 0,0 l/m 22,2 km/h (4 Bft) W-SW 258 0 min 0,000 mm 0,6 UV-I 150 W/m 8,0 C 5,9 C 37,0 km/h (5 Bft) 97,87 %
22.02.2017 12:18 12,5 C 74 % 1011,2 hPa 0,0 l/m 21,4 km/h (4 Bft) W 276 0 min 0,000 mm 0,7 UV-I 170 W/m 8,0 C 6,1 C 33,8 km/h (5 Bft) 95,74 %
22.02.2017 12:20 12,5 C 74 % 1011,1 hPa 0,0 l/m 14,4 km/h (3 Bft) W-SW 237 0 min 0,000 mm 0,8 UV-I 198 W/m 8,0 C 8,4 C 29,0 km/h (5 Bft) 95,12 %
22.02.2017 12:22 12,5 C 74 % 1011,1 hPa 0,0 l/m 21,3 km/h (4 Bft) W 274 0 min 0,000 mm 0,8 UV-I 207 W/m 8,0 C 6,2 C 33,8 km/h (5 Bft) 95,45 %
22.02.2017 12:24 12,6 C 74 % 1011,1 hPa 0,0 l/m 18,8 km/h (3 Bft) W 273 0 min 0,000 mm 0,7 UV-I 199 W/m 8,1 C 7,0 C 29,0 km/h (5 Bft) 96,23 %
22.02.2017 12:26 12,6 C 73 % 1011,2 hPa 0,0 l/m 18,9 km/h (3 Bft) W 268 0 min 0,000 mm 0,7 UV-I 193 W/m 7,9 C 7,0 C 25,7 km/h (4 Bft) 97,73 %
22.02.2017 12:28 12,6 C 73 % 1011,1 hPa 0,0 l/m 18,8 km/h (3 Bft) W 267 0 min 0,000 mm 0,6 UV-I 160 W/m 7,9 C 7,0 C 35,4 km/h (5 Bft) 97,87 %
22.02.2017 12:30 12,6 C 72 % 1011,1 hPa 0,0 l/m 21,1 km/h (4 Bft) W 265 0 min 0,000 mm 0,6 UV-I 173 W/m 7,7 C 6,3 C 40,2 km/h (6 Bft) 97,87 %
22.02.2017 12:32 12,6 C 71 % 1011,1 hPa 0,0 l/m 31,1 km/h (5 Bft) S-SW 213 0 min 0,000 mm 0,7 UV-I 176 W/m 7,5 C 4,1 C 51,5 km/h (7 Bft) 92,45 %
22.02.2017 12:34 12,7 C 71 % 1011,0 hPa 0,0 l/m 21,8 km/h (4 Bft) W-SW 246 0 min 0,000 mm 0,7 UV-I 182 W/m 7,6 C 6,3 C 32,2 km/h (5 Bft) 100,00 %
22.02.2017 12:36 12,6 C 70 % 1010,9 hPa 0,0 l/m 25,4 km/h (4 Bft) W 268 0 min 0,000 mm 0,8 UV-I 197 W/m 7,3 C 5,3 C 35,4 km/h (5 Bft) 97,37 %
22.02.2017 12:38 12,7 C 71 % 1011,0 hPa 0,0 l/m 22,9 km/h (4 Bft) W-SW 244 0 min 0,000 mm 0,7 UV-I 183 W/m 7,6 C 6,0 C 35,4 km/h (5 Bft) 100,00 %
22.02.2017 12:40 12,6 C 71 % 1011,0 hPa 0,0 l/m 21,4 km/h (4 Bft) W-SW 251 0 min 0,000 mm 0,7 UV-I 188 W/m 7,5 C 6,3 C 40,2 km/h (6 Bft) 95,74 %
22.02.2017 12:42 12,6 C 71 % 1010,9 hPa 0,0 l/m 17,5 km/h (3 Bft) W 261 0 min 0,000 mm 0,8 UV-I 208 W/m 7,5 C 7,4 C 29,0 km/h (5 Bft) 100,00 %
22.02.2017 12:44 12,6 C 70 % 1010,9 hPa 0,0 l/m 29,7 km/h (5 Bft) W-SW 254 0 min 0,000 mm 1,0 UV-I 261 W/m 7,3 C 4,4 C 43,5 km/h (6 Bft) 96,00 %
22.02.2017 12:46 12,7 C 69 % 1010,7 hPa 0,0 l/m 27,4 km/h (4 Bft) W 265 0 min 0,000 mm 1,1 UV-I 279 W/m 7,2 C 5,0 C 49,9 km/h (6 Bft) 97,56 %
22.02.2017 12:48 12,7 C 69 % 1010,7 hPa 0,0 l/m 27,9 km/h (4 Bft) W-SW 245 0 min 0,000 mm 1,2 UV-I 252 W/m 7,2 C 4,9 C 48,3 km/h (6 Bft) 100,00 %
22.02.2017 12:50 12,7 C 69 % 1010,8 hPa 0,0 l/m 19,6 km/h (3 Bft) W-SW 237 0 min 0,000 mm 1,1 UV-I 238 W/m 7,2 C 6,9 C 35,4 km/h (5 Bft) 97,87 %
22.02.2017 12:52 12,8 C 70 % 1010,8 hPa 0,0 l/m 25,7 km/h (4 Bft) N-NW 333 0 min 0,000 mm 1,4 UV-I 239 W/m 7,5 C 5,5 C 40,2 km/h (6 Bft) 97,73 %
22.02.2017 12:54 12,9 C 68 % 1010,7 hPa 0,0 l/m 24,5 km/h (4 Bft) W 259 0 min 0,000 mm 1,3 UV-I 239 W/m 7,1 C 5,9 C 32,2 km/h (5 Bft) 98,15 %
22.02.2017 12:56 13,1 C 68 % 1010,7 hPa 0,0 l/m 21,2 km/h (4 Bft) W-SW 243 0 min 0,000 mm 1,3 UV-I 255 W/m 7,3 C 7,0 C 30,6 km/h (5 Bft) 98,00 %
22.02.2017 12:58 13,3 C 69 % 1010,7 hPa 0,0 l/m 17,9 km/h (3 Bft) W 281 2 min 0,000 mm 1,2 UV-I 339 W/m 7,7 C 8,2 C 30,6 km/h (5 Bft) 100,00 %
22.02.2017 13:00 13,3 C 67 % 1010,6 hPa 0,0 l/m 25,9 km/h (4 Bft) W 278 2 min 0,178 mm 1,2 UV-I 353 W/m 7,3 C 6,1 C 43,5 km/h (6 Bft) 98,31 %
22.02.2017 13:02 13,2 C 67 % 1010,8 hPa 0,0 l/m 19,9 km/h (4 Bft) W-NW 284 0 min 0,000 mm 0,8 UV-I 220 W/m 7,2 C 7,4 C 32,2 km/h (5 Bft) 97,73 %
22.02.2017 13:04 13,1 C 66 % 1010,7 hPa 0,0 l/m 24,7 km/h (4 Bft) W 267 0 min 0,000 mm 0,7 UV-I 176 W/m 6,9 C 6,1 C 40,2 km/h (6 Bft) 96,30 %
22.02.2017 13:06 13,0 C 68 % 1010,8 hPa 0,0 l/m 24,6 km/h (4 Bft) W-SW 257 0 min 0,000 mm 0,7 UV-I 184 W/m 7,2 C 6,0 C 45,1 km/h (6 Bft) 100,00 %
22.02.2017 13:08 12,9 C 68 % 1010,7 hPa 0,0 l/m 20,2 km/h (4 Bft) W-SW 246 0 min 0,000 mm 0,8 UV-I 190 W/m 7,1 C 7,0 C 32,2 km/h (5 Bft) 97,62 %
22.02.2017 13:10 12,8 C 68 % 1010,6 hPa 0,0 l/m 18,3 km/h (3 Bft) W-SW 248 0 min 0,000 mm 0,8 UV-I 172 W/m 7,0 C 7,4 C 25,7 km/h (4 Bft) 95,74 %
22.02.2017 13:12 12,8 C 68 % 1010,7 hPa 0,0 l/m 23,2 km/h (4 Bft) W-SW 251 0 min 0,000 mm 0,9 UV-I 186 W/m 7,0 C 6,1 C 33,8 km/h (5 Bft) 100,00 %
22.02.2017 13:14 12,7 C 69 % 1010,7 hPa 0,0 l/m 21,2 km/h (4 Bft) W-SW 253 0 min 0,000 mm 1,0 UV-I 227 W/m 7,2 C 6,4 C 29,0 km/h (5 Bft) 100,00 %
22.02.2017 13:16 12,8 C 69 % 1010,7 hPa 0,0 l/m 19,2 km/h (3 Bft) W-NW 283 0 min 0,000 mm 1,0 UV-I 257 W/m 7,3 C 7,1 C 30,6 km/h (5 Bft) 100,00 %
22.02.2017 13:18 12,8 C 69 % 1010,6 hPa 0,0 l/m 21,1 km/h (4 Bft) W-NW 288 0 min 0,000 mm 1,0 UV-I 265 W/m 7,3 C 6,6 C 35,4 km/h (5 Bft) 100,00 %
22.02.2017 13:20 12,8 C 68 % 1010,7 hPa 0,0 l/m 28,7 km/h (4 Bft) W-SW 250 2 min 0,000 mm 1,2 UV-I 333 W/m 7,0 C 4,8 C 45,1 km/h (6 Bft) 100,00 %
22.02.2017 13:22 12,9 C 69 % 1010,8 hPa 0,0 l/m 20,0 km/h (4 Bft) W-SW 246 2 min 0,000 mm 1,1 UV-I 360 W/m 7,4 C 7,0 C 27,4 km/h (4 Bft) 97,37 %
22.02.2017 13:24 13,0 C 69 % 1010,7 hPa 0,0 l/m 19,2 km/h (3 Bft) W-SW 255 0 min 0,000 mm 0,9 UV-I 244 W/m 7,4 C 7,4 C 30,6 km/h (5 Bft) 100,00 %
22.02.2017 13:26 12,9 C 68 % 1010,8 hPa 0,0 l/m 15,6 km/h (3 Bft) W-SW 256 0 min 0,000 mm 0,6 UV-I 174 W/m 7,1 C 8,4 C 20,9 km/h (4 Bft) 96,43 %
22.02.2017 13:28 12,9 C 68 % 1010,7 hPa 0,0 l/m 16,7 km/h (3 Bft) W 269 0 min 0,000 mm 0,5 UV-I 135 W/m 7,1 C 8,1 C 22,5 km/h (4 Bft) 100,00 %
22.02.2017 13:30 12,8 C 69 % 1010,8 hPa 0,0 l/m 11,7 km/h (2 Bft) SW 236 0 min 0,000 mm 0,1 UV-I 108 W/m 7,3 C 9,9 C 24,1 km/h (4 Bft) 98,11 %
22.02.2017 13:32 12,7 C 69 % 1010,8 hPa 0,0 l/m 19,7 km/h (3 Bft) W 272 0 min 0,000 mm 0,0 UV-I 78 W/m 7,2 C 6,9 C 35,4 km/h (5 Bft) 100,00 %
22.02.2017 13:34 12,6 C 69 % 1010,7 hPa 0,0 l/m 20,6 km/h (4 Bft) W 273 0 min 0,000 mm 0,0 UV-I 71 W/m 7,1 C 6,5 C 32,2 km/h (5 Bft) 97,73 %
22.02.2017 13:36 12,6 C 69 % 1010,8 hPa 0,0 l/m 23,2 km/h (4 Bft) W-NW 292 0 min 0,000 mm 0,0 UV-I 61 W/m 7,1 C 5,8 C 45,1 km/h (6 Bft) 96,43 %
22.02.2017 13:38 12,5 C 69 % 1010,8 hPa 0,0 l/m 21,2 km/h (4 Bft) W 275 0 min 0,000 mm 0,0 UV-I 64 W/m 7,0 C 6,2 C 30,6 km/h (5 Bft) 100,00 %
22.02.2017 13:40 12,4 C 69 % 1010,7 hPa 0,0 l/m 21,1 km/h (4 Bft) W 269 0 min 0,000 mm 0,0 UV-I 55 W/m 6,9 C 6,1 C 30,6 km/h (5 Bft) 97,37 %
22.02.2017 13:42 12,3 C 69 % 1010,8 hPa 0,0 l/m 18,1 km/h (3 Bft) W-SW 247 0 min 0,000 mm 0,0 UV-I 52 W/m 6,8 C 6,8 C 27,4 km/h (4 Bft) 100,00 %
22.02.2017 13:44 12,3 C 69 % 1010,7 hPa 0,0 l/m 24,2 km/h (4 Bft) SW 215 0 min 0,000 mm 0,0 UV-I 52 W/m 6,8 C 5,1 C 37,0 km/h (5 Bft) 97,87 %
22.02.2017 13:46 12,3 C 69 % 1010,7 hPa 0,0 l/m 23,5 km/h (4 Bft) W-SW 256 0 min 0,000 mm 0,0 UV-I 65 W/m 6,8 C 5,3 C 37,0 km/h (5 Bft) 98,11 %
22.02.2017 13:48 12,3 C 68 % 1010,7 hPa 0,0 l/m 27,0 km/h (4 Bft) W 281 0 min 0,000 mm 0,0 UV-I 63 W/m 6,6 C 4,5 C 40,2 km/h (6 Bft) 100,00 %
22.02.2017 13:50 12,3 C 68 % 1010,7 hPa 0,0 l/m 26,6 km/h (4 Bft) W-SW 242 0 min 0,000 mm 0,0 UV-I 58 W/m 6,6 C 4,6 C 38,6 km/h (5 Bft) 97,62 %
22.02.2017 13:52 12,2 C 68 % 1010,7 hPa 0,0 l/m 29,8 km/h (5 Bft) W 263 0 min 0,000 mm 0,0 UV-I 62 W/m 6,5 C 3,8 C 46,7 km/h (6 Bft) 100,00 %
22.02.2017 13:54 12,2 C 68 % 1010,6 hPa 0,0 l/m 18,6 km/h (3 Bft) W-SW 256 0 min 0,000 mm 0,0 UV-I 57 W/m 6,5 C 6,6 C 27,4 km/h (4 Bft) 98,08 %
22.02.2017 13:56 12,2 C 68 % 1010,6 hPa 0,0 l/m 26,4 km/h (4 Bft) W 273 0 min 0,000 mm 0,0 UV-I 74 W/m 6,5 C 4,5 C 41,8 km/h (6 Bft) 95,83 %
22.02.2017 13:58 12,1 C 69 % 1010,5 hPa 0,0 l/m 28,6 km/h (4 Bft) W 259 0 min 0,000 mm 0,0 UV-I 92 W/m 6,6 C 3,9 C 38,6 km/h (5 Bft) 96,77 %
22.02.2017 14:00 12,1 C 69 % 1010,5 hPa 0,0 l/m 36,5 km/h (5 Bft) W 261 0 min 0,152 mm 0,0 UV-I 120 W/m 6,6 C 2,5 C 56,3 km/h (7 Bft) 97,56 %
22.02.2017 14:02 12,0 C 69 % 1010,6 hPa 0,0 l/m 27,8 km/h (4 Bft) W-SW 240 0 min 0,000 mm 0,0 UV-I 126 W/m 6,5 C 3,9 C 48,3 km/h (6 Bft) 97,56 %
22.02.2017 14:04 11,9 C 69 % 1010,6 hPa 0,0 l/m 30,0 km/h (5 Bft) W-SW 251 0 min 0,000 mm 0,0 UV-I 127 W/m 6,4 C 3,3 C 48,3 km/h (6 Bft) 98,21 %
22.02.2017 14:06 11,9 C 69 % 1010,6 hPa 0,0 l/m 26,4 km/h (4 Bft) W 271 0 min 0,000 mm 0,0 UV-I 114 W/m 6,4 C 4,1 C 45,1 km/h (6 Bft) 98,11 %
22.02.2017 14:08 11,9 C 70 % 1010,7 hPa 0,0 l/m 25,1 km/h (4 Bft) W 265 0 min 0,000 mm 0,0 UV-I 83 W/m 6,6 C 4,4 C 46,7 km/h (6 Bft) 96,00 %
22.02.2017 14:10 11,9 C 70 % 1010,6 hPa 0,0 l/m 22,8 km/h (4 Bft) W-SW 254 0 min 0,000 mm 0,0 UV-I 68 W/m 6,6 C 5,0 C 35,4 km/h (5 Bft) 97,37 %
22.02.2017 14:12 11,8 C 70 % 1010,7 hPa 0,0 l/m 18,8 km/h (3 Bft) W-SW 252 0 min 0,000 mm 0,0 UV-I 63 W/m 6,5 C 6,0 C 30,6 km/h (5 Bft) 96,00 %
22.02.2017 14:14 11,8 C 71 % 1010,7 hPa 0,0 l/m 16,1 km/h (3 Bft) W-SW 241 0 min 0,000 mm 0,0 UV-I 60 W/m 6,7 C 6,9 C 22,5 km/h (4 Bft) 92,45 %
22.02.2017 14:16 11,7 C 72 % 1010,7 hPa 0,0 l/m 16,0 km/h (3 Bft) W 267 0 min 0,000 mm 0,0 UV-I 70 W/m 6,8 C 6,8 C 20,9 km/h (4 Bft) 97,56 %
22.02.2017 14:18 11,7 C 72 % 1010,8 hPa 0,0 l/m 20,3 km/h (4 Bft) W-SW 255 0 min 0,000 mm 0,0 UV-I 73 W/m 6,8 C 5,4 C 29,0 km/h (5 Bft) 96,23 %
22.02.2017 14:20 11,6 C 73 % 1010,8 hPa 0,0 l/m 17,0 km/h (3 Bft) W-SW 243 0 min 0,000 mm 0,0 UV-I 82 W/m 6,9 C 6,3 C 27,4 km/h (4 Bft) 97,56 %
22.02.2017 14:22 11,5 C 74 % 1010,8 hPa 0,0 l/m 17,7 km/h (3 Bft) W-SW 257 0 min 0,000 mm 0,0 UV-I 100 W/m 7,0 C 6,0 C 25,7 km/h (4 Bft) 93,62 %
22.02.2017 14:24 11,3 C 75 % 1010,5 hPa 0,0 l/m 20,1 km/h (4 Bft) S 182 0 min 0,000 mm 0,0 UV-I 106 W/m 7,0 C 4,9 C 35,4 km/h (5 Bft) 98,00 %
22.02.2017 14:26 11,3 C 75 % 1010,5 hPa 0,0 l/m 21,1 km/h (4 Bft) W 263 0 min 0,000 mm 0,0 UV-I 121 W/m 7,0 C 4,6 C 38,6 km/h (5 Bft) 91,49 %
22.02.2017 14:28 11,2 C 75 % 1010,6 hPa 0,0 l/m 27,1 km/h (4 Bft) W-SW 257 0 min 0,000 mm 0,0 UV-I 129 W/m 6,9 C 3,0 C 41,8 km/h (6 Bft) 93,62 %
22.02.2017 14:30 11,2 C 75 % 1010,5 hPa 0,0 l/m 20,7 km/h (4 Bft) W-SW 244 0 min 0,000 mm 0,0 UV-I 121 W/m 6,9 C 4,6 C 29,0 km/h (5 Bft) 93,62 %
22.02.2017 14:32 11,2 C 76 % 1010,5 hPa 0,0 l/m 23,5 km/h (4 Bft) W-SW 255 0 min 0,000 mm 0,0 UV-I 124 W/m 7,1 C 3,8 C 33,8 km/h (5 Bft) 95,74 %
22.02.2017 14:34 11,2 C 76 % 1010,5 hPa 0,0 l/m 22,1 km/h (4 Bft) W 263 0 min 0,000 mm 0,4 UV-I 135 W/m 7,1 C 4,2 C 30,6 km/h (5 Bft) 100,00 %
22.02.2017 14:36 11,2 C 76 % 1010,5 hPa 0,0 l/m 20,8 km/h (4 Bft) W 265 0 min 0,000 mm 0,4 UV-I 128 W/m 7,1 C 4,6 C 29,0 km/h (5 Bft) 95,74 %
22.02.2017 14:38 11,2 C 76 % 1010,5 hPa 0,0 l/m 16,1 km/h (3 Bft) W-SW 248 0 min 0,000 mm 0,0 UV-I 117 W/m 7,1 C 6,2 C 22,5 km/h (4 Bft) 93,62 %
22.02.2017 14:40 11,2 C 76 % 1010,5 hPa 0,0 l/m 19,8 km/h (3 Bft) W 261 0 min 0,000 mm 0,0 UV-I 115 W/m 7,1 C 4,9 C 30,6 km/h (5 Bft) 100,00 %
22.02.2017 14:42 11,2 C 76 % 1010,5 hPa 0,0 l/m 16,3 km/h (3 Bft) W-SW 254 0 min 0,000 mm 0,0 UV-I 122 W/m 7,1 C 6,1 C 22,5 km/h (4 Bft) 93,62 %
22.02.2017 14:44 11,2 C 76 % 1010,5 hPa 0,0 l/m 16,0 km/h (3 Bft) W-NW 294 0 min 0,000 mm 0,0 UV-I 129 W/m 7,1 C 6,2 C 29,0 km/h (5 Bft) 100,00 %
22.02.2017 14:46 11,2 C 76 % 1010,5 hPa 0,0 l/m 13,1 km/h (3 Bft) W 259 0 min 0,000 mm 0,0 UV-I 120 W/m 7,1 C 7,4 C 19,3 km/h (3 Bft) 95,74 %
22.02.2017 14:48 11,3 C 76 % 1010,6 hPa 0,0 l/m 20,6 km/h (4 Bft) W 259 0 min 0,000 mm 0,0 UV-I 118 W/m 7,2 C 4,8 C 29,0 km/h (5 Bft) 100,00 %
22.02.2017 14:50 11,3 C 75 % 1010,5 hPa 0,0 l/m 16,6 km/h (3 Bft) W 262 0 min 0,000 mm 0,0 UV-I 107 W/m 7,0 C 6,1 C 25,7 km/h (4 Bft) 100,00 %
22.02.2017 14:52 11,3 C 75 % 1010,5 hPa 0,0 l/m 18,1 km/h (3 Bft) W-NW 302 0 min 0,000 mm 0,0 UV-I 88 W/m 7,0 C 5,6 C 25,7 km/h (4 Bft) 98,21 %
22.02.2017 14:54 11,3 C 75 % 1010,5 hPa 0,0 l/m 12,3 km/h (3 Bft) W-SW 249 0 min 0,000 mm 0,0 UV-I 86 W/m 7,0 C 7,9 C 17,7 km/h (3 Bft) 97,37 %
22.02.2017 14:56 11,3 C 75 % 1010,5 hPa 0,0 l/m 17,2 km/h (3 Bft) W 265 0 min 0,000 mm 0,0 UV-I 89 W/m 7,0 C 5,9 C 25,7 km/h (4 Bft) 100,00 %
22.02.2017 14:58 11,3 C 75 % 1010,5 hPa 0,0 l/m 11,3 km/h (2 Bft) SW 236 0 min 0,000 mm 0,0 UV-I 93 W/m 7,0 C 8,4 C 16,1 km/h (3 Bft) 97,73 %
22.02.2017 15:00 11,3 C 75 % 1010,5 hPa 0,0 l/m 20,1 km/h (4 Bft) W 265 0 min 0,102 mm 0,0 UV-I 91 W/m 7,0 C 4,9 C 29,0 km/h (5 Bft) 100,00 %
22.02.2017 15:02 11,3 C 75 % 1010,5 hPa 0,0 l/m 12,9 km/h (3 Bft) W 264 0 min 0,000 mm 0,0 UV-I 95 W/m 7,0 C 7,6 C 20,9 km/h (4 Bft) 97,56 %
22.02.2017 15:04 11,3 C 75 % 1010,5 hPa 0,0 l/m 14,0 km/h (3 Bft) SW 234 0 min 0,000 mm 0,0 UV-I 96 W/m 7,0 C 7,1 C 24,1 km/h (4 Bft) 97,62 %
22.02.2017 15:06 11,3 C 75 % 1010,4 hPa 0,0 l/m 17,6 km/h (3 Bft) SW 223 0 min 0,000 mm 0,0 UV-I 100 W/m 7,0 C 5,7 C 35,4 km/h (5 Bft) 96,55 %
22.02.2017 15:08 11,4 C 74 % 1010,4 hPa 0,0 l/m 20,3 km/h (4 Bft) W-SW 246 0 min 0,000 mm 0,0 UV-I 96 W/m 6,9 C 5,0 C 33,8 km/h (5 Bft) 97,87 %
22.02.2017 15:10 11,4 C 73 % 1010,3 hPa 0,0 l/m 19,8 km/h (3 Bft) W-NW 286 0 min 0,000 mm 0,0 UV-I 89 W/m 6,7 C 5,2 C 32,2 km/h (5 Bft) 96,15 %
22.02.2017 15:12 11,4 C 74 % 1010,3 hPa 0,0 l/m 14,0 km/h (3 Bft) W-SW 239 0 min 0,000 mm 0,0 UV-I 88 W/m 6,9 C 7,2 C 22,5 km/h (4 Bft) 97,22 %
22.02.2017 15:14 11,4 C 73 % 1010,3 hPa 0,0 l/m 17,1 km/h (3 Bft) W-SW 250 0 min 0,000 mm 0,0 UV-I 87 W/m 6,7 C 6,0 C 27,4 km/h (4 Bft) 100,00 %
22.02.2017 15:16 11,4 C 73 % 1010,4 hPa 0,0 l/m 17,2 km/h (3 Bft) W 259 0 min 0,000 mm 0,0 UV-I 81 W/m 6,7 C 6,0 C 29,0 km/h (5 Bft) 98,11 %
22.02.2017 15:18 11,4 C 73 % 1010,4 hPa 0,0 l/m 15,5 km/h (3 Bft) W 261 0 min 0,000 mm 0,0 UV-I 73 W/m 6,7 C 6,6 C 20,9 km/h (4 Bft) 97,56 %
22.02.2017 15:20 11,4 C 73 % 1010,4 hPa 0,0 l/m 12,3 km/h (3 Bft) W 259 0 min 0,000 mm 0,0 UV-I 69 W/m 6,7 C 8,0 C 17,7 km/h (3 Bft) 100,00 %
22.02.2017 15:22 11,4 C 73 % 1010,3 hPa 0,0 l/m 12,8 km/h (3 Bft) W-SW 254 0 min 0,000 mm 0,0 UV-I 66 W/m 6,7 C 7,8 C 20,9 km/h (4 Bft) 97,87 %
22.02.2017 15:24 11,4 C 72 % 1010,4 hPa 0,0 l/m 15,5 km/h (3 Bft) SW 216 0 min 0,000 mm 0,0 UV-I 62 W/m 6,5 C 6,6 C 22,5 km/h (4 Bft) 100,00 %
22.02.2017 15:26 11,4 C 72 % 1010,4 hPa 0,0 l/m 13,9 km/h (3 Bft) W-SW 251 0 min 0,000 mm 0,0 UV-I 56 W/m 6,5 C 7,3 C 20,9 km/h (4 Bft) 97,56 %
22.02.2017 15:28 11,4 C 72 % 1010,5 hPa 0,0 l/m 15,5 km/h (3 Bft) W 267 0 min 0,000 mm 0,0 UV-I 52 W/m 6,5 C 6,6 C 22,5 km/h (4 Bft) 98,11 %
22.02.2017 15:30 11,3 C 73 % 1010,5 hPa 0,0 l/m 10,1 km/h (2 Bft) W 275 0 min 0,000 mm 0,0 UV-I 50 W/m 6,6 C 9,0 C 17,7 km/h (3 Bft) 100,00 %
22.02.2017 15:32 11,3 C 72 % 1010,4 hPa 0,0 l/m 12,1 km/h (2 Bft) SW 227 0 min 0,000 mm 0,0 UV-I 50 W/m 6,4 C 8,0 C 20,9 km/h (4 Bft) 94,74 %
22.02.2017 15:34 11,3 C 72 % 1010,3 hPa 0,0 l/m 15,2 km/h (3 Bft) W-SW 256 0 min 0,000 mm 0,0 UV-I 43 W/m 6,4 C 6,6 C 27,4 km/h (4 Bft) 100,00 %
22.02.2017 15:36 11,3 C 72 % 1010,4 hPa 0,0 l/m 12,0 km/h (2 Bft) W 265 0 min 0,000 mm 0,0 UV-I 39 W/m 6,4 C 8,0 C 19,3 km/h (3 Bft) 95,74 %
22.02.2017 15:38 11,3 C 72 % 1010,4 hPa 0,0 l/m 15,5 km/h (3 Bft) W 268 0 min 0,000 mm 0,0 UV-I 38 W/m 6,4 C 6,5 C 29,0 km/h (5 Bft) 100,00 %
22.02.2017 15:40 11,3 C 72 % 1010,3 hPa 0,0 l/m 10,7 km/h (2 Bft) W-NW 290 0 min 0,000 mm 0,0 UV-I 38 W/m 6,4 C 8,7 C 17,7 km/h (3 Bft) 98,21 %
22.02.2017 15:42 11,3 C 72 % 1010,3 hPa 0,0 l/m 10,6 km/h (2 Bft) W-SW 257 0 min 0,000 mm 0,0 UV-I 43 W/m 6,4 C 8,7 C 22,5 km/h (4 Bft) 97,37 %
22.02.2017 15:44 11,2 C 72 % 1010,3 hPa 0,0 l/m 10,1 km/h (2 Bft) W 273 0 min 0,000 mm 0,0 UV-I 42 W/m 6,3 C 8,9 C 19,3 km/h (3 Bft) 98,11 %
22.02.2017 15:46 11,2 C 72 % 1010,2 hPa 0,0 l/m 12,6 km/h (3 Bft) W-SW 252 0 min 0,000 mm 0,0 UV-I 39 W/m 6,3 C 7,6 C 17,7 km/h (3 Bft) 97,73 %
22.02.2017 15:48 11,3 C 72 % 1010,3 hPa 0,0 l/m 17,3 km/h (3 Bft) W 263 0 min 0,000 mm 0,0 UV-I 37 W/m 6,4 C 5,9 C 25,7 km/h (4 Bft) 98,11 %
22.02.2017 15:50 11,2 C 71 % 1010,2 hPa 0,0 l/m 12,5 km/h (3 Bft) W-SW 255 0 min 0,000 mm 0,0 UV-I 35 W/m 6,1 C 7,7 C 17,7 km/h (3 Bft) 100,00 %
22.02.2017 15:52 11,3 C 71 % 1010,2 hPa 0,0 l/m 17,5 km/h (3 Bft) W-SW 257 0 min 0,000 mm 0,0 UV-I 37 W/m 6,2 C 5,8 C 24,1 km/h (4 Bft) 98,00 %
22.02.2017 15:54 11,2 C 71 % 1010,1 hPa 0,0 l/m 16,2 km/h (3 Bft) W 265 0 min 0,000 mm 0,0 UV-I 36 W/m 6,1 C 6,1 C 27,4 km/h (4 Bft) 98,11 %
22.02.2017 15:56 11,2 C 72 % 1010,2 hPa 0,0 l/m 14,5 km/h (3 Bft) W-SW 258 0 min 0,000 mm 0,0 UV-I 33 W/m 6,3 C 6,8 C 24,1 km/h (4 Bft) 100,00 %
22.02.2017 15:58 11,2 C 72 % 1010,2 hPa 0,0 l/m 15,3 km/h (3 Bft) W-NW 282 0 min 0,000 mm 0,0 UV-I 31 W/m 6,3 C 6,5 C 22,5 km/h (4 Bft) 98,11 %
22.02.2017 16:00 11,2 C 71 % 1010,2 hPa 0,0 l/m 17,8 km/h (3 Bft) W 262 0 min 0,076 mm 0,0 UV-I 26 W/m 6,1 C 5,6 C 25,7 km/h (4 Bft) 92,68 %
22.02.2017 16:02 11,2 C 72 % 1010,2 hPa 0,0 l/m 18,6 km/h (3 Bft) W 267 0 min 0,000 mm 0,0 UV-I 25 W/m 6,3 C 5,3 C 29,0 km/h (5 Bft) 97,56 %
22.02.2017 16:04 11,2 C 72 % 1010,2 hPa 0,0 l/m 10,4 km/h (2 Bft) S-SW 201 0 min 0,000 mm 0,0 UV-I 26 W/m 6,3 C 8,7 C 17,7 km/h (3 Bft) 94,34 %
22.02.2017 16:06 11,1 C 72 % 1010,2 hPa 0,0 l/m 13,7 km/h (3 Bft) W 261 0 min 0,000 mm 0,0 UV-I 26 W/m 6,2 C 7,0 C 19,3 km/h (3 Bft) 94,34 %
22.02.2017 16:08 11,1 C 72 % 1010,2 hPa 0,0 l/m 10,4 km/h (2 Bft) W-SW 250 0 min 0,000 mm 0,0 UV-I 24 W/m 6,2 C 8,6 C 12,9 km/h (3 Bft) 94,29 %
22.02.2017 16:10 11,1 C 73 % 1010,2 hPa 0,0 l/m 11,3 km/h (2 Bft) W 265 0 min 0,000 mm 0,0 UV-I 21 W/m 6,4 C 8,1 C 17,7 km/h (3 Bft) 98,21 %
22.02.2017 16:12 11,0 C 73 % 1010,2 hPa 0,0 l/m 14,0 km/h (3 Bft) W-SW 256 0 min 0,000 mm 0,0 UV-I 21 W/m 6,4 C 6,8 C 20,9 km/h (4 Bft) 92,00 %
22.02.2017 16:14 11,0 C 73 % 1010,1 hPa 0,0 l/m 10,6 km/h (2 Bft) W-SW 258 0 min 0,000 mm 0,0 UV-I 21 W/m 6,4 C 8,4 C 16,1 km/h (3 Bft) 90,91 %
22.02.2017 16:16 10,9 C 73 % 1010,1 hPa 0,0 l/m 9,6 km/h (2 Bft) W-SW 254 0 min 0,000 mm 0,0 UV-I 23 W/m 6,3 C 8,8 C 14,5 km/h (3 Bft) 97,56 %
22.02.2017 16:18 10,9 C 74 % 1010,1 hPa 0,0 l/m 9,3 km/h (2 Bft) W-SW 250 0 min 0,000 mm 0,0 UV-I 24 W/m 6,5 C 9,0 C 16,1 km/h (3 Bft) 90,57 %
22.02.2017 16:20 10,9 C 74 % 1010,1 hPa 0,0 l/m 7,2 km/h (2 Bft) W 262 0 min 0,000 mm 0,0 UV-I 22 W/m 6,5 C 10,3 C 12,9 km/h (3 Bft) 92,00 %
22.02.2017 16:22 10,8 C 75 % 1010,0 hPa 0,0 l/m 8,7 km/h (2 Bft) W 259 0 min 0,000 mm 0,0 UV-I 22 W/m 6,5 C 9,2 C 14,5 km/h (3 Bft) 92,68 %
22.02.2017 16:24 10,8 C 76 % 1010,0 hPa 0,0 l/m 8,4 km/h (2 Bft) SW 219 0 min 0,000 mm 0,0 UV-I 24 W/m 6,7 C 9,4 C 16,1 km/h (3 Bft) 94,34 %
22.02.2017 16:26 10,7 C 76 % 1010,0 hPa 0,0 l/m 7,3 km/h (2 Bft) W-SW 242 0 min 0,000 mm 0,0 UV-I 24 W/m 6,6 C 10,1 C 9,7 km/h (2 Bft) 93,62 %
22.02.2017 16:28 10,7 C 77 % 1010,0 hPa 0,0 l/m 9,2 km/h (2 Bft) SW 232 0 min 0,000 mm 0,0 UV-I 23 W/m 6,8 C 8,8 C 14,5 km/h (3 Bft) 95,24 %
22.02.2017 16:30 10,6 C 78 % 1009,9 hPa 0,0 l/m 10,0 km/h (2 Bft) S-SW 207 0 min 0,000 mm 0,0 UV-I 24 W/m 6,9 C 8,3 C 14,5 km/h (3 Bft) 92,68 %
22.02.2017 16:32 10,6 C 78 % 1009,9 hPa 0,0 l/m 9,1 km/h (2 Bft) SW 229 0 min 0,000 mm 0,0 UV-I 25 W/m 6,9 C 8,8 C 14,5 km/h (3 Bft) 96,00 %
22.02.2017 16:34 10,6 C 78 % 1009,9 hPa 0,0 l/m 7,2 km/h (2 Bft) SW 215 0 min 0,000 mm 0,0 UV-I 23 W/m 6,9 C 10,0 C 9,7 km/h (2 Bft) 96,23 %
22.02.2017 16:36 10,5 C 79 % 1009,9 hPa 0,0 l/m 9,6 km/h (2 Bft) S-SW 205 0 min 0,000 mm 0,0 UV-I 20 W/m 7,0 C 8,4 C 16,1 km/h (3 Bft) 94,74 %
22.02.2017 16:38 10,4 C 79 % 1009,9 hPa 0,0 l/m 11,2 km/h (2 Bft) SW 217 0 min 0,000 mm 0,0 UV-I 19 W/m 6,9 C 7,4 C 16,1 km/h (3 Bft) 98,00 %
22.02.2017 16:40 10,4 C 79 % 1009,9 hPa 0,0 l/m 10,4 km/h (2 Bft) S-SW 213 0 min 0,000 mm 0,0 UV-I 20 W/m 6,9 C 7,8 C 16,1 km/h (3 Bft) 94,34 %
22.02.2017 16:42 10,4 C 80 % 1009,9 hPa 0,0 l/m 9,7 km/h (2 Bft) SW 227 0 min 0,000 mm 0,0 UV-I 23 W/m 7,1 C 8,2 C 14,5 km/h (3 Bft) 95,12 %
22.02.2017 16:44 10,3 C 80 % 1009,8 hPa 0,0 l/m 8,9 km/h (2 Bft) SW 236 0 min 0,000 mm 0,0 UV-I 26 W/m 7,0 C 8,6 C 12,9 km/h (3 Bft) 96,23 %
22.02.2017 16:46 10,3 C 80 % 1009,9 hPa 0,0 l/m 9,5 km/h (2 Bft) SW 235 0 min 0,000 mm 0,0 UV-I 26 W/m 7,0 C 8,2 C 14,5 km/h (3 Bft) 97,37 %
22.02.2017 16:48 10,3 C 80 % 1009,9 hPa 0,0 l/m 8,0 km/h (2 Bft) SW 222 0 min 0,000 mm 0,0 UV-I 26 W/m 7,0 C 9,2 C 12,9 km/h (3 Bft) 96,00 %
22.02.2017 16:50 10,3 C 81 % 1009,8 hPa 0,0 l/m 9,8 km/h (2 Bft) SW 234 0 min 0,000 mm 0,0 UV-I 26 W/m 7,2 C 8,0 C 16,1 km/h (3 Bft) 96,00 %
22.02.2017 16:52 10,3 C 81 % 1009,8 hPa 0,0 l/m 9,4 km/h (2 Bft) SW 234 0 min 0,000 mm 0,0 UV-I 27 W/m 7,2 C 8,3 C 14,5 km/h (3 Bft) 97,87 %
22.02.2017 16:54 10,3 C 80 % 1009,9 hPa 0,0 l/m 7,8 km/h (2 Bft) W-SW 240 0 min 0,000 mm 0,0 UV-I 25 W/m 7,0 C 9,3 C 9,7 km/h (2 Bft) 92,68 %
22.02.2017 16:56 10,3 C 80 % 1009,8 hPa 0,0 l/m 8,3 km/h (2 Bft) SW 234 0 min 0,000 mm 0,0 UV-I 24 W/m 7,0 C 9,0 C 11,3 km/h (2 Bft) 96,23 %
22.02.2017 16:58 10,3 C 80 % 1009,9 hPa 0,0 l/m 8,7 km/h (2 Bft) SW 220 0 min 0,000 mm 0,0 UV-I 25 W/m 7,0 C 8,7 C 11,3 km/h (2 Bft) 97,73 %
22.02.2017 17:00 10,2 C 81 % 1009,8 hPa 0,0 l/m 8,1 km/h (2 Bft) SW 227 0 min 0,000 mm 0,0 UV-I 22 W/m 7,1 C 9,0 C 12,9 km/h (3 Bft) 92,68 %
22.02.2017 17:02 10,2 C 80 % 1009,8 hPa 0,0 l/m 8,1 km/h (2 Bft) W-SW 238 0 min 0,026 mm 0,0 UV-I 21 W/m 6,9 C 9,0 C 12,9 km/h (3 Bft) 97,62 %
22.02.2017 17:04 10,2 C 80 % 1009,8 hPa 0,0 l/m 6,9 km/h (2 Bft) W-SW 244 0 min 0,000 mm 0,0 UV-I 19 W/m 6,9 C 9,8 C 11,3 km/h (2 Bft) 94,34 %
22.02.2017 17:06 10,2 C 81 % 1009,8 hPa 0,0 l/m 6,4 km/h (2 Bft) W-SW 248 0 min 0,000 mm 0,0 UV-I 19 W/m 7,1 C 10,2 C 9,7 km/h (2 Bft) 93,62 %
22.02.2017 17:08 10,2 C 80 % 1009,7 hPa 0,0 l/m 7,2 km/h (2 Bft) SW 219 0 min 0,000 mm 0,0 UV-I 16 W/m 6,9 C 9,6 C 11,3 km/h (2 Bft) 93,62 %
22.02.2017 17:10 10,2 C 81 % 1009,6 hPa 0,0 l/m 7,6 km/h (2 Bft) SW 225 0 min 0,000 mm 0,0 UV-I 14 W/m 7,1 C 9,3 C 11,3 km/h (2 Bft) 96,23 %
22.02.2017 17:12 10,2 C 81 % 1009,6 hPa 0,0 l/m 8,6 km/h (2 Bft) W-SW 239 0 min 0,000 mm 0,0 UV-I 12 W/m 7,1 C 8,7 C 14,5 km/h (3 Bft) 94,00 %
22.02.2017 17:14 10,1 C 81 % 1009,6 hPa 0,0 l/m 9,7 km/h (2 Bft) S-SW 193 0 min 0,000 mm 0,0 UV-I 12 W/m 7,0 C 7,9 C 16,1 km/h (3 Bft) 92,68 %
22.02.2017 17:16 10,1 C 81 % 1009,5 hPa 0,0 l/m 11,1 km/h (2 Bft) W 267 0 min 0,000 mm 0,0 UV-I 12 W/m 7,0 C 7,1 C 14,5 km/h (3 Bft) 94,34 %
22.02.2017 17:18 10,1 C 80 % 1009,5 hPa 0,0 l/m 12,2 km/h (2 Bft) W-SW 238 0 min 0,000 mm 0,0 UV-I 12 W/m 6,8 C 6,5 C 17,7 km/h (3 Bft) 94,74 %
22.02.2017 17:20 10,2 C 80 % 1009,4 hPa 0,0 l/m 11,2 km/h (2 Bft) W-SW 244 0 min 0,000 mm 0,0 UV-I 12 W/m 6,9 C 7,2 C 20,9 km/h (4 Bft) 96,00 %
22.02.2017 17:22 10,2 C 80 % 1009,5 hPa 0,0 l/m 10,5 km/h (2 Bft) W 266 0 min 0,000 mm 0,0 UV-I 10 W/m 6,9 C 7,5 C 14,5 km/h (3 Bft) 94,34 %
22.02.2017 17:24 10,2 C 80 % 1009,5 hPa 0,0 l/m 11,1 km/h (2 Bft) W 262 0 min 0,000 mm 0,0 UV-I 9 W/m 6,9 C 7,2 C 16,1 km/h (3 Bft) 92,68 %
22.02.2017 17:26 10,2 C 79 % 1009,5 hPa 0,0 l/m 11,7 km/h (2 Bft) W-SW 249 0 min 0,000 mm 0,0 UV-I 9 W/m 6,7 C 6,9 C 16,1 km/h (3 Bft) 95,12 %
22.02.2017 17:28 10,2 C 79 % 1009,6 hPa 0,0 l/m 11,7 km/h (2 Bft) W 268 0 min 0,000 mm 0,0 UV-I 7 W/m 6,7 C 6,9 C 16,1 km/h (3 Bft) 90,57 %
22.02.2017 17:30 10,3 C 79 % 1009,5 hPa 0,0 l/m 8,7 km/h (2 Bft) W-SW 252 0 min 0,000 mm 0,0 UV-I 7 W/m 6,8 C 8,7 C 14,5 km/h (3 Bft) 92,00 %
22.02.2017 17:32 10,3 C 79 % 1009,5 hPa 0,0 l/m 9,9 km/h (2 Bft) W-SW 248 0 min 0,000 mm 0,0 UV-I 5 W/m 6,8 C 8,0 C 14,5 km/h (3 Bft) 97,37 %
22.02.2017 17:34 10,3 C 79 % 1009,5 hPa 0,0 l/m 12,5 km/h (3 Bft) W 263 0 min 0,000 mm 0,0 UV-I 5 W/m 6,8 C 6,6 C 17,7 km/h (3 Bft) 98,00 %
22.02.2017 17:36 10,3 C 79 % 1009,4 hPa 0,0 l/m 11,3 km/h (2 Bft) W-SW 244 0 min 0,000 mm 0,0 UV-I 5 W/m 6,8 C 7,2 C 16,1 km/h (3 Bft) 95,12 %
22.02.2017 17:38 10,3 C 79 % 1009,4 hPa 0,0 l/m 10,3 km/h (2 Bft) SW 229 0 min 0,000 mm 0,0 UV-I 5 W/m 6,8 C 7,8 C 16,1 km/h (3 Bft) 94,64 %
22.02.2017 17:40 10,3 C 79 % 1009,5 hPa 0,0 l/m 8,4 km/h (2 Bft) W-SW 257 0 min 0,000 mm 0,0 UV-I 1 W/m 6,8 C 8,9 C 12,9 km/h (3 Bft) 92,11 %
22.02.2017 17:42 10,3 C 79 % 1009,5 hPa 0,0 l/m 8,9 km/h (2 Bft) W-SW 242 0 min 0,000 mm 0,0 UV-I 0 W/m 6,8 C 8,6 C 12,9 km/h (3 Bft) 94,34 %
22.02.2017 17:44 10,2 C 79 % 1009,5 hPa 0,0 l/m 9,1 km/h (2 Bft) W-SW 238 0 min 0,000 mm 0,0 UV-I 0 W/m 6,7 C 8,4 C 12,9 km/h (3 Bft) 94,00 %
22.02.2017 17:46 10,2 C 79 % 1009,5 hPa 0,0 l/m 8,7 km/h (2 Bft) W-SW 240 0 min 0,000 mm 0,0 UV-I 0 W/m 6,7 C 8,6 C 14,5 km/h (3 Bft) 94,00 %
22.02.2017 17:48 10,2 C 79 % 1009,6 hPa 0,0 l/m 11,6 km/h (2 Bft) W-SW 251 0 min 0,000 mm 0,0 UV-I 0 W/m 6,7 C 6,9 C 19,3 km/h (3 Bft) 94,87 %
22.02.2017 17:50 10,2 C 79 % 1009,6 hPa 0,0 l/m 9,0 km/h (2 Bft) W-SW 249 0 min 0,000 mm 0,0 UV-I 0 W/m 6,7 C 8,4 C 12,9 km/h (3 Bft) 96,00 %
22.02.2017 17:52 10,2 C 79 % 1009,6 hPa 0,0 l/m 8,8 km/h (2 Bft) SW 233 0 min 0,000 mm 0,0 UV-I 0 W/m 6,7 C 8,5 C 12,9 km/h (3 Bft) 96,00 %
22.02.2017 17:54 10,2 C 79 % 1009,6 hPa 0,0 l/m 7,4 km/h (2 Bft) W-SW 254 0 min 0,000 mm 0,0 UV-I 0 W/m 6,7 C 9,5 C 11,3 km/h (2 Bft) 93,62 %
22.02.2017 17:56 10,2 C 79 % 1009,7 hPa 0,0 l/m 8,6 km/h (2 Bft) W-SW 257 0 min 0,000 mm 0,0 UV-I 0 W/m 6,7 C 8,7 C 12,9 km/h (3 Bft) 94,74 %
22.02.2017 17:58 10,1 C 79 % 1009,7 hPa 0,0 l/m 8,8 km/h (2 Bft) W 270 0 min 0,000 mm 0,0 UV-I 0 W/m 6,6 C 8,4 C 12,9 km/h (3 Bft) 91,07 %
22.02.2017 18:00 10,2 C 79 % 1009,7 hPa 0,0 l/m 9,5 km/h (2 Bft) W-SW 257 0 min 0,000 mm 0,0 UV-I 0 W/m 6,7 C 8,1 C 14,5 km/h (3 Bft) 94,74 %
22.02.2017 18:02 10,2 C 79 % 1009,7 hPa 0,0 l/m 10,7 km/h (2 Bft) W 260 0 min 0,025 mm 0,0 UV-I 0 W/m 6,7 C 7,4 C 16,1 km/h (3 Bft) 94,34 %
22.02.2017 18:04 10,2 C 78 % 1009,7 hPa 0,0 l/m 11,9 km/h (2 Bft) W 263 0 min 0,000 mm 0,0 UV-I 0 W/m 6,5 C 6,8 C 20,9 km/h (4 Bft) 95,12 %
22.02.2017 18:06 10,2 C 78 % 1009,7 hPa 0,0 l/m 11,0 km/h (2 Bft) W-SW 257 0 min 0,000 mm 0,0 UV-I 0 W/m 6,5 C 7,3 C 20,9 km/h (4 Bft) 93,62 %
22.02.2017 18:08 10,2 C 79 % 1009,8 hPa 0,0 l/m 10,2 km/h (2 Bft) W-SW 253 0 min 0,000 mm 0,0 UV-I 0 W/m 6,7 C 7,7 C 14,5 km/h (3 Bft) 95,74 %
22.02.2017 18:10 10,2 C 79 % 1009,8 hPa 0,0 l/m 11,4 km/h (2 Bft) W-SW 243 0 min 0,000 mm 0,0 UV-I 0 W/m 6,7 C 7,1 C 17,7 km/h (3 Bft) 87,50 %
22.02.2017 18:12 10,2 C 79 % 1009,8 hPa 0,0 l/m 9,6 km/h (2 Bft) W 259 0 min 0,000 mm 0,0 UV-I 0 W/m 6,7 C 8,0 C 14,5 km/h (3 Bft) 96,15 %
22.02.2017 18:14 10,1 C 79 % 1009,8 hPa 0,0 l/m 7,7 km/h (2 Bft) W 266 0 min 0,000 mm 0,0 UV-I 0 W/m 6,6 C 9,2 C 12,9 km/h (3 Bft) 95,38 %
22.02.2017 18:16 10,1 C 80 % 1009,8 hPa 0,0 l/m 9,3 km/h (2 Bft) W-SW 238 0 min 0,000 mm 0,0 UV-I 0 W/m 6,8 C 8,1 C 12,9 km/h (3 Bft) 86,00 %
22.02.2017 18:18 10,0 C 80 % 1009,8 hPa 0,0 l/m 9,8 km/h (2 Bft) W 261 0 min 0,000 mm 0,0 UV-I 0 W/m 6,7 C 7,7 C 14,5 km/h (3 Bft) 91,49 %
22.02.2017 18:20 10,0 C 80 % 1009,8 hPa 0,0 l/m 9,4 km/h (2 Bft) W-SW 258 0 min 0,000 mm 0,0 UV-I 0 W/m 6,7 C 8,0 C 14,5 km/h (3 Bft) 85,71 %
22.02.2017 18:22 10,0 C 79 % 1009,8 hPa 0,0 l/m 10,8 km/h (2 Bft) W-SW 241 0 min 0,000 mm 0,0 UV-I 0 W/m 6,5 C 7,1 C 16,1 km/h (3 Bft) 96,00 %
22.02.2017 18:24 10,0 C 79 % 1009,9 hPa 0,0 l/m 7,8 km/h (2 Bft) W-SW 248 0 min 0,000 mm 0,0 UV-I 0 W/m 6,5 C 9,0 C 12,9 km/h (3 Bft) 92,86 %
22.02.2017 18:26 10,0 C 80 % 1009,9 hPa 0,0 l/m 7,9 km/h (2 Bft) W-SW 252 0 min 0,000 mm 0,0 UV-I 0 W/m 6,7 C 8,9 C 12,9 km/h (3 Bft) 94,64 %
22.02.2017 18:28 10,0 C 79 % 1009,8 hPa 0,0 l/m 5,8 km/h (2 Bft) W-SW 242 0 min 0,000 mm 0,0 UV-I 0 W/m 6,5 C 10,0 C 9,7 km/h (2 Bft) 94,74 %
22.02.2017 18:30 10,0 C 80 % 1009,8 hPa 0,0 l/m 9,0 km/h (2 Bft) SW 236 0 min 0,000 mm 0,0 UV-I 0 W/m 6,7 C 8,2 C 14,5 km/h (3 Bft) 91,07 %
22.02.2017 18:32 10,0 C 79 % 1009,7 hPa 0,0 l/m 6,9 km/h (2 Bft) W-SW 237 0 min 0,000 mm 0,0 UV-I 0 W/m 6,5 C 9,6 C 16,1 km/h (3 Bft) 88,00 %
22.02.2017 18:34 10,0 C 79 % 1009,7 hPa 0,0 l/m 8,6 km/h (2 Bft) W 267 0 min 0,000 mm 0,0 UV-I 0 W/m 6,5 C 8,5 C 16,1 km/h (3 Bft) 97,37 %
22.02.2017 18:36 10,0 C 80 % 1009,8 hPa 0,0 l/m 7,5 km/h (2 Bft) W-SW 254 0 min 0,000 mm 0,0 UV-I 0 W/m 6,7 C 9,2 C 12,9 km/h (3 Bft) 91,07 %
22.02.2017 18:38 9,9 C 80 % 1009,8 hPa 0,0 l/m 7,0 km/h (2 Bft) W-SW 250 0 min 0,000 mm 0,0 UV-I 0 W/m 6,6 C 9,5 C 11,3 km/h (2 Bft) 86,84 %
22.02.2017 18:40 9,9 C 80 % 1009,7 hPa 0,0 l/m 6,1 km/h (2 Bft) SW 228 0 min 0,000 mm 0,0 UV-I 0 W/m 6,6 C 9,9 C 12,9 km/h (3 Bft) 92,45 %
22.02.2017 18:42 9,9 C 80 % 1009,7 hPa 0,0 l/m 6,2 km/h (2 Bft) W-SW 255 0 min 0,000 mm 0,0 UV-I 0 W/m 6,6 C 9,9 C 9,7 km/h (2 Bft) 86,84 %
22.02.2017 18:44 9,9 C 80 % 1009,7 hPa 0,0 l/m 7,4 km/h (2 Bft) SW 218 0 min 0,000 mm 0,0 UV-I 0 W/m 6,6 C 9,2 C 11,3 km/h (2 Bft) 96,15 %
22.02.2017 18:46 9,9 C 80 % 1009,7 hPa 0,0 l/m 8,1 km/h (2 Bft) W-SW 245 0 min 0,000 mm 0,0 UV-I 0 W/m 6,6 C 8,7 C 9,7 km/h (2 Bft) 96,23 %
22.02.2017 18:48 9,9 C 80 % 1009,6 hPa 0,0 l/m 7,5 km/h (2 Bft) W 266 0 min 0,000 mm 0,0 UV-I 0 W/m 6,6 C 9,1 C 11,3 km/h (2 Bft) 97,56 %
22.02.2017 18:50 9,9 C 80 % 1009,6 hPa 0,0 l/m 7,5 km/h (2 Bft) SW 224 0 min 0,000 mm 0,0 UV-I 0 W/m 6,6 C 9,1 C 11,3 km/h (2 Bft) 98,11 %
22.02.2017 18:52 9,8 C 81 % 1009,6 hPa 0,0 l/m 7,7 km/h (2 Bft) W-SW 248 0 min 0,000 mm 0,0 UV-I 0 W/m 6,7 C 8,9 C 14,5 km/h (3 Bft) 97,37 %
22.02.2017 18:54 9,8 C 80 % 1009,6 hPa 0,0 l/m 7,8 km/h (2 Bft) SW 215 0 min 0,000 mm 0,0 UV-I 0 W/m 6,5 C 8,8 C 12,9 km/h (3 Bft) 97,87 %
22.02.2017 18:56 9,8 C 81 % 1009,6 hPa 0,0 l/m 8,3 km/h (2 Bft) SW 232 0 min 0,000 mm 0,0 UV-I 0 W/m 6,7 C 8,4 C 11,3 km/h (2 Bft) 96,23 %
22.02.2017 18:58 9,8 C 81 % 1009,6 hPa 0,0 l/m 10,2 km/h (2 Bft) S 188 0 min 0,000 mm 0,0 UV-I 0 W/m 6,7 C 7,3 C 16,1 km/h (3 Bft) 95,12 %
22.02.2017 19:00 9,8 C 81 % 1009,5 hPa 0,0 l/m 8,7 km/h (2 Bft) SW 234 0 min 0,025 mm 0,0 UV-I 0 W/m 6,7 C 8,2 C 12,9 km/h (3 Bft) 96,23 %
22.02.2017 19:02 9,8 C 81 % 1009,5 hPa 0,0 l/m 9,3 km/h (2 Bft) SW 224 0 min 0,000 mm 0,0 UV-I 0 W/m 6,7 C 7,8 C 14,5 km/h (3 Bft) 94,87 %
22.02.2017 19:04 9,8 C 81 % 1009,5 hPa 0,0 l/m 10,9 km/h (2 Bft) SW 236 0 min 0,000 mm 0,0 UV-I 0 W/m 6,7 C 6,9 C 14,5 km/h (3 Bft) 95,45 %
22.02.2017 19:06 9,8 C 81 % 1009,4 hPa 0,0 l/m 9,5 km/h (2 Bft) SW 231 0 min 0,000 mm 0,0 UV-I 0 W/m 6,7 C 7,7 C 17,7 km/h (3 Bft) 96,30 %
22.02.2017 19:08 9,8 C 81 % 1009,4 hPa 0,0 l/m 9,5 km/h (2 Bft) SW 222 0 min 0,000 mm 0,0 UV-I 0 W/m 6,7 C 7,7 C 14,5 km/h (3 Bft) 98,11 %
22.02.2017 19:10 9,8 C 81 % 1009,4 hPa 0,0 l/m 11,7 km/h (2 Bft) SW 235 0 min 0,000 mm 0,0 UV-I 0 W/m 6,7 C 6,4 C 16,1 km/h (3 Bft) 97,37 %
22.02.2017 19:12 9,8 C 81 % 1009,3 hPa 0,0 l/m 10,7 km/h (2 Bft) SW 217 0 min 0,000 mm 0,0 UV-I 0 W/m 6,7 C 7,0 C 14,5 km/h (3 Bft) 97,73 %
22.02.2017 19:14 9,8 C 81 % 1009,3 hPa 0,0 l/m 10,9 km/h (2 Bft) SW 217 0 min 0,000 mm 0,0 UV-I 0 W/m 6,7 C 6,9 C 14,5 km/h (3 Bft) 96,43 %
22.02.2017 19:16 9,7 C 81 % 1009,2 hPa 0,0 l/m 9,2 km/h (2 Bft) W-SW 249 0 min 0,000 mm 0,0 UV-I 0 W/m 6,6 C 7,7 C 12,9 km/h (3 Bft) 94,29 %
22.02.2017 19:18 9,7 C 81 % 1009,2 hPa 0,0 l/m 13,8 km/h (3 Bft) W-SW 241 0 min 0,000 mm 0,0 UV-I 0 W/m 6,6 C 5,3 C 19,3 km/h (3 Bft) 92,00 %
22.02.2017 19:20 9,8 C 81 % 1009,3 hPa 0,0 l/m 11,5 km/h (2 Bft) W-SW 257 0 min 0,000 mm 0,0 UV-I 0 W/m 6,7 C 6,5 C 17,7 km/h (3 Bft) 92,00 %
22.02.2017 19:22 9,8 C 81 % 1009,3 hPa 0,0 l/m 12,4 km/h (3 Bft) W 261 0 min 0,000 mm 0,0 UV-I 0 W/m 6,7 C 6,1 C 19,3 km/h (3 Bft) 95,45 %
22.02.2017 19:24 9,8 C 80 % 1009,4 hPa 0,0 l/m 15,7 km/h (3 Bft) W 261 0 min 0,000 mm 0,0 UV-I 0 W/m 6,5 C 4,6 C 20,9 km/h (4 Bft) 98,11 %
22.02.2017 19:26 9,8 C 80 % 1009,4 hPa 0,0 l/m 12,1 km/h (2 Bft) W-SW 249 0 min 0,000 mm 0,0 UV-I 0 W/m 6,5 C 6,2 C 17,7 km/h (3 Bft) 95,45 %
22.02.2017 19:28 9,9 C 79 % 1009,5 hPa 0,0 l/m 14,4 km/h (3 Bft) W-SW 255 0 min 0,000 mm 0,0 UV-I 0 W/m 6,4 C 5,3 C 22,5 km/h (4 Bft) 96,00 %
22.02.2017 19:30 9,9 C 79 % 1009,5 hPa 0,0 l/m 15,0 km/h (3 Bft) W-SW 247 0 min 0,000 mm 0,0 UV-I 0 W/m 6,4 C 5,0 C 20,9 km/h (4 Bft) 95,12 %
22.02.2017 19:32 10,0 C 79 % 1009,5 hPa 0,0 l/m 13,3 km/h (3 Bft) W 261 0 min 0,000 mm 0,0 UV-I 0 W/m 6,5 C 5,9 C 20,9 km/h (4 Bft) 94,00 %
22.02.2017 19:34 10,1 C 78 % 1009,5 hPa 0,0 l/m 14,5 km/h (3 Bft) W-SW 257 0 min 0,000 mm 0,0 UV-I 0 W/m 6,4 C 5,5 C 19,3 km/h (3 Bft) 95,74 %
22.02.2017 19:36 10,1 C 78 % 1009,5 hPa 0,0 l/m 14,7 km/h (3 Bft) SW 221 0 min 0,000 mm 0,0 UV-I 0 W/m 6,4 C 5,4 C 20,9 km/h (4 Bft) 95,74 %
22.02.2017 19:38 10,1 C 78 % 1009,5 hPa 0,0 l/m 13,4 km/h (3 Bft) W-SW 254 0 min 0,000 mm 0,0 UV-I 0 W/m 6,4 C 6,0 C 17,7 km/h (3 Bft) 92,31 %
22.02.2017 19:40 10,2 C 78 % 1009,4 hPa 0,0 l/m 12,9 km/h (3 Bft) W-SW 254 0 min 0,000 mm 0,0 UV-I 0 W/m 6,5 C 6,3 C 20,9 km/h (4 Bft) 92,31 %
22.02.2017 19:42 10,2 C 77 % 1009,5 hPa 0,0 l/m 13,0 km/h (3 Bft) W-SW 252 0 min 0,000 mm 0,0 UV-I 0 W/m 6,4 C 6,3 C 19,3 km/h (3 Bft) 100,00 %
22.02.2017 19:44 10,2 C 77 % 1009,4 hPa 0,0 l/m 14,0 km/h (3 Bft) W 272 0 min 0,000 mm 0,0 UV-I 0 W/m 6,4 C 5,8 C 20,9 km/h (4 Bft) 94,55 %
22.02.2017 19:46 10,2 C 76 % 1009,4 hPa 0,0 l/m 17,9 km/h (3 Bft) W-SW 257 0 min 0,000 mm 0,0 UV-I 0 W/m 6,2 C 4,3 C 32,2 km/h (5 Bft) 95,83 %
22.02.2017 19:48 10,3 C 76 % 1009,4 hPa 0,0 l/m 13,0 km/h (3 Bft) SW 236 0 min 0,000 mm 0,0 UV-I 0 W/m 6,3 C 6,4 C 19,3 km/h (3 Bft) 96,00 %
22.02.2017 19:50 10,3 C 75 % 1009,4 hPa 0,0 l/m 15,4 km/h (3 Bft) W-SW 253 0 min 0,000 mm 0,0 UV-I 0 W/m 6,1 C 5,3 C 24,1 km/h (4 Bft) 95,12 %
22.02.2017 19:52 10,3 C 75 % 1009,4 hPa 0,0 l/m 10,9 km/h (2 Bft) W 261 0 min 0,000 mm 0,0 UV-I 0 W/m 6,1 C 7,4 C 16,1 km/h (3 Bft) 97,73 %
22.02.2017 19:54 10,3 C 75 % 1009,4 hPa 0,0 l/m 11,5 km/h (2 Bft) W 273 0 min 0,000 mm 0,0 UV-I 0 W/m 6,1 C 7,1 C 17,7 km/h (3 Bft) 94,34 %
22.02.2017 19:56 10,3 C 75 % 1009,5 hPa 0,0 l/m 11,7 km/h (2 Bft) SW 218 0 min 0,000 mm 0,0 UV-I 0 W/m 6,1 C 7,0 C 17,7 km/h (3 Bft) 95,12 %
22.02.2017 19:58 10,3 C 75 % 1009,4 hPa 0,0 l/m 14,7 km/h (3 Bft) SW 229 0 min 0,000 mm 0,0 UV-I 0 W/m 6,1 C 5,6 C 20,9 km/h (4 Bft) 100,00 %
22.02.2017 20:00 10,3 C 75 % 1009,5 hPa 0,0 l/m 12,3 km/h (3 Bft) W-SW 242 0 min 0,000 mm 0,0 UV-I 0 W/m 6,1 C 6,7 C 22,5 km/h (4 Bft) 92,45 %
22.02.2017 20:02 10,3 C 75 % 1009,5 hPa 0,0 l/m 14,3 km/h (3 Bft) W-SW 250 0 min 0,026 mm 0,0 UV-I 0 W/m 6,1 C 5,8 C 19,3 km/h (3 Bft) 94,74 %
22.02.2017 20:04 10,3 C 75 % 1009,5 hPa 0,0 l/m 10,9 km/h (2 Bft) SW 231 0 min 0,000 mm 0,0 UV-I 0 W/m 6,1 C 7,4 C 14,5 km/h (3 Bft) 92,45 %
22.02.2017 20:06 10,3 C 75 % 1009,5 hPa 0,0 l/m 13,5 km/h (3 Bft) W-SW 246 0 min 0,000 mm 0,0 UV-I 0 W/m 6,1 C 6,1 C 20,9 km/h (4 Bft) 97,56 %
22.02.2017 20:08 10,3 C 75 % 1009,4 hPa 0,0 l/m 12,1 km/h (2 Bft) SW 217 0 min 0,000 mm 0,0 UV-I 0 W/m 6,1 C 6,8 C 19,3 km/h (3 Bft) 96,00 %
22.02.2017 20:10 10,3 C 75 % 1009,4 hPa 0,0 l/m 11,1 km/h (2 Bft) S-SW 210 0 min 0,000 mm 0,0 UV-I 0 W/m 6,1 C 7,3 C 16,1 km/h (3 Bft) 87,10 %
22.02.2017 20:12 10,3 C 75 % 1009,5 hPa 0,0 l/m 12,0 km/h (2 Bft) W-SW 245 0 min 0,000 mm 0,0 UV-I 0 W/m 6,1 C 6,9 C 17,7 km/h (3 Bft) 92,86 %
22.02.2017 20:14 10,3 C 75 % 1009,5 hPa 0,0 l/m 10,6 km/h (2 Bft) W-SW 256 0 min 0,000 mm 0,0 UV-I 0 W/m 6,1 C 7,6 C 17,7 km/h (3 Bft) 96,43 %
22.02.2017 20:16 10,3 C 76 % 1009,5 hPa 0,0 l/m 8,9 km/h (2 Bft) W-SW 242 0 min 0,000 mm 0,0 UV-I 0 W/m 6,3 C 8,6 C 14,5 km/h (3 Bft) 94,44 %
22.02.2017 20:18 10,2 C 76 % 1009,5 hPa 0,0 l/m 7,7 km/h (2 Bft) W-SW 238 0 min 0,000 mm 0,0 UV-I 0 W/m 6,2 C 9,3 C 12,9 km/h (3 Bft) 93,18 %
22.02.2017 20:20 10,2 C 76 % 1009,4 hPa 0,0 l/m 8,4 km/h (2 Bft) W-SW 257 0 min 0,000 mm 0,0 UV-I 0 W/m 6,2 C 8,8 C 14,5 km/h (3 Bft) 90,91 %
22.02.2017 20:22 10,1 C 76 % 1009,4 hPa 0,0 l/m 8,4 km/h (2 Bft) W-SW 248 0 min 0,000 mm 0,0 UV-I 0 W/m 6,1 C 8,7 C 14,5 km/h (3 Bft) 89,74 %
22.02.2017 20:24 10,1 C 76 % 1009,4 hPa 0,0 l/m 11,1 km/h (2 Bft) W 260 0 min 0,000 mm 0,0 UV-I 0 W/m 6,1 C 7,1 C 16,1 km/h (3 Bft) 93,22 %
22.02.2017 20:26 10,1 C 76 % 1009,4 hPa 0,0 l/m 13,6 km/h (3 Bft) SW 224 0 min 0,000 mm 0,0 UV-I 0 W/m 6,1 C 5,9 C 20,9 km/h (4 Bft) 95,12 %
22.02.2017 20:28 10,1 C 76 % 1009,3 hPa 0,0 l/m 8,3 km/h (2 Bft) SW 235 0 min 0,000 mm 0,0 UV-I 0 W/m 6,1 C 8,8 C 14,5 km/h (3 Bft) 92,00 %
22.02.2017 20:30 10,1 C 76 % 1009,4 hPa 0,0 l/m 7,9 km/h (2 Bft) SW 216 0 min 0,000 mm 0,0 UV-I 0 W/m 6,1 C 9,0 C 12,9 km/h (3 Bft) 90,00 %
22.02.2017 20:32 10,1 C 76 % 1009,3 hPa 0,0 l/m 8,1 km/h (2 Bft) SW 225 0 min 0,000 mm 0,0 UV-I 0 W/m 6,1 C 8,9 C 14,5 km/h (3 Bft) 94,00 %
22.02.2017 20:34 10,1 C 76 % 1009,4 hPa 0,0 l/m 10,1 km/h (2 Bft) W-SW 242 0 min 0,000 mm 0,0 UV-I 0 W/m 6,1 C 7,6 C 17,7 km/h (3 Bft) 90,91 %
22.02.2017 20:36 10,1 C 76 % 1009,3 hPa 0,0 l/m 7,8 km/h (2 Bft) SW 222 0 min 0,000 mm 0,0 UV-I 0 W/m 6,1 C 9,1 C 11,3 km/h (2 Bft) 94,74 %
22.02.2017 20:38 10,1 C 76 % 1009,3 hPa 0,0 l/m 9,1 km/h (2 Bft) W-SW 242 0 min 0,000 mm 0,0 UV-I 0 W/m 6,1 C 8,2 C 12,9 km/h (3 Bft) 92,45 %
22.02.2017 20:40 10,1 C 76 % 1009,2 hPa 0,0 l/m 7,0 km/h (2 Bft) SW 231 0 min 0,000 mm 0,0 UV-I 0 W/m 6,1 C 9,7 C 11,3 km/h (2 Bft) 90,24 %
22.02.2017 20:42 10,0 C 76 % 1009,2 hPa 0,0 l/m 8,5 km/h (2 Bft) SW 223 0 min 0,000 mm 0,0 UV-I 0 W/m 6,0 C 8,5 C 14,5 km/h (3 Bft) 94,34 %
22.02.2017 20:44 10,0 C 77 % 1009,2 hPa 0,0 l/m 8,5 km/h (2 Bft) W-SW 238 0 min 0,000 mm 0,0 UV-I 0 W/m 6,2 C 8,5 C 17,7 km/h (3 Bft) 94,00 %
22.02.2017 20:46 9,9 C 76 % 1009,3 hPa 0,0 l/m 10,9 km/h (2 Bft) W-SW 248 0 min 0,000 mm 0,0 UV-I 0 W/m 5,9 C 7,0 C 14,5 km/h (3 Bft) 97,37 %
22.02.2017 20:48 10,0 C 76 % 1009,2 hPa 0,0 l/m 9,8 km/h (2 Bft) SW 232 0 min 0,000 mm 0,0 UV-I 0 W/m 6,0 C 7,7 C 16,1 km/h (3 Bft) 95,74 %
22.02.2017 20:50 10,0 C 76 % 1009,3 hPa 0,0 l/m 9,8 km/h (2 Bft) S-SW 200 0 min 0,000 mm 0,0 UV-I 0 W/m 6,0 C 7,7 C 16,1 km/h (3 Bft) 89,36 %
22.02.2017 20:52 10,0 C 76 % 1009,2 hPa 0,0 l/m 9,6 km/h (2 Bft) S-SW 198 0 min 0,000 mm 0,0 UV-I 0 W/m 6,0 C 7,8 C 14,5 km/h (3 Bft) 94,34 %
22.02.2017 20:54 10,0 C 76 % 1009,2 hPa 0,0 l/m 9,0 km/h (2 Bft) SW 235 0 min 0,000 mm 0,0 UV-I 0 W/m 6,0 C 8,2 C 12,9 km/h (3 Bft) 97,73 %
22.02.2017 20:56 10,0 C 77 % 1009,2 hPa 0,0 l/m 9,7 km/h (2 Bft) S 186 0 min 0,000 mm 0,0 UV-I 0 W/m 6,2 C 7,8 C 14,5 km/h (3 Bft) 94,34 %
22.02.2017 20:58 10,0 C 76 % 1009,2 hPa 0,0 l/m 8,1 km/h (2 Bft) W-SW 240 0 min 0,000 mm 0,0 UV-I 0 W/m 6,0 C 8,8 C 12,9 km/h (3 Bft) 95,74 %
22.02.2017 21:00 10,0 C 76 % 1009,3 hPa 0,0 l/m 9,2 km/h (2 Bft) SW 223 0 min 0,025 mm 0,0 UV-I 0 W/m 6,0 C 8,1 C 14,5 km/h (3 Bft) 97,87 %
22.02.2017 21:03 10,0 C 76 % 1009,3 hPa 0,0 l/m 8,6 km/h (2 Bft) S-SW 207 0 min 0,000 mm 0,0 UV-I 0 W/m 6,0 C 8,5 C 14,5 km/h (3 Bft) 97,18 %
22.02.2017 21:04 10,0 C 76 % 1009,3 hPa 0,0 l/m 6,6 km/h (2 Bft) W-SW 246 0 min 0,000 mm 0,0 UV-I 0 W/m 6,0 C 9,9 C 8,0 km/h (2 Bft) 100,00 %
22.02.2017 21:06 10,0 C 76 % 1009,3 hPa 0,0 l/m 9,6 km/h (2 Bft) SW 225 0 min 0,000 mm 0,0 UV-I 0 W/m 6,0 C 7,8 C 16,1 km/h (3 Bft) 94,64 %
22.02.2017 21:08 10,0 C 76 % 1009,3 hPa 0,0 l/m 10,4 km/h (2 Bft) SW 221 0 min 0,000 mm 0,0 UV-I 0 W/m 6,0 C 7,4 C 14,5 km/h (3 Bft) 97,37 %
22.02.2017 21:10 10,0 C 76 % 1009,3 hPa 0,0 l/m 11,6 km/h (2 Bft) SW 235 0 min 0,000 mm 0,0 UV-I 0 W/m 6,0 C 6,7 C 16,1 km/h (3 Bft) 97,56 %
22.02.2017 21:12 10,0 C 76 % 1009,3 hPa 0,0 l/m 13,4 km/h (3 Bft) SW 226 0 min 0,000 mm 0,0 UV-I 0 W/m 6,0 C 5,8 C 20,9 km/h (4 Bft) 96,23 %
22.02.2017 21:14 10,0 C 76 % 1009,3 hPa 0,0 l/m 9,5 km/h (2 Bft) W-SW 256 0 min 0,000 mm 0,0 UV-I 0 W/m 6,0 C 7,9 C 14,5 km/h (3 Bft) 98,00 %
22.02.2017 21:16 10,0 C 76 % 1009,3 hPa 0,0 l/m 11,0 km/h (2 Bft) SW 221 0 min 0,000 mm 0,0 UV-I 0 W/m 6,0 C 7,0 C 17,7 km/h (3 Bft) 94,74 %
22.02.2017 21:18 10,0 C 76 % 1009,2 hPa 0,0 l/m 11,5 km/h (2 Bft) SW 234 0 min 0,000 mm 0,0 UV-I 0 W/m 6,0 C 6,8 C 20,9 km/h (4 Bft) 98,31 %
22.02.2017 21:20 10,1 C 76 % 1009,3 hPa 0,0 l/m 7,8 km/h (2 Bft) W-SW 244 0 min 0,000 mm 0,0 UV-I 0 W/m 6,1 C 9,1 C 12,9 km/h (3 Bft) 88,57 %
22.02.2017 21:22 10,0 C 76 % 1009,3 hPa 0,0 l/m 9,6 km/h (2 Bft) SW 232 0 min 0,000 mm 0,0 UV-I 0 W/m 6,0 C 7,8 C 17,7 km/h (3 Bft) 98,21 %
22.02.2017 21:24 10,1 C 75 % 1009,2 hPa 0,0 l/m 9,1 km/h (2 Bft) W-SW 258 0 min 0,000 mm 0,0 UV-I 0 W/m 5,9 C 8,2 C 16,1 km/h (3 Bft) 88,46 %
22.02.2017 21:26 10,1 C 76 % 1009,3 hPa 0,0 l/m 8,7 km/h (2 Bft) SW 226 0 min 0,000 mm 0,0 UV-I 0 W/m 6,1 C 8,5 C 14,5 km/h (3 Bft) 98,46 %
22.02.2017 21:28 10,1 C 75 % 1009,2 hPa 0,0 l/m 10,2 km/h (2 Bft) W 273 0 min 0,000 mm 0,0 UV-I 0 W/m 5,9 C 7,6 C 17,7 km/h (3 Bft) 97,87 %
22.02.2017 21:30 10,2 C 75 % 1009,3 hPa 0,0 l/m 12,5 km/h (3 Bft) W 260 0 min 0,000 mm 0,0 UV-I 0 W/m 6,0 C 6,5 C 17,7 km/h (3 Bft) 97,87 %
22.02.2017 21:32 10,2 C 75 % 1009,3 hPa 0,0 l/m 11,1 km/h (2 Bft) W 277 0 min 0,000 mm 0,0 UV-I 0 W/m 6,0 C 7,2 C 16,1 km/h (3 Bft) 94,34 %
22.02.2017 21:34 10,3 C 74 % 1009,3 hPa 0,0 l/m 13,6 km/h (3 Bft) W 260 0 min 0,000 mm 0,0 UV-I 0 W/m 5,9 C 6,1 C 19,3 km/h (3 Bft) 92,68 %
22.02.2017 21:36 10,3 C 74 % 1009,3 hPa 0,0 l/m 11,0 km/h (2 Bft) W 266 0 min 0,000 mm 0,0 UV-I 0 W/m 5,9 C 7,4 C 17,7 km/h (3 Bft) 98,00 %
22.02.2017 21:38 10,3 C 74 % 1009,3 hPa 0,0 l/m 12,2 km/h (2 Bft) W-NW 297 0 min 0,000 mm 0,0 UV-I 0 W/m 5,9 C 6,8 C 17,7 km/h (3 Bft) 97,56 %
22.02.2017 21:40 10,3 C 74 % 1009,4 hPa 0,0 l/m 11,7 km/h (2 Bft) W-SW 253 0 min 0,000 mm 0,0 UV-I 0 W/m 5,9 C 7,0 C 16,1 km/h (3 Bft) 95,24 %
22.02.2017 21:42 10,4 C 73 % 1009,5 hPa 0,0 l/m 17,5 km/h (3 Bft) W 265 0 min 0,000 mm 0,0 UV-I 0 W/m 5,8 C 4,7 C 25,7 km/h (4 Bft) 94,64 %
22.02.2017 21:44 10,4 C 73 % 1009,4 hPa 0,0 l/m 12,2 km/h (2 Bft) W-SW 246 0 min 0,000 mm 0,0 UV-I 0 W/m 5,8 C 6,9 C 19,3 km/h (3 Bft) 97,14 %
22.02.2017 21:46 10,5 C 73 % 1009,4 hPa 0,0 l/m 13,3 km/h (3 Bft) W-SW 242 0 min 0,000 mm 0,0 UV-I 0 W/m 5,9 C 6,5 C 16,1 km/h (3 Bft) 91,07 %
22.02.2017 21:48 10,5 C 73 % 1009,4 hPa 0,0 l/m 9,1 km/h (2 Bft) W 276 0 min 0,000 mm 0,0 UV-I 0 W/m 5,9 C 8,7 C 14,5 km/h (3 Bft) 97,73 %
22.02.2017 21:50 10,5 C 73 % 1009,4 hPa 0,0 l/m 11,9 km/h (2 Bft) W 279 0 min 0,000 mm 0,0 UV-I 0 W/m 5,9 C 7,1 C 19,3 km/h (3 Bft) 98,21 %
22.02.2017 21:52 10,5 C 73 % 1009,3 hPa 0,0 l/m 14,4 km/h (3 Bft) W-SW 238 0 min 0,000 mm 0,0 UV-I 0 W/m 5,9 C 6,0 C 20,9 km/h (4 Bft) 97,56 %
22.02.2017 21:54 10,5 C 73 % 1009,2 hPa 0,0 l/m 13,8 km/h (3 Bft) W 259 0 min 0,000 mm 0,0 UV-I 0 W/m 5,9 C 6,3 C 22,5 km/h (4 Bft) 96,15 %
22.02.2017 21:56 10,5 C 73 % 1009,1 hPa 0,0 l/m 19,4 km/h (3 Bft) W 271 0 min 0,000 mm 0,0 UV-I 0 W/m 5,9 C 4,1 C 30,6 km/h (5 Bft) 96,92 %
22.02.2017 21:58 10,6 C 72 % 1009,1 hPa 0,0 l/m 19,2 km/h (3 Bft) SW 228 0 min 0,000 mm 0,0 UV-I 0 W/m 5,8 C 4,3 C 30,6 km/h (5 Bft) 98,11 %
22.02.2017 22:00 10,6 C 72 % 1009,1 hPa 0,0 l/m 19,0 km/h (3 Bft) W 273 0 min 0,000 mm 0,0 UV-I 0 W/m 5,8 C 4,4 C 27,4 km/h (4 Bft) 97,73 %
22.02.2017 22:02 10,7 C 72 % 1009,1 hPa 0,0 l/m 18,4 km/h (3 Bft) W-SW 238 0 min 0,026 mm 0,0 UV-I 0 W/m 5,9 C 4,7 C 25,7 km/h (4 Bft) 94,34 %
22.02.2017 22:04 10,7 C 71 % 1008,9 hPa 0,0 l/m 27,2 km/h (4 Bft) W-SW 253 0 min 0,000 mm 0,0 UV-I 0 W/m 5,7 C 2,3 C 45,1 km/h (6 Bft) 97,56 %
22.02.2017 22:06 10,7 C 71 % 1009,0 hPa 0,0 l/m 24,1 km/h (4 Bft) W-SW 258 0 min 0,000 mm 0,0 UV-I 0 W/m 5,7 C 3,0 C 33,8 km/h (5 Bft) 97,87 %
22.02.2017 22:08 10,8 C 71 % 1008,9 hPa 0,0 l/m 20,8 km/h (4 Bft) W 263 0 min 0,000 mm 0,0 UV-I 0 W/m 5,8 C 4,1 C 48,3 km/h (6 Bft) 96,00 %
22.02.2017 22:10 10,8 C 71 % 1008,9 hPa 0,0 l/m 20,0 km/h (4 Bft) SW 225 0 min 0,000 mm 0,0 UV-I 0 W/m 5,8 C 4,3 C 30,6 km/h (5 Bft) 94,74 %
22.02.2017 22:12 10,8 C 72 % 1008,9 hPa 0,0 l/m 17,5 km/h (3 Bft) S-SW 201 0 min 0,000 mm 0,0 UV-I 0 W/m 6,0 C 5,2 C 25,7 km/h (4 Bft) 88,68 %
22.02.2017 22:14 10,7 C 72 % 1008,9 hPa 0,0 l/m 16,6 km/h (3 Bft) W 263 0 min 0,000 mm 0,0 UV-I 0 W/m 5,9 C 5,4 C 25,7 km/h (4 Bft) 97,37 %
22.02.2017 22:16 10,7 C 72 % 1009,1 hPa 0,0 l/m 21,2 km/h (4 Bft) SW 235 0 min 0,000 mm 0,0 UV-I 0 W/m 5,9 C 3,8 C 32,2 km/h (5 Bft) 98,00 %
22.02.2017 22:18 10,7 C 72 % 1009,1 hPa 0,0 l/m 17,8 km/h (3 Bft) W 259 0 min 0,000 mm 0,0 UV-I 0 W/m 5,9 C 4,9 C 24,1 km/h (4 Bft) 92,16 %
22.02.2017 22:20 10,7 C 72 % 1009,1 hPa 0,0 l/m 19,7 km/h (3 Bft) W-SW 251 0 min 0,000 mm 0,0 UV-I 0 W/m 5,9 C 4,3 C 33,8 km/h (5 Bft) 92,68 %
22.02.2017 22:22 10,7 C 72 % 1009,1 hPa 0,0 l/m 19,2 km/h (3 Bft) W-SW 240 0 min 0,000 mm 0,0 UV-I 0 W/m 5,9 C 4,4 C 29,0 km/h (5 Bft) 94,55 %
22.02.2017 22:24 10,7 C 72 % 1009,2 hPa 0,0 l/m 18,9 km/h (3 Bft) SW 222 0 min 0,000 mm 0,0 UV-I 0 W/m 5,9 C 4,5 C 32,2 km/h (5 Bft) 93,33 %
22.02.2017 22:26 10,7 C 72 % 1009,2 hPa 0,0 l/m 18,9 km/h (3 Bft) SW 226 0 min 0,000 mm 0,0 UV-I 0 W/m 5,9 C 4,5 C 25,7 km/h (4 Bft) 90,24 %
22.02.2017 22:28 10,7 C 72 % 1009,0 hPa 0,0 l/m 21,1 km/h (4 Bft) W 259 0 min 0,000 mm 0,0 UV-I 0 W/m 5,9 C 3,9 C 29,0 km/h (5 Bft) 96,23 %
22.02.2017 22:30 10,7 C 72 % 1008,9 hPa 0,0 l/m 18,7 km/h (3 Bft) W-SW 250 0 min 0,000 mm 0,0 UV-I 0 W/m 5,9 C 4,6 C 27,4 km/h (4 Bft) 95,74 %
22.02.2017 22:32 10,6 C 72 % 1008,9 hPa 0,0 l/m 17,9 km/h (3 Bft) W-SW 243 0 min 0,000 mm 0,0 UV-I 0 W/m 5,8 C 4,8 C 29,0 km/h (5 Bft) 94,00 %
22.02.2017 22:34 10,6 C 72 % 1008,9 hPa 0,0 l/m 19,5 km/h (3 Bft) W-SW 257 0 min 0,000 mm 0,0 UV-I 0 W/m 5,8 C 4,2 C 27,4 km/h (4 Bft) 90,24 %
22.02.2017 22:36 10,5 C 72 % 1009,0 hPa 0,0 l/m 16,1 km/h (3 Bft) W-SW 258 0 min 0,000 mm 0,0 UV-I 0 W/m 5,7 C 5,3 C 22,5 km/h (4 Bft) 94,00 %
22.02.2017 22:38 10,5 C 73 % 1009,1 hPa 0,0 l/m 16,0 km/h (3 Bft) W 259 0 min 0,000 mm 0,0 UV-I 0 W/m 5,9 C 5,3 C 24,1 km/h (4 Bft) 95,45 %
22.02.2017 22:40 10,4 C 73 % 1009,1 hPa 0,0 l/m 21,4 km/h (4 Bft) SW 233 0 min 0,000 mm 0,0 UV-I 0 W/m 5,8 C 3,4 C 29,0 km/h (5 Bft) 93,62 %
22.02.2017 22:42 10,4 C 73 % 1009,1 hPa 0,0 l/m 16,0 km/h (3 Bft) W-SW 240 0 min 0,000 mm 0,0 UV-I 0 W/m 5,8 C 5,2 C 24,1 km/h (4 Bft) 95,74 %
22.02.2017 22:44 10,4 C 73 % 1009,1 hPa 0,0 l/m 16,4 km/h (3 Bft) W-SW 244 0 min 0,000 mm 0,0 UV-I 0 W/m 5,8 C 5,1 C 24,1 km/h (4 Bft) 93,62 %
22.02.2017 22:46 10,4 C 73 % 1009,1 hPa 0,0 l/m 18,9 km/h (3 Bft) W 268 0 min 0,000 mm 0,0 UV-I 0 W/m 5,8 C 4,2 C 27,4 km/h (4 Bft) 93,18 %
22.02.2017 22:48 10,4 C 73 % 1009,2 hPa 0,0 l/m 15,2 km/h (3 Bft) W-SW 241 0 min 0,000 mm 0,0 UV-I 0 W/m 5,8 C 5,5 C 19,3 km/h (3 Bft) 93,62 %
22.02.2017 22:50 10,4 C 73 % 1009,2 hPa 0,0 l/m 19,6 km/h (3 Bft) W 263 0 min 0,000 mm 0,0 UV-I 0 W/m 5,8 C 3,9 C 29,0 km/h (5 Bft) 94,64 %
22.02.2017 22:52 10,4 C 73 % 1009,2 hPa 0,0 l/m 20,1 km/h (4 Bft) W 273 0 min 0,000 mm 0,0 UV-I 0 W/m 5,8 C 3,8 C 27,4 km/h (4 Bft) 97,73 %
22.02.2017 22:54 10,4 C 73 % 1009,2 hPa 0,0 l/m 16,1 km/h (3 Bft) W 269 0 min 0,000 mm 0,0 UV-I 0 W/m 5,8 C 5,2 C 22,5 km/h (4 Bft) 97,37 %
22.02.2017 22:56 10,4 C 73 % 1009,2 hPa 0,0 l/m 14,9 km/h (3 Bft) W 266 0 min 0,000 mm 0,0 UV-I 0 W/m 5,8 C 5,7 C 20,9 km/h (4 Bft) 96,61 %
22.02.2017 22:58 10,4 C 73 % 1009,2 hPa 0,0 l/m 12,7 km/h (3 Bft) W-SW 254 0 min 0,000 mm 0,0 UV-I 0 W/m 5,8 C 6,6 C 22,5 km/h (4 Bft) 87,50 %
22.02.2017 23:00 10,4 C 73 % 1009,1 hPa 0,0 l/m 18,5 km/h (3 Bft) W-SW 245 0 min 0,000 mm 0,0 UV-I 0 W/m 5,8 C 4,3 C 32,2 km/h (5 Bft) 95,31 %
22.02.2017 23:02 10,4 C 73 % 1009,1 hPa 0,0 l/m 20,4 km/h (4 Bft) W-SW 250 0 min 0,050 mm 0,0 UV-I 0 W/m 5,8 C 3,7 C 25,7 km/h (4 Bft) 97,62 %
22.02.2017 23:04 10,4 C 73 % 1009,1 hPa 0,0 l/m 18,3 km/h (3 Bft) W-SW 250 0 min 0,000 mm 0,0 UV-I 0 W/m 5,8 C 4,4 C 22,5 km/h (4 Bft) 94,34 %
22.02.2017 23:06 10,4 C 73 % 1009,0 hPa 0,0 l/m 17,7 km/h (3 Bft) W-SW 252 0 min 0,000 mm 0,0 UV-I 0 W/m 5,8 C 4,6 C 24,1 km/h (4 Bft) 93,02 %
22.02.2017 23:08 10,4 C 73 % 1009,0 hPa 0,0 l/m 17,0 km/h (3 Bft) SW 219 0 min 0,000 mm 0,0 UV-I 0 W/m 5,8 C 4,8 C 22,5 km/h (4 Bft) 97,73 %
22.02.2017 23:10 10,5 C 73 % 1008,9 hPa 0,0 l/m 16,1 km/h (3 Bft) SW 233 0 min 0,000 mm 0,0 UV-I 0 W/m 5,9 C 5,3 C 27,4 km/h (4 Bft) 98,00 %
22.02.2017 23:12 10,5 C 73 % 1008,8 hPa 0,0 l/m 18,8 km/h (3 Bft) W-SW 252 0 min 0,000 mm 0,0 UV-I 0 W/m 5,9 C 4,3 C 29,0 km/h (5 Bft) 96,00 %
22.02.2017 23:14 10,5 C 73 % 1008,8 hPa 0,0 l/m 23,6 km/h (4 Bft) W 260 0 min 0,000 mm 0,0 UV-I 0 W/m 5,9 C 2,9 C 29,0 km/h (5 Bft) 97,56 %
22.02.2017 23:16 10,6 C 72 % 1008,8 hPa 0,0 l/m 22,6 km/h (4 Bft) SW 227 0 min 0,000 mm 0,0 UV-I 0 W/m 5,8 C 3,3 C 32,2 km/h (5 Bft) 92,00 %
22.02.2017 23:18 10,6 C 72 % 1008,8 hPa 0,0 l/m 21,3 km/h (4 Bft) SW 229 0 min 0,000 mm 0,0 UV-I 0 W/m 5,8 C 3,7 C 29,0 km/h (5 Bft) 90,24 %
22.02.2017 23:20 10,6 C 72 % 1008,9 hPa 0,0 l/m 22,7 km/h (4 Bft) W-SW 240 0 min 0,000 mm 0,0 UV-I 0 W/m 5,8 C 3,3 C 32,2 km/h (5 Bft) 96,00 %
22.02.2017 23:22 10,6 C 72 % 1008,9 hPa 0,0 l/m 21,4 km/h (4 Bft) W-SW 239 0 min 0,000 mm 0,0 UV-I 0 W/m 5,8 C 3,6 C 33,8 km/h (5 Bft) 90,91 %
22.02.2017 23:24 10,6 C 72 % 1009,0 hPa 0,0 l/m 20,8 km/h (4 Bft) W 279 0 min 0,000 mm 0,0 UV-I 0 W/m 5,8 C 3,8 C 30,6 km/h (5 Bft) 98,00 %
22.02.2017 23:26 10,6 C 72 % 1009,0 hPa 0,0 l/m 18,0 km/h (3 Bft) W-SW 238 0 min 0,000 mm 0,0 UV-I 0 W/m 5,8 C 4,7 C 30,6 km/h (5 Bft) 96,15 %
22.02.2017 23:28 10,6 C 72 % 1008,8 hPa 0,0 l/m 26,9 km/h (4 Bft) SW 229 0 min 0,000 mm 0,0 UV-I 0 W/m 5,8 C 2,2 C 41,8 km/h (6 Bft) 96,30 %
22.02.2017 23:30 10,6 C 72 % 1008,8 hPa 0,0 l/m 24,3 km/h (4 Bft) W-SW 240 0 min 0,000 mm 0,0 UV-I 0 W/m 5,8 C 2,8 C 37,0 km/h (5 Bft) 97,01 %
22.02.2017 23:32 10,7 C 72 % 1008,8 hPa 0,0 l/m 23,9 km/h (4 Bft) W-SW 239 0 min 0,000 mm 0,0 UV-I 0 W/m 5,9 C 3,1 C 33,8 km/h (5 Bft) 98,00 %
22.02.2017 23:34 10,7 C 72 % 1008,9 hPa 0,0 l/m 19,7 km/h (3 Bft) SW 233 0 min 0,000 mm 0,0 UV-I 0 W/m 5,9 C 4,3 C 27,4 km/h (4 Bft) 97,37 %
22.02.2017 23:36 10,7 C 72 % 1008,8 hPa 0,0 l/m 19,7 km/h (3 Bft) W-SW 257 0 min 0,000 mm 0,0 UV-I 0 W/m 5,9 C 4,3 C 32,2 km/h (5 Bft) 95,92 %
22.02.2017 23:38 10,7 C 72 % 1008,7 hPa 0,0 l/m 19,8 km/h (3 Bft) W-SW 257 0 min 0,000 mm 0,0 UV-I 0 W/m 5,9 C 4,3 C 33,8 km/h (5 Bft) 100,00 %
22.02.2017 23:40 10,6 C 72 % 1008,8 hPa 0,0 l/m 23,5 km/h (4 Bft) W-SW 257 0 min 0,000 mm 0,0 UV-I 0 W/m 5,8 C 3,0 C 33,8 km/h (5 Bft) 95,74 %
22.02.2017 23:42 10,6 C 72 % 1008,7 hPa 0,0 l/m 24,9 km/h (4 Bft) W 264 0 min 0,000 mm 0,0 UV-I 0 W/m 5,8 C 2,7 C 33,8 km/h (5 Bft) 97,87 %
22.02.2017 23:44 10,6 C 72 % 1008,6 hPa 0,0 l/m 23,0 km/h (4 Bft) W-SW 240 0 min 0,000 mm 0,0 UV-I 0 W/m 5,8 C 3,2 C 33,8 km/h (5 Bft) 97,87 %
22.02.2017 23:46 10,6 C 72 % 1008,6 hPa 0,0 l/m 24,0 km/h (4 Bft) W-SW 254 0 min 0,000 mm 0,0 UV-I 0 W/m 5,8 C 2,9 C 38,6 km/h (5 Bft) 100,00 %
22.02.2017 23:48 10,7 C 72 % 1008,7 hPa 0,0 l/m 18,5 km/h (3 Bft) W-SW 257 0 min 0,000 mm 0,0 UV-I 0 W/m 5,9 C 4,7 C 25,7 km/h (4 Bft) 94,64 %
22.02.2017 23:50 10,7 C 72 % 1008,7 hPa 0,0 l/m 21,9 km/h (4 Bft) W 267 0 min 0,000 mm 0,0 UV-I 0 W/m 5,9 C 3,6 C 33,8 km/h (5 Bft) 100,00 %
22.02.2017 23:52 10,7 C 72 % 1008,7 hPa 0,0 l/m 19,7 km/h (3 Bft) W-SW 238 0 min 0,000 mm 0,0 UV-I 0 W/m 5,9 C 4,3 C 32,2 km/h (5 Bft) 100,00 %
22.02.2017 23:54 10,7 C 72 % 1008,7 hPa 0,0 l/m 18,9 km/h (3 Bft) W-SW 253 0 min 0,000 mm 0,0 UV-I 0 W/m 5,9 C 4,5 C 27,4 km/h (4 Bft) 96,00 %
22.02.2017 23:56 10,6 C 72 % 1008,8 hPa 0,0 l/m 20,2 km/h (4 Bft) W-SW 250 0 min 0,000 mm 0,0 UV-I 0 W/m 5,8 C 4,0 C 30,6 km/h (5 Bft) 97,87 %
22.02.2017 23:58 10,6 C 72 % 1008,8 hPa 0,0 l/m 18,4 km/h (3 Bft) W 261 0 min 0,000 mm 0,0 UV-I 0 W/m 5,8 C 4,6 C 29,0 km/h (5 Bft) 95,74 %
_ Min-Zeit 02:26 13:04 23:44 - 00:50 - - - - - - 22:04 07:20 00:50 18:20
Minimum _ 7,3 C 66 % 1008,6 hPa - 0,9 km/h (0 Bft) - - - - - - 5,7 C 1,4 C 3,2 km/h (1 Bft) 85,71 %
_ Max-Zeit 12:58 01:12 00:10 00:26 14:00 - - 11:02 12:02 12:52 11:50 11:28 16:20 14:00 00:02
Maximum _ 13,3 C 98 % 1015,4 hPa 0,2 l/m 36,5 km/h
W (5 Bft)
- - 2 min 0,178 mm 1,4 UV-I 437 W/m 8,6 C 10,3 C 56,3 km/h
W (7 Bft)
100,00 %
Durchschnitt _ 9,9 C 83 % 1011,6 hPa #2,8 l/m 14,1 km/h (3 Bft) W-SW - #40 min. #1,168 mm 0,8 UV-I 108 W/m 7,1 C 5,8 C 21,8 km/h (4 Bft) 96,81 %